[[{"header":{"parameterUnit":"m.s-1","parameterCategory":1,"la1":30.6,"la2":29.2853,"lo1":-89.7004,"lo2":-87.6739,"dy":0.0162,"dx":0.0183,"nx":112,"ny":82,"refTime":"2023-06-23T06:00:00:Z","depth":0,"parameterNumber":2,"parameterNumberName":"U-component_of_WINDS"},"data":[0.0,0.0,0.0,0.0,0.0,0.0,0.0,0.0,0.0,0.0,0.0,0.0,0.0,0.0,0.0,0.0,0.0,0.0,0.0,0.0,0.0,0.0,0.0,0.0,0.0,0.0,0.0,0.0,0.0,0.0,0.0,0.0,0.0,0.0,0.0,0.0,0.0,0.0,0.0,0.0,0.0,0.0,0.0,0.0,0.0,0.0,0.0,0.0,0.0,0.0,0.0,0.0,0.0,0.0,0.0,0.0,0.0,0.0,0.0,0.0,0.0,0.0,0.0,0.0,0.0,0.0,0.0,0.0,0.0,0.0,0.0,0.0,0.0,0.0,0.0,0.0,0.0,0.0,0.0,0.0,0.0,0.0,0.0,0.0,0.0,0.0,0.0,0.0,0.0,0.0,-4.8727,-4.8635,-4.8604,-4.8604,-4.8604,-4.848,-4.8115,-4.7478,0.0,0.0,0.0,0.0,0.0,0.0,0.0,0.0,0.0,0.0,0.0,0.0,0.0,0.0,0.0,0.0,0.0,0.0,0.0,0.0,0.0,0.0,0.0,0.0,0.0,0.0,0.0,0.0,0.0,0.0,0.0,0.0,0.0,0.0,0.0,0.0,0.0,0.0,0.0,0.0,0.0,0.0,0.0,0.0,0.0,0.0,0.0,0.0,0.0,0.0,0.0,0.0,0.0,0.0,0.0,0.0,0.0,0.0,0.0,0.0,0.0,0.0,0.0,0.0,0.0,0.0,0.0,0.0,0.0,0.0,0.0,0.0,0.0,0.0,0.0,0.0,0.0,0.0,0.0,0.0,0.0,0.0,0.0,0.0,0.0,0.0,0.0,0.0,0.0,0.0,0.0,0.0,0.0,0.0,0.0,0.0,0.0,0.0,0.0,0.0,0.0,0.0,0.0,0.0,-4.9281,-4.8696,-4.8604,-4.8604,-4.8604,-4.7861,-4.7691,-4.8355,0.0,0.0,0.0,0.0,0.0,0.0,0.0,0.0,0.0,0.0,0.0,0.0,0.0,0.0,0.0,0.0,0.0,0.0,0.0,0.0,0.0,0.0,0.0,0.0,0.0,0.0,0.0,0.0,0.0,0.0,0.0,0.0,0.0,0.0,0.0,0.0,0.0,0.0,0.0,0.0,0.0,0.0,0.0,0.0,0.0,0.0,0.0,0.0,0.0,0.0,0.0,0.0,0.0,0.0,0.0,0.0,0.0,0.0,0.0,0.0,0.0,0.0,0.0,0.0,0.0,0.0,0.0,0.0,0.0,0.0,0.0,0.0,0.0,0.0,0.0,0.0,0.0,0.0,0.0,0.0,0.0,0.0,0.0,0.0,0.0,0.0,0.0,0.0,0.0,0.0,0.0,0.0,0.0,0.0,0.0,0.0,0.0,0.0,0.0,0.0,0.0,0.0,0.0,-5.0205,-4.9959,-4.9281,-4.9528,-4.9743,-4.9743,-4.8823,-4.8222,-4.8134,-4.6475,0.0,0.0,0.0,0.0,0.0,0.0,0.0,0.0,0.0,0.0,0.0,0.0,0.0,0.0,0.0,0.0,0.0,0.0,0.0,0.0,0.0,0.0,0.0,0.0,0.0,0.0,0.0,0.0,0.0,0.0,0.0,0.0,0.0,0.0,0.0,0.0,0.0,0.0,0.0,0.0,0.0,0.0,0.0,0.0,0.0,0.0,0.0,0.0,0.0,0.0,0.0,0.0,0.0,0.0,0.0,0.0,0.0,0.0,0.0,0.0,0.0,0.0,0.0,0.0,0.0,0.0,0.0,0.0,0.0,0.0,0.0,0.0,0.0,0.0,0.0,0.0,0.0,0.0,0.0,0.0,0.0,0.0,0.0,0.0,0.0,0.0,0.0,0.0,0.0,0.0,0.0,0.0,0.0,0.0,0.0,0.0,0.0,0.0,0.0,0.0,0.0,0.0,-5.0605,-5.0667,-4.9989,-5.0389,-5.0697,-5.0697,-4.973,-4.8818,-4.8085,-4.6405,0.0,0.0,0.0,0.0,0.0,0.0,0.0,0.0,0.0,0.0,0.0,0.0,0.0,0.0,0.0,0.0,0.0,0.0,0.0,0.0,0.0,0.0,0.0,0.0,0.0,0.0,0.0,0.0,0.0,0.0,0.0,0.0,0.0,0.0,0.0,0.0,0.0,0.0,0.0,0.0,0.0,0.0,0.0,0.0,0.0,0.0,0.0,0.0,0.0,0.0,0.0,0.0,0.0,0.0,0.0,0.0,0.0,0.0,0.0,0.0,0.0,0.0,0.0,0.0,0.0,0.0,0.0,0.0,0.0,0.0,0.0,0.0,0.0,0.0,0.0,0.0,0.0,0.0,0.0,0.0,0.0,0.0,0.0,0.0,0.0,0.0,0.0,0.0,0.0,0.0,0.0,0.0,0.0,0.0,0.0,0.0,0.0,0.0,0.0,0.0,0.0,0.0,-5.159,-5.1374,-5.0697,-5.0667,-5.0697,-5.0697,-4.9775,-4.9164,-4.8999,-4.7184,0.0,0.0,0.0,0.0,0.0,0.0,0.0,0.0,0.0,0.0,0.0,0.0,0.0,0.0,0.0,0.0,0.0,0.0,0.0,0.0,0.0,0.0,0.0,0.0,0.0,0.0,0.0,0.0,0.0,0.0,0.0,0.0,0.0,0.0,0.0,0.0,0.0,0.0,0.0,0.0,0.0,0.0,0.0,0.0,0.0,0.0,0.0,0.0,0.0,0.0,0.0,0.0,0.0,0.0,0.0,0.0,0.0,0.0,0.0,0.0,0.0,0.0,0.0,0.0,0.0,0.0,0.0,0.0,0.0,0.0,0.0,0.0,0.0,0.0,0.0,0.0,0.0,0.0,0.0,0.0,0.0,0.0,0.0,0.0,0.0,0.0,0.0,0.0,0.0,0.0,0.0,0.0,0.0,0.0,0.0,0.0,0.0,0.0,0.0,0.0,0.0,0.0,-5.2082,-5.2082,0.0,-5.1713,-5.1662,-5.1016,-5.0037,-4.9143,-4.847,0.0,0.0,0.0,0.0,0.0,0.0,0.0,0.0,0.0,0.0,0.0,0.0,0.0,0.0,0.0,0.0,0.0,0.0,0.0,0.0,0.0,0.0,0.0,0.0,0.0,0.0,0.0,0.0,0.0,0.0,0.0,0.0,0.0,0.0,0.0,0.0,0.0,0.0,0.0,0.0,0.0,0.0,0.0,0.0,0.0,0.0,0.0,0.0,0.0,0.0,0.0,0.0,0.0,0.0,0.0,0.0,0.0,0.0,0.0,0.0,0.0,0.0,0.0,0.0,0.0,0.0,0.0,0.0,0.0,0.0,0.0,0.0,0.0,0.0,0.0,0.0,0.0,0.0,0.0,0.0,0.0,0.0,0.0,0.0,0.0,0.0,0.0,0.0,0.0,0.0,0.0,0.0,0.0,0.0,0.0,0.0,0.0,0.0,0.0,0.0,0.0,0.0,-5.2082,-5.2421,-5.2544,0.0,-5.2152,-5.1911,-5.1156,-5.018,-4.9141,-4.8072,0.0,0.0,0.0,0.0,0.0,0.0,0.0,0.0,0.0,0.0,0.0,0.0,0.0,0.0,0.0,0.0,0.0,0.0,0.0,0.0,0.0,0.0,0.0,0.0,0.0,0.0,0.0,0.0,0.0,0.0,0.0,0.0,0.0,0.0,0.0,0.0,0.0,0.0,0.0,0.0,0.0,0.0,0.0,0.0,0.0,0.0,0.0,0.0,0.0,0.0,0.0,0.0,0.0,0.0,0.0,0.0,0.0,0.0,0.0,0.0,0.0,0.0,0.0,0.0,0.0,0.0,0.0,0.0,0.0,0.0,0.0,0.0,0.0,0.0,0.0,0.0,0.0,0.0,0.0,0.0,0.0,0.0,0.0,0.0,0.0,0.0,0.0,0.0,0.0,0.0,0.0,0.0,0.0,0.0,0.0,0.0,0.0,0.0,0.0,0.0,0.0,0.0,-5.2698,-5.2698,-5.2698,-5.2653,-5.1727,-5.1109,-5.1063,-5.0132,-4.9141,0.0,0.0,0.0,0.0,0.0,0.0,0.0,0.0,0.0,0.0,0.0,0.0,0.0,0.0,0.0,0.0,0.0,0.0,0.0,0.0,0.0,0.0,0.0,0.0,0.0,0.0,0.0,0.0,0.0,0.0,0.0,0.0,0.0,0.0,0.0,0.0,0.0,0.0,0.0,0.0,0.0,0.0,0.0,0.0,0.0,0.0,0.0,0.0,0.0,0.0,0.0,0.0,0.0,0.0,0.0,0.0,0.0,0.0,0.0,0.0,0.0,0.0,0.0,0.0,0.0,0.0,0.0,0.0,0.0,0.0,0.0,0.0,0.0,0.0,0.0,0.0,0.0,0.0,0.0,0.0,0.0,0.0,0.0,0.0,0.0,0.0,0.0,0.0,0.0,0.0,0.0,0.0,0.0,0.0,0.0,0.0,0.0,0.0,0.0,0.0,0.0,0.0,0.0,-5.2608,-5.2698,-5.2427,-5.1651,-5.1296,-5.0544,-4.9042,-4.8646,-4.8021,-4.7002,0.0,0.0,0.0,0.0,0.0,0.0,0.0,0.0,0.0,0.0,0.0,0.0,0.0,0.0,0.0,0.0,0.0,0.0,0.0,0.0,0.0,0.0,0.0,0.0,0.0,0.0,0.0,0.0,0.0,0.0,0.0,0.0,0.0,0.0,0.0,0.0,0.0,0.0,0.0,0.0,0.0,0.0,0.0,0.0,0.0,0.0,0.0,0.0,0.0,0.0,0.0,0.0,0.0,0.0,0.0,0.0,0.0,0.0,0.0,0.0,0.0,0.0,0.0,0.0,0.0,0.0,0.0,0.0,0.0,0.0,0.0,0.0,0.0,0.0,0.0,0.0,0.0,0.0,0.0,0.0,0.0,0.0,0.0,0.0,0.0,0.0,0.0,0.0,0.0,0.0,0.0,0.0,0.0,0.0,0.0,0.0,0.0,0.0,0.0,0.0,0.0,0.0,-5.1911,-5.1727,-5.1233,-5.0591,-5.0114,-4.9386,-4.8122,-4.7643,-4.7157,-4.6535,0.0,0.0,0.0,0.0,0.0,0.0,0.0,0.0,0.0,0.0,0.0,0.0,0.0,0.0,0.0,0.0,0.0,0.0,0.0,0.0,0.0,0.0,0.0,0.0,0.0,0.0,0.0,0.0,0.0,0.0,0.0,0.0,0.0,0.0,0.0,0.0,0.0,0.0,0.0,0.0,0.0,0.0,0.0,0.0,0.0,0.0,0.0,0.0,0.0,0.0,0.0,0.0,0.0,0.0,0.0,0.0,0.0,0.0,0.0,0.0,0.0,0.0,0.0,0.0,0.0,0.0,0.0,0.0,0.0,0.0,0.0,0.0,0.0,0.0,0.0,0.0,0.0,0.0,0.0,0.0,0.0,0.0,0.0,0.0,0.0,0.0,0.0,0.0,0.0,0.0,0.0,0.0,0.0,0.0,0.0,0.0,0.0,0.0,0.0,0.0,0.0,0.0,-5.0828,-5.0132,-4.9582,-4.9484,-4.8546,-4.7971,-4.7869,-4.7002,-4.6482,-4.6482,0.0,0.0,0.0,0.0,0.0,0.0,0.0,0.0,0.0,0.0,0.0,0.0,0.0,0.0,0.0,0.0,0.0,0.0,0.0,0.0,0.0,0.0,0.0,0.0,0.0,0.0,0.0,0.0,0.0,0.0,0.0,0.0,0.0,0.0,0.0,0.0,0.0,0.0,0.0,0.0,0.0,0.0,0.0,0.0,0.0,0.0,0.0,0.0,0.0,0.0,0.0,0.0,0.0,0.0,0.0,0.0,0.0,0.0,0.0,0.0,-3.9471,0.0,0.0,0.0,0.0,0.0,0.0,0.0,0.0,0.0,0.0,0.0,0.0,0.0,0.0,0.0,0.0,0.0,0.0,0.0,0.0,0.0,0.0,0.0,0.0,0.0,0.0,0.0,0.0,0.0,0.0,0.0,0.0,0.0,0.0,0.0,0.0,0.0,0.0,0.0,0.0,0.0,-4.9747,-4.9727,-4.9288,-4.8396,-4.8122,-4.7694,-4.6925,-4.6612,-4.6482,-4.6482,-4.6482,0.0,0.0,0.0,0.0,0.0,0.0,0.0,0.0,0.0,0.0,0.0,0.0,0.0,0.0,0.0,0.0,0.0,0.0,0.0,0.0,0.0,0.0,0.0,0.0,0.0,0.0,0.0,0.0,0.0,0.0,0.0,0.0,0.0,0.0,0.0,0.0,0.0,0.0,0.0,0.0,0.0,0.0,0.0,0.0,0.0,0.0,0.0,0.0,0.0,0.0,0.0,0.0,0.0,0.0,0.0,0.0,0.0,0.0,0.0,0.0,-3.9697,0.0,0.0,0.0,0.0,0.0,0.0,0.0,0.0,0.0,0.0,0.0,0.0,0.0,0.0,0.0,0.0,0.0,0.0,0.0,0.0,0.0,0.0,0.0,0.0,0.0,0.0,0.0,0.0,0.0,0.0,0.0,0.0,0.0,0.0,0.0,0.0,0.0,0.0,0.0,0.0,-4.8696,-4.8679,-4.8318,-4.7778,-4.7951,-4.7796,-4.7022,-4.6942,-4.6834,-4.6535,-4.6482,0.0,0.0,0.0,0.0,0.0,0.0,0.0,0.0,0.0,0.0,0.0,0.0,0.0,0.0,0.0,0.0,0.0,0.0,0.0,0.0,0.0,0.0,0.0,0.0,0.0,0.0,0.0,0.0,0.0,0.0,0.0,0.0,0.0,0.0,0.0,0.0,0.0,0.0,0.0,0.0,0.0,0.0,0.0,0.0,0.0,0.0,0.0,0.0,0.0,0.0,0.0,0.0,0.0,-3.8969,-3.9245,-3.9697,-3.9697,-3.9697,-3.9697,-3.9697,-3.9697,-3.9697,-3.9697,0.0,0.0,0.0,0.0,0.0,0.0,0.0,0.0,0.0,0.0,0.0,0.0,0.0,0.0,0.0,0.0,0.0,0.0,0.0,0.0,0.0,0.0,0.0,0.0,-4.6482,-4.6482,-4.6482,0.0,0.0,0.0,0.0,0.0,0.0,0.0,0.0,0.0,0.0,0.0,-4.7949,-4.7743,-4.7567,-4.7567,-4.7948,-4.8056,-4.7568,-4.7567,-4.7296,-4.6808,-4.6781,-4.6727,0.0,0.0,0.0,0.0,0.0,0.0,0.0,0.0,0.0,0.0,0.0,0.0,0.0,0.0,0.0,0.0,0.0,0.0,0.0,0.0,0.0,0.0,0.0,0.0,0.0,0.0,0.0,0.0,0.0,0.0,0.0,0.0,-3.4943,-3.5449,0.0,0.0,0.0,0.0,0.0,0.0,0.0,0.0,0.0,0.0,0.0,0.0,0.0,-3.7243,-3.7218,-3.7939,-3.8339,-3.8489,-3.9243,-3.9622,-3.9697,-3.9697,-3.9697,-3.9697,-3.9697,0.0,-3.9697,-3.9697,0.0,0.0,0.0,0.0,0.0,0.0,0.0,0.0,0.0,0.0,0.0,0.0,0.0,0.0,0.0,0.0,0.0,0.0,0.0,0.0,0.0,0.0,-4.4429,-4.6112,-4.6482,-4.6482,0.0,-4.6482,-4.6482,-4.6482,-4.6482,0.0,0.0,0.0,0.0,0.0,0.0,0.0,-4.8164,-4.8138,-4.8083,-4.8083,-4.8137,-4.8164,-4.8083,-4.8083,-4.8029,-4.7948,-4.7948,-4.7785,-4.7323,-4.7295,0.0,0.0,0.0,0.0,0.0,0.0,0.0,0.0,0.0,0.0,0.0,0.0,0.0,0.0,0.0,0.0,0.0,0.0,0.0,0.0,0.0,0.0,0.0,0.0,0.0,0.0,0.0,0.0,0.0,-3.5713,-3.5809,-3.6026,-3.605,-3.6146,0.0,0.0,0.0,0.0,0.0,0.0,0.0,0.0,0.0,-3.7432,-3.7716,-3.7922,-3.8076,-3.8632,-3.8988,-3.9167,-3.952,-3.9848,-4.0149,-4.0149,-4.0325,-4.0626,-4.0626,-4.0626,-4.0576,-3.9948,-3.9873,-4.0149,0.0,0.0,0.0,0.0,-4.0166,-4.0256,-4.0094,-4.0079,0.0,-4.0166,0.0,0.0,0.0,0.0,0.0,0.0,0.0,0.0,0.0,0.0,-4.4937,-4.6597,-4.7024,-4.7052,-4.7405,-4.7459,-4.7378,0.0,-4.7242,-4.7541,-4.7812,0.0,0.0,0.0,0.0,-4.8192,-4.8192,-4.849,-4.8679,-4.8679,-4.8978,-4.9032,-4.8707,-4.8679,-4.8544,-4.8219,-4.8192,-4.8083,-4.7866,-4.7866,-4.7568,0.0,0.0,0.0,0.0,0.0,0.0,0.0,0.0,0.0,0.0,0.0,0.0,0.0,0.0,0.0,0.0,0.0,0.0,0.0,0.0,0.0,0.0,0.0,0.0,0.0,0.0,0.0,0.0,-3.6411,-3.6459,-3.6603,-3.6603,-3.6651,0.0,0.0,0.0,0.0,0.0,0.0,-3.7372,-3.7397,-3.7637,-3.819,-3.8403,-3.8688,-3.91,-3.9417,-3.9733,-4.0019,-4.0072,-4.0325,-4.0674,-4.0674,-4.0899,-4.1275,-4.1275,-4.1275,-4.1225,-4.045,-4.035,-4.0674,-4.0408,-4.0525,-4.0844,-4.0518,-4.0428,-4.0495,-4.0275,-4.0238,-4.0304,-4.0304,-4.0571,-4.0966,-4.1191,0.0,0.0,0.0,0.0,-4.2761,-4.4373,-4.5031,-4.5573,-4.692,-4.7406,-4.7703,-4.8083,-4.83,-4.8246,0.0,-4.7948,-4.8246,-4.8381,0.0,0.0,0.0,0.0,-4.8652,-4.8652,-4.9032,-4.9359,-4.9359,-4.9739,-4.9847,-4.9386,-4.9359,-4.9169,-4.8679,-4.8652,-4.8571,-4.8435,-4.8408,-4.8192,-4.7595,0.0,0.0,0.0,0.0,0.0,0.0,0.0,0.0,0.0,0.0,0.0,0.0,0.0,0.0,0.0,0.0,0.0,0.0,0.0,0.0,0.0,0.0,0.0,0.0,0.0,0.0,0.0,0.0,0.0,-3.7084,-3.7156,0.0,0.0,0.0,0.0,-3.7902,-3.7902,-3.7902,-3.795,-3.795,-3.819,-3.8767,-3.8767,-3.9171,-3.9928,-4.0281,-4.0552,-4.0852,-4.1093,-4.1225,-4.125,-4.125,-4.125,-4.1275,-4.1275,-4.1275,-4.1275,-4.1225,-4.1225,-4.125,-4.0956,-4.0873,-4.0844,-4.0518,-4.0563,-4.0755,-4.0755,-4.0951,-4.1157,-4.1157,-4.1182,-4.1206,-4.1206,-4.123,0.0,0.0,-4.2059,-4.2331,-4.3754,-4.4781,-4.5696,-4.6593,-4.7508,-4.8164,-4.8192,-4.8625,-4.8869,0.0,-4.8164,-4.8354,-4.8923,0.0,-4.9277,-4.9847,-4.9928,-4.9928,-4.9928,-4.9956,-4.9956,-4.9956,-4.9983,-5.001,-4.9983,-4.9956,-4.9956,-4.9928,-4.9928,-4.9657,-4.9059,-4.9032,-4.8761,-4.8164,-4.7232,0.0,0.0,0.0,0.0,0.0,0.0,0.0,0.0,0.0,0.0,0.0,0.0,0.0,0.0,0.0,0.0,0.0,0.0,0.0,0.0,0.0,0.0,0.0,0.0,0.0,0.0,0.0,0.0,-3.7685,-3.7685,0.0,-3.8455,-3.8527,-3.8671,-3.9008,-3.9032,-3.9032,-3.9032,-3.9032,-3.9128,-3.932,-3.9485,-3.9831,-4.0324,-4.0627,-4.0898,-4.1168,-4.1222,-4.153,-4.1856,-4.1856,-4.2057,-4.2384,-4.2384,-4.2384,-4.2384,-4.2384,-4.2073,-4.1529,-4.128,-4.1256,-4.1328,-4.0991,-4.0942,-4.1055,-4.1055,-4.1142,-4.1244,-4.1581,-4.1677,-4.1749,-4.2086,-4.2265,-4.2289,-4.2482,-4.253,-4.2933,-4.4601,-4.4825,-4.5189,-4.7681,-4.8041,-4.8174,-4.9137,-4.9549,-4.963,-4.9413,-4.9386,-4.944,-4.9657,-4.9684,-4.9901,-5.0498,-5.0254,-5.0146,-5.0525,-5.0254,-5.001,-5.001,-5.001,-5.001,-5.001,-5.001,-5.001,-5.001,-5.001,-4.9901,-4.9711,-4.9684,-4.9413,-4.8761,-4.731,-4.6114,0.0,0.0,0.0,0.0,0.0,0.0,0.0,0.0,0.0,0.0,0.0,0.0,0.0,0.0,0.0,0.0,0.0,0.0,0.0,0.0,0.0,0.0,0.0,0.0,0.0,0.0,-3.8334,-3.8503,-3.8527,-3.8671,-3.9056,-3.908,-3.9224,-3.9585,-3.9609,-3.9609,-3.9609,-3.9609,-3.9681,-3.9874,-4.0185,-4.0714,-4.1299,-4.1639,-4.2071,-4.2404,-4.2404,-4.2635,-4.2986,-4.2986,-4.3087,-4.3263,-4.3263,-4.3263,-4.3263,-4.315,-4.28,-4.2344,-4.1749,-4.1597,-4.1549,-4.1287,-4.1293,-4.1485,-4.1653,-4.1701,-4.1774,-4.211,-4.2289,-4.2362,-4.2723,-4.2819,-4.2867,-4.2952,-4.3024,-4.3348,-4.4743,-4.491,-4.5246,-4.7466,-4.803,-4.8281,-4.9335,-4.9783,-5.001,-5.001,-5.001,-5.001,-5.001,-5.001,-5.0146,-5.0553,-5.0254,-5.0146,-5.0553,-5.0254,-5.001,-5.001,-5.001,-5.001,-5.001,-5.001,-5.001,-5.001,-5.001,-5.001,-5.001,-5.001,-4.982,-4.944,-4.7445,-4.5864,-4.4844,0.0,0.0,0.0,0.0,0.0,0.0,0.0,0.0,0.0,0.0,0.0,0.0,0.0,0.0,0.0,0.0,0.0,0.0,0.0,0.0,0.0,0.0,0.0,-3.8912,-3.8839,-3.9032,-3.9537,-3.9609,-3.9609,-3.9633,-3.9633,-3.9633,-3.9657,-3.9681,-3.9681,-3.9681,-3.9705,-3.9946,-4.0451,-4.098,-4.1832,-4.2922,-4.3462,-4.4002,-4.4618,-4.4618,-4.4618,-4.4618,-4.4618,-4.4342,-4.3815,-4.3815,-4.384,-4.3758,-4.3472,-4.3449,-4.3551,-4.2553,-4.1907,-4.1598,-4.1335,-4.1557,-4.2121,-4.2651,-4.2819,-4.2819,-4.2843,-4.2843,-4.2843,-4.2867,-4.2867,-4.2904,-4.3409,-4.3529,-4.3649,-4.4202,-4.5061,-4.5768,-4.5828,-4.7239,-4.8584,-4.8584,-4.9358,-5.001,-5.001,-5.001,-5.001,-5.001,-5.001,-5.001,-5.0037,-5.001,0.0,-5.0037,-5.001,-5.001,-5.001,-5.001,-5.001,-5.001,-5.001,-5.001,-5.001,-5.001,-5.001,-5.001,-5.001,-4.9953,-4.9897,-4.7597,-4.5447,-4.3529,0.0,0.0,0.0,0.0,0.0,0.0,0.0,0.0,0.0,0.0,0.0,0.0,0.0,0.0,0.0,0.0,0.0,0.0,0.0,0.0,0.0,0.0,-3.9561,-3.9417,-3.9393,-3.9441,-3.9585,-3.9609,-3.9753,-4.0138,-4.0186,-4.0331,-4.0715,-4.11,-4.1317,-4.1317,-4.1677,-4.2024,-4.2169,-4.2466,-4.2905,-4.3487,-4.3894,-4.4236,-4.4618,-4.4618,-4.4618,-4.4618,-4.4618,-4.4543,-4.4392,-4.4392,-4.4302,-4.407,-4.4012,-4.3703,-4.333,-4.3037,-4.2739,-4.2445,-4.2386,-4.2482,-4.2627,-4.2771,-4.2819,-4.2891,-4.3192,-4.3313,-4.3385,-4.3794,-4.3914,-4.3938,-4.4021,-4.4069,-4.4278,-4.5135,-4.5061,-4.5061,-4.6491,-4.7205,-4.7769,-4.8469,-4.9358,-5.001,-5.001,-5.001,-5.001,-5.001,-5.001,-5.0146,-5.058,-5.0281,0.0,-5.0607,-5.0281,-5.001,-5.001,-5.001,-5.001,-5.001,-5.001,-5.001,-5.001,-5.001,-5.001,-5.001,-5.001,-4.9358,-4.8029,-4.6637,-4.5363,0.0,0.0,0.0,0.0,0.0,0.0,0.0,0.0,0.0,0.0,0.0,0.0,0.0,0.0,0.0,0.0,0.0,0.0,0.0,0.0,0.0,0.0,-4.0258,-4.0258,-4.0258,-4.009,-4.0018,-4.0234,-4.0258,-4.0379,-4.0691,-4.0932,-4.1172,-4.1485,-4.2014,-4.2362,-4.2362,-4.2651,-4.2819,-4.2819,-4.3132,-4.3527,-4.4028,-4.4452,-4.4873,-4.5321,-4.5321,-4.5321,-4.5321,-4.5321,-4.5196,-4.4995,-4.4995,-4.4878,-4.4702,-4.4466,-4.4259,0.0,0.0,0.0,0.0,0.0,-4.3072,-4.312,-4.3337,-4.3433,-4.3481,-4.377,-4.3866,-4.3853,-4.4189,-4.4285,-4.4285,-4.4285,-4.4285,-4.4409,-4.5,-4.4755,-4.457,-4.5707,-4.661,-4.7383,-4.7886,-4.9072,-5.001,-5.001,-5.001,0.0,-5.001,-5.001,-5.0118,-5.0471,-5.0227,-5.0146,-5.0471,-5.0227,-5.001,-5.001,-5.001,-5.001,-5.001,-5.001,0.0,0.0,0.0,-5.001,-5.001,-4.9586,0.0,0.0,0.0,-4.5306,-4.4285,0.0,0.0,0.0,-4.2254,-4.1966,0.0,0.0,0.0,0.0,0.0,0.0,0.0,0.0,0.0,0.0,0.0,0.0,0.0,0.0,0.0,0.0,-4.1172,-4.1172,-4.1172,-4.0836,-4.0715,-4.1124,-4.1244,-4.1268,-4.1268,-4.1749,-4.2121,-4.2121,-4.2602,-4.2916,-4.2916,0.0,0.0,0.0,0.0,-4.4135,-4.4741,-4.5257,-4.587,-4.6476,-4.6476,-4.6476,-4.6476,-4.6476,-4.6225,-4.5773,-4.5773,-4.5748,-4.5714,-4.5031,-4.4975,-4.5147,-4.3819,-4.3191,-4.3,-4.3433,-4.3601,-4.3673,-4.4117,0.0,0.0,-4.4285,-4.4285,-4.4285,-4.4285,-4.4285,-4.4285,-4.4285,-4.4285,-4.4285,-4.4285,-4.4285,-4.4285,-4.4285,-4.5768,-4.7205,-4.7205,-4.8669,-5.001,-5.001,-5.001,-5.001,-5.001,-5.001,-5.001,-5.001,-5.001,-5.001,-5.001,-5.001,-5.001,-5.001,0.0,0.0,-5.001,-5.001,-5.001,-5.001,-5.001,-5.001,-5.001,-4.9014,-4.8061,-4.7205,-4.619,-4.5184,-4.4285,-4.4285,-4.4021,-4.3601,-4.3072,-4.2867,0.0,0.0,0.0,0.0,0.0,0.0,0.0,0.0,0.0,0.0,0.0,0.0,0.0,0.0,0.0,-4.1172,-4.1172,-4.1172,-4.1172,-4.1461,-4.1557,-4.122,-4.1557,-4.1822,-4.1822,-4.2362,-4.2675,-4.2675,-4.3072,-4.3361,-4.3361,-4.4202,-4.4683,-4.4683,-4.544,-4.6022,-4.6461,-4.6835,-4.7172,-4.7606,0.0,0.0,-4.7606,-4.7606,-4.7531,-4.7431,-4.7431,-4.7332,-4.7085,-4.6586,-4.589,-4.5049,-4.436,-4.4034,-4.3997,-4.4093,-4.4117,-4.4141,-4.4237,-4.4285,-4.4285,-4.4285,-4.4285,-4.4285,-4.4285,-4.4285,0.0,-4.4285,-4.4285,-4.4285,-4.4285,-4.4285,-4.4285,-4.4285,-4.5768,-4.7205,-4.7205,-4.8669,-5.001,-5.001,-5.001,-5.001,-5.001,-5.001,-5.001,-5.001,-5.001,-5.001,-5.001,-5.001,-5.001,-5.001,-5.001,-5.001,-5.001,-5.001,-5.001,-5.001,-5.001,-5.001,-5.001,-4.8379,-4.7383,-4.7205,-4.5464,-4.447,-4.4285,-4.4285,-4.4237,-4.4117,-4.3625,-4.3144,0.0,0.0,0.0,0.0,0.0,0.0,0.0,0.0,0.0,0.0,0.0,-4.1172,0.0,0.0,-4.1172,-4.1172,-4.1413,-4.1581,-4.1581,-4.2038,-4.2217,-4.1629,-4.2038,-4.2434,-4.2434,-4.2832,-4.3144,-4.3144,-4.3866,-4.4323,-4.4323,-4.5029,-4.5525,-4.5525,-4.5917,-4.6382,-4.6865,-4.7079,-4.7432,-4.7908,-4.7908,-4.7908,-4.7908,-4.7908,-4.7908,-4.7908,-4.7908,-4.7746,-4.737,-4.6865,-4.6212,-4.5438,-4.5237,-4.4741,-4.4285,-4.4285,-4.4285,-4.4285,-4.4285,-4.4285,-4.4333,-4.4597,-4.4669,-4.4717,-4.5005,-4.5077,-4.5077,-4.5077,-4.5077,-4.5077,-4.5077,-4.5077,-4.5077,-4.5077,-4.6588,-4.8025,-4.8025,-4.9303,-5.0444,-5.0444,-5.0227,-5.001,-5.001,-5.001,-5.001,-5.001,-5.001,-5.001,-5.001,-5.001,-5.001,-5.001,-5.001,-5.001,-5.001,-5.001,-5.001,-5.001,-5.001,-5.001,-5.001,-4.8204,-4.7205,-4.7205,-4.5306,-4.4285,-4.4285,-4.4285,-4.4285,-4.4285,-4.3997,-4.3794,0.0,0.0,0.0,0.0,0.0,0.0,0.0,0.0,-4.1172,-4.1172,-4.1172,-4.1172,-4.1172,-4.1268,-4.1341,-4.1341,-4.1774,-4.2193,-4.2193,-4.2627,-4.2819,-4.2327,-4.2639,-4.2964,-4.2964,-4.3361,-4.3721,-4.3818,-4.4635,-4.5125,-4.5221,-4.579,-4.6078,-4.6078,-4.6175,-4.6545,-4.7184,-4.7209,-4.7566,-4.8234,-4.8234,-4.8234,-4.8234,-4.8171,-4.8109,-4.8109,-4.8046,-4.7819,-4.7439,-4.6831,-4.6335,-4.6078,-4.5958,-4.5342,-4.4597,-4.4597,-4.4597,-4.4597,-4.4597,-4.4597,-4.4669,-4.5077,-4.5285,-4.5317,-4.579,-4.5934,-4.5934,-4.5934,-4.5934,-4.5934,-4.5934,-4.5934,-4.5934,-4.5934,-4.7282,-4.8625,-4.8625,-4.9718,-5.0779,-5.0779,-5.0574,-5.0363,-5.0363,-5.0254,-5.0146,-5.0037,-5.001,-5.001,-5.001,-5.001,-5.001,-5.001,-5.001,-5.001,-5.001,-5.001,-5.001,-5.001,-5.001,-4.9897,-4.9727,-4.8088,-4.7146,-4.6909,-4.5184,-4.4285,-4.4285,-4.4285,-4.4285,-4.4285,-4.4285,-4.4285,-4.1172,-4.1172,0.0,-4.1172,-4.1172,-4.1172,0.0,0.0,-4.1172,-4.1172,-4.1172,-4.1172,-4.1172,-4.1581,-4.1894,-4.1894,-4.2386,-4.2723,-4.2723,-4.312,-4.3409,-4.3337,-4.3385,-4.3433,-4.3433,-4.3938,-4.4381,-4.4924,-4.5005,-4.5269,-4.5814,-4.6343,-4.6631,-4.6631,-4.7088,-4.7659,-4.8403,-4.8403,-4.8729,-4.9414,-4.9414,-4.9414,-4.9414,-4.9067,-4.8938,-4.8938,-4.8664,-4.8314,-4.7873,-4.7345,-4.6891,-4.6583,-4.6102,-4.5862,-4.5742,-4.5742,-4.5742,-4.5742,-4.5742,-4.5742,-4.5766,-4.5814,-4.5838,-4.5838,-4.591,-4.5934,-4.5934,-4.5934,-4.5934,-4.5934,-4.5934,-4.5934,-4.5934,-4.5934,-4.6714,-4.7483,-4.7483,-4.9003,-5.0366,-5.0366,-5.1052,-5.1638,-5.1638,-5.115,-5.0634,-5.0091,-5.001,-5.001,-5.001,-5.001,-5.001,-5.001,-5.001,-5.001,-5.001,-5.001,-5.001,-5.001,-5.001,-4.9643,-4.8758,-4.7769,-4.6789,-4.5949,-4.4878,-4.4285,-4.4285,-4.4285,-4.4285,-4.4285,-4.4285,-4.4285,-4.1172,0.0,0.0,0.0,-4.1172,-4.1172,-4.1172,-4.1172,-4.1172,-4.1172,-4.1437,-4.1653,-4.1653,-4.2062,-4.2482,0.0,-4.2856,-4.3192,-4.3192,-4.3649,-4.401,-4.401,-4.4275,-4.4347,-4.4034,-4.4429,-4.4837,-4.5053,-4.5694,-4.615,-4.6367,-4.6896,-4.7161,-4.7161,-4.7377,-4.7828,-4.86,-4.86,-4.8902,-4.959,-4.959,-4.9525,-4.9332,-4.9137,-4.9007,-4.8772,-4.8445,-4.8182,-4.7936,-4.752,-4.7292,-4.7136,-4.692,-4.6848,-4.6776,-4.615,-4.5934,-4.5934,-4.5934,-4.5934,-4.5982,-4.6295,-4.6391,-4.6439,-4.6752,-4.6848,-4.6848,-4.6848,-4.6848,-4.6848,-4.6848,-4.6848,-4.6848,-4.6848,-4.758,-4.8263,-4.8263,-4.9651,-5.0854,-5.0854,-5.1335,-5.1769,-5.1769,-5.1611,-5.1367,-5.1095,-5.0471,-5.001,-5.001,-5.001,-5.001,-5.001,-5.001,-5.001,-5.001,-5.001,-5.001,-5.001,-5.001,-4.9586,-4.8642,-4.771,-4.6789,-4.5828,-4.4816,-4.4285,-4.4285,-4.4285,-4.4285,-4.4285,-4.4285,-4.4285,-4.1172,0.0,0.0,-4.1172,-4.1172,-4.1172,-4.1172,-4.1293,-4.1413,-4.1413,-4.1822,-4.2182,-4.2182,-4.2615,-4.2976,-4.2976,-4.3409,-4.3794,-4.3938,-4.4261,-4.4549,-4.4693,-4.5053,-4.5149,-4.4765,-4.5053,-4.5342,-4.5549,-4.6271,-4.6776,-4.692,-4.7305,-4.7497,-4.7497,-4.7497,-4.7762,-4.8445,-4.8535,-4.8902,-4.9461,-4.9525,-4.9396,-4.9072,-4.8877,-4.8616,-4.8248,-4.796,-4.7828,-4.7828,-4.763,-4.7497,-4.7497,-4.7497,-4.7497,-4.7401,-4.6631,-4.6367,-4.6367,-4.6367,-4.6367,-4.6415,-4.68,-4.6944,-4.6992,-4.7377,-4.7497,-4.7497,-4.7497,-4.7497,-4.7497,-4.7497,-4.7497,-4.7497,-4.7497,-4.8067,-4.8592,-4.8592,-4.966,-5.0571,-5.0571,-5.13,-5.1874,-5.1874,-5.2004,-5.2072,-5.2072,-5.1041,-5.0254,-5.0254,-5.0118,-5.001,-5.001,-5.001,-5.001,-5.001,-5.001,-5.001,-5.001,-5.001,-4.9472,-4.8236,-4.7534,-4.661,-4.5428,-4.4631,-4.4285,-4.4285,-4.4285,-4.4285,-4.4285,-4.4285,-4.4285,0.0,0.0,-4.1172,-4.1172,-4.1172,-4.1172,-4.1172,-4.1581,-4.2,-4.2,-4.2434,-4.2795,-4.2795,-4.3144,-4.3481,-4.3481,-4.3962,-4.4429,-4.4957,-4.5053,-4.5245,-4.5814,-4.5886,-4.5886,0.0,-4.5886,-4.6102,-4.6631,-4.6704,-4.6944,-4.7449,-4.7497,-4.7497,-4.7497,-4.7497,-4.7696,-4.8026,-4.8379,-4.8772,-4.9137,-4.9461,-4.9396,-4.9072,-4.8355,-4.7828,-4.7497,-4.7497,-4.7497,-4.7497,-4.7497,-4.7497,-4.7497,-4.7497,-4.7497,-4.7497,-4.7473,-4.7449,-4.7449,-4.7449,-4.7449,-4.7449,-4.7473,-4.7473,-4.7473,-4.7497,-4.7497,-4.7497,-4.7497,-4.7497,-4.7497,-4.7497,-4.7497,-4.7497,-4.7497,-4.7497,-4.7563,-4.7563,-4.8371,-4.9063,-4.9063,-5.0701,-5.2077,-5.2077,-5.2447,-5.2696,-5.2696,-5.1665,-5.0878,-5.0878,-5.0363,-5.001,-5.001,-5.001,-5.001,-5.001,-5.001,-5.001,-5.001,-5.001,-4.9186,-4.7324,-4.7205,-4.6311,-4.4409,-4.4347,-4.4285,-4.4285,-4.4285,-4.4285,-4.4285,-4.4285,-4.4285,-4.1172,0.0,-4.1172,-4.1172,-4.1437,-4.1701,-4.1701,-4.2169,-4.2554,-4.2554,-4.2904,-4.3265,-4.3265,-4.3697,-4.3997,-4.3997,-4.4453,-4.4861,-4.5053,-4.5429,-4.5718,-4.591,-4.6223,0.0,0.0,0.0,0.0,-4.6704,-4.704,-4.7305,-4.7497,-4.7497,-4.7497,-4.7497,-4.7497,-4.7786,-4.8379,-4.8535,-4.8772,-4.9072,-4.8747,-4.8486,-4.8355,-4.7894,-4.763,-4.7497,-4.7497,-4.7497,-4.7497,-4.7497,-4.7497,-4.7497,-4.7497,-4.7497,-4.7497,-4.7497,-4.7497,-4.7497,-4.7497,-4.7497,-4.7497,-4.7497,-4.7497,-4.7497,-4.7497,-4.7497,-4.7497,-4.7497,-4.7497,-4.7497,-4.7497,-4.7497,-4.7497,-4.7497,-4.7497,-4.7497,-4.7497,-4.8264,-4.9023,-4.9023,-5.0689,-5.2068,-5.2068,-5.2795,-5.3049,-5.2235,-5.1421,-5.077,-5.0363,-5.0146,-5.001,-5.001,-5.001,-5.001,-5.001,-5.001,-5.001,-5.001,-5.001,-4.9129,-4.7265,-4.7205,-4.6311,-4.4347,-4.4285,-4.4285,-4.4285,-4.4285,-4.4285,-4.4285,-4.4285,-4.4285,-4.1172,-4.1172,-4.122,-4.1413,-4.1725,-4.2073,-4.2265,-4.2663,-4.3024,-4.3024,-4.3433,-4.3818,-4.3818,-4.4045,-4.4285,-4.4285,-4.4717,-4.5149,-4.5381,-4.5862,-4.6271,-4.6463,-4.68,-4.6992,0.0,0.0,0.0,-4.6992,-4.7305,-4.7497,-4.7497,-4.7497,-4.7497,-4.7497,-4.7497,-4.7786,-4.8379,-4.8535,-4.8772,-4.9072,-4.8355,-4.8026,-4.796,-4.763,-4.7497,-4.7497,-4.7497,-4.7497,-4.7497,-4.7497,-4.7497,-4.7497,-4.7497,-4.7497,-4.7497,-4.7497,-4.7497,-4.7497,-4.7497,-4.7497,-4.7497,-4.7497,-4.7497,-4.7497,-4.7497,-4.7497,-4.7497,-4.7497,-4.7497,-4.7497,-4.7497,-4.7497,-4.7497,-4.7497,-4.7497,-4.7497,-4.7497,-4.8002,-4.8461,-4.8461,-4.9861,-5.0979,-5.0979,-5.213,-5.2763,-5.1959,-5.1475,-5.0932,-5.0118,-5.001,-5.001,-5.001,-5.001,-5.001,-5.001,-5.001,-5.001,-5.001,-4.9727,-4.8842,-4.7265,-4.6909,-4.5949,-4.4347,-4.4285,-4.4285,-4.4285,-4.4285,-4.4285,-4.4285,-4.4285,-4.4285,-4.1172,-4.1196,-4.1341,-4.1846,-4.2014,-4.2182,-4.2747,-4.3192,-4.3553,-4.3553,-4.3986,-4.4285,0.0,0.0,-4.4285,-4.4285,-4.4741,-4.5357,-4.5862,-4.6415,-4.6944,0.0,0.0,0.0,0.0,0.0,0.0,-4.7497,0.0,-4.7497,-4.7497,-4.7497,-4.7497,-4.7497,-4.7497,-4.763,-4.8026,-4.8379,-4.8706,-4.9072,-4.8289,-4.796,-4.796,-4.763,-4.7497,-4.7497,-4.7497,-4.7497,-4.7497,-4.7497,-4.7497,-4.7497,-4.7497,-4.7497,-4.7497,-4.7497,-4.7497,-4.7497,-4.7497,-4.7497,-4.7497,-4.7497,-4.7497,-4.7497,-4.7497,-4.7497,-4.7497,-4.7497,-4.7497,-4.7497,-4.7497,-4.7497,-4.7497,-4.7497,-4.7497,-4.7497,-4.7497,-4.7497,-4.7497,-4.7497,-4.833,-4.9023,-4.9152,-5.079,-5.2067,-5.1814,-5.1769,-5.1394,-5.0173,-5.001,-5.001,-5.001,-5.001,-5.001,-5.001,-5.001,-5.001,-5.001,-4.9129,-4.8178,-4.7265,-4.6311,-4.5367,-4.4347,-4.4285,-4.4285,-4.4285,-4.4285,-4.4285,-4.4285,-4.4285,-4.4285,-4.1172,-4.1461,-4.1798,-4.1942,-4.2543,-4.3144,-4.3289,-4.3746,-4.4069,-4.4069,-4.4189,-4.4285,0.0,0.0,0.0,-4.4285,-4.5053,0.0,-4.591,-4.6728,0.0,-4.7473,0.0,-4.7497,-4.7497,-4.7497,0.0,0.0,-4.7497,-4.7497,-4.7497,-4.7497,-4.7497,-4.7497,-4.7497,-4.763,-4.8026,-4.8092,-4.8158,-4.8289,-4.7828,-4.763,-4.763,-4.7563,-4.7497,-4.7497,-4.7497,-4.7497,-4.7497,-4.7497,-4.7497,-4.7497,-4.7497,-4.7497,-4.7497,-4.7497,-4.7497,-4.7497,-4.7497,-4.7497,-4.7497,-4.7497,-4.7497,-4.7497,-4.7497,-4.7497,-4.7497,-4.7497,-4.7497,-4.7497,-4.7497,-4.7497,-4.7497,-4.7497,-4.7497,-4.7497,-4.7497,-4.7497,-4.7497,-4.7497,-4.833,-4.9475,-5.1042,-5.1757,-5.2067,-5.1814,-5.1769,-5.1394,-5.0173,-5.001,-5.001,-5.001,-5.001,-5.001,-5.001,-5.001,-5.001,-5.001,-4.9129,-4.8178,-4.7265,-4.6311,-4.5367,-4.4347,-4.4285,-4.4285,-4.4285,-4.4285,-4.4285,-4.4285,-4.4285,-4.4285,-4.1461,-4.1749,-4.2086,-4.2543,-4.3072,-4.3577,-4.3818,-4.4069,-4.4285,-4.4285,-4.4285,0.0,0.0,0.0,0.0,0.0,0.0,0.0,-4.5934,-4.6824,-4.7497,0.0,-4.7497,0.0,-4.7497,-4.7497,-4.7497,0.0,-4.7497,-4.7497,-4.7497,-4.7497,-4.7617,-4.7834,-4.7858,-4.7967,-4.8366,-4.8366,-4.8269,-4.8026,-4.7871,-4.7858,-4.7858,-4.8074,-4.8195,-4.8195,0.0,-4.8195,-4.8171,-4.7954,-4.7858,-4.7834,-4.7593,-4.7497,-4.7497,-4.7497,-4.7497,-4.7497,-4.7497,-4.7497,-4.7497,-4.7497,-4.7497,-4.7497,-4.7497,-4.7497,-4.7497,-4.7497,-4.7497,-4.7497,-4.7497,-4.7497,-4.7497,-4.7497,-4.7497,-4.7497,-4.7497,-4.7497,-4.7497,-4.7497,-4.796,-4.8828,-5.0499,-5.0521,-5.0581,-5.105,-5.0939,-5.0605,-5.0089,-5.001,-5.001,-5.001,-5.001,-5.001,-5.001,-5.001,-4.984,-4.9415,-4.8469,-4.7534,-4.661,-4.5646,-4.4878,-4.4285,-4.4285,-4.4285,-4.4285,-4.4285,-4.4285,-4.4285,-4.4285,-4.4285,-4.1822,-4.2073,-4.2303,-4.3265,-4.3553,-4.3746,-4.4165,-4.4285,-4.4285,-4.4285,0.0,-4.4285,-4.4285,-4.4285,-4.4285,-4.4285,0.0,-4.5934,-4.5934,-4.6824,-4.7497,-4.7497,-4.7497,-4.7497,-4.7497,-4.7497,-4.7497,-4.7497,-4.7569,-4.7569,-4.7497,-4.7569,-4.7858,-4.8387,-4.8387,-4.8522,-4.8859,-4.8859,-4.864,-4.8179,-4.8305,-4.8387,-4.8411,-4.8868,-4.9084,-4.9084,-4.9084,0.0,-4.9036,-4.8579,-4.8387,-4.8339,-4.781,-4.7617,-4.7593,-4.7521,-4.7497,-4.7497,-4.7497,-4.7497,-4.7497,-4.7497,-4.7497,-4.7497,-4.7497,-4.7497,-4.7497,-4.7497,-4.7497,-4.7497,-4.7497,-4.7497,-4.7497,-4.7497,-4.7497,-4.7497,-4.7497,-4.7497,-4.7497,-4.7497,-4.7497,-4.7828,-4.8828,-4.8575,-4.8661,-5.007,-4.9851,-4.9621,-4.9978,-5.001,-5.001,-5.001,-5.001,-5.001,-5.001,-5.001,-4.9586,-4.8642,-4.771,-4.6789,-4.5828,-4.4816,-4.4285,-4.4285,-4.4285,-4.4285,-4.4285,-4.4285,-4.4285,-4.4285,-4.4285,-4.4285,-4.1822,-4.2338,-4.276,-4.3361,-4.3866,-4.4165,-4.4261,-4.4285,0.0,0.0,-4.4285,-4.4285,-4.4285,-4.4285,0.0,-4.4285,0.0,0.0,0.0,0.0,-4.7497,0.0,0.0,0.0,0.0,0.0,0.0,0.0,0.0,-4.7954,-4.7521,-4.7906,-4.8387,-4.8916,-4.894,-4.9008,-4.9077,-4.9077,-4.9028,-4.8932,-4.896,-4.894,-4.894,-4.9036,-4.9084,-4.9084,-4.9084,0.0,-4.906,-4.8988,-4.894,-4.8892,-4.8363,-4.8147,-4.8098,-4.7666,-4.7497,-4.7497,-4.7497,-4.7497,-4.7497,-4.7497,-4.7497,-4.7497,-4.7497,-4.7497,-4.7497,-4.7497,-4.7497,-4.7497,-4.7497,-4.7497,-4.7497,-4.7497,-4.7497,-4.7497,-4.7497,-4.7497,-4.7497,-4.7497,-4.7497,-4.7828,-4.8828,-4.8575,-4.8661,-5.007,-4.9851,-4.9621,-4.9978,-5.001,-5.001,-5.001,-5.001,-5.001,-5.001,-5.001,-4.9586,-4.8642,-4.771,-4.6789,-4.5828,-4.4816,-4.4285,-4.4285,-4.4285,-4.4285,-4.4285,-4.4285,-4.4285,-4.4285,-4.4285,-4.4285,-4.1822,-4.2217,-4.2543,-4.3313,-4.3721,-4.3925,-4.4213,0.0,0.0,0.0,-4.4285,-4.4285,-4.4285,0.0,0.0,0.0,0.0,0.0,0.0,0.0,0.0,0.0,0.0,0.0,0.0,0.0,0.0,0.0,0.0,-4.8459,-4.793,-4.8676,-4.9229,-4.9469,-4.9782,-4.9782,-4.9493,-4.9493,-4.9349,-4.9084,-4.9349,-4.9493,-4.9493,-4.9782,-4.9926,-4.9926,-4.9926,0.0,-4.9902,-4.9614,-4.9493,-4.9421,-4.8916,-4.8531,-4.8267,-4.8002,-4.7738,-4.7497,-4.7497,-4.7497,-4.7497,-4.7497,-4.7497,-4.7497,-4.7497,-4.7497,-4.7497,-4.7497,-4.7497,-4.7497,-4.7497,-4.7497,-4.7497,-4.7497,-4.7497,-4.7497,-4.7497,-4.7497,-4.7497,-4.7497,-4.7497,-4.763,-4.8133,-4.7515,-4.7389,-4.8589,-4.8515,-4.8518,-4.9213,-4.9727,-5.001,-5.001,-5.001,-5.001,-5.001,-5.001,-4.9358,-4.7945,-4.7442,-4.655,-4.5061,-4.4594,-4.4285,-4.4285,-4.4285,-4.4285,-4.4285,-4.4285,-4.4285,-4.4285,-4.4285,-4.4285,-4.1822,-4.2062,-4.2351,-4.3289,-4.3601,-4.3818,-4.4189,-4.4285,0.0,0.0,-4.4285,-4.4285,-4.4285,0.0,0.0,0.0,0.0,0.0,0.0,0.0,0.0,0.0,0.0,0.0,0.0,0.0,0.0,0.0,0.0,0.0,-4.8652,-4.9421,-4.9926,-5.0046,-5.0479,-5.0503,-5.0046,-5.0046,-4.983,-4.9445,-4.9854,-5.0046,-5.007,-5.0503,-5.0696,-5.0696,-5.0696,0.0,0.0,-5.0239,-5.0046,-4.9998,-4.9445,-4.8988,-4.8603,-4.8363,-4.8026,-4.7642,-4.7545,-4.7497,-4.7497,-4.7497,-4.7497,-4.7497,-4.7497,-4.7497,-4.7497,-4.7497,-4.7497,-4.7497,-4.7497,-4.7497,-4.7497,-4.7497,-4.7497,-4.7497,-4.7497,-4.7497,-4.7497,-4.7497,-4.7497,-4.7497,-4.7497,-4.6728,-4.6351,-4.7194,-4.7151,-4.7452,-4.8469,-4.9244,-4.9783,-4.9953,-5.001,-4.9897,-4.9727,-4.9727,-4.8899,-4.7027,-4.6909,-4.613,-4.4347,-4.4285,-4.4285,-4.4285,-4.4285,-4.4285,-4.4285,-4.4285,-4.4285,-4.4285,-4.4285,-4.4285,-4.1822,-4.2386,-4.2867,-4.3385,-4.389,-4.4213,-4.4261,0.0,0.0,-4.4285,-4.4285,-4.4285,-4.4285,-4.4285,0.0,0.0,0.0,0.0,0.0,0.0,0.0,0.0,0.0,0.0,0.0,0.0,0.0,0.0,0.0,0.0,-4.9734,-4.9875,-5.0095,-5.06,-5.0672,-5.0672,-5.0624,-5.0624,-5.06,-5.0551,-5.06,-5.0624,-5.0624,-5.0672,-5.0696,-5.0696,-5.0696,0.0,0.0,-5.0648,-5.0624,-5.0576,-5.0022,-4.9758,-4.9614,-4.8652,-4.8267,-4.8147,-4.7666,-4.7497,-4.7497,-4.7497,-4.7497,-4.7497,-4.7497,-4.7497,-4.7497,-4.7497,-4.7497,-4.7497,-4.7497,-4.7497,-4.7497,-4.7497,-4.7497,-4.7497,-4.7497,-4.7497,-4.7497,-4.7497,-4.7497,-4.7497,-4.7497,-4.7016,-4.6787,-4.7244,-4.6923,-4.7106,-4.8405,-4.87,-4.9072,-4.9897,-5.001,-4.9643,-4.8815,-4.87,-4.7945,-4.607,-4.5949,-4.5403,-4.4347,-4.4285,-4.4285,-4.4285,-4.4285,-4.4285,-4.4285,-4.4285,-4.4285,-4.4285,-4.4285,-4.4285,-4.1437,-4.1894,-4.2399,-4.2928,-4.3457,-4.3938,-4.4213,0.0,0.0,-4.4285,-4.4285,-4.4285,-4.4285,-4.4285,-4.4453,0.0,0.0,0.0,0.0,0.0,0.0,0.0,0.0,0.0,0.0,0.0,0.0,0.0,0.0,0.0,-5.0359,-5.0359,-5.0479,-5.0696,-5.0696,-5.0696,-5.0696,-5.0696,-5.0696,-5.0696,-5.0696,-5.0696,-5.0696,-5.0696,-5.0696,-5.0696,-5.0696,0.0,0.0,-5.0696,-5.0696,-5.0672,-5.0455,-4.9974,-4.9349,-4.8916,-4.8363,-4.7786,-4.7569,-4.7497,-4.7497,-4.7497,-4.7497,-4.7497,-4.7497,-4.7497,-4.7497,-4.7497,-4.7497,-4.7497,-4.7497,-4.7497,-4.7497,-4.7497,-4.7497,-4.7497,-4.7497,-4.7497,-4.7497,-4.7497,-4.7497,-4.7497,-4.7497,-4.7064,-4.6641,-4.6494,-4.6562,-4.6695,-4.69,-4.7416,-4.7886,-4.8262,-4.8842,-4.8988,-4.8642,-4.8061,-4.718,-4.5889,-4.5768,-4.5367,-4.4347,-4.4285,-4.4285,-4.4285,-4.4285,-4.4285,-4.4285,-4.4285,-4.4285,-4.4285,-4.4285,-4.4285,-4.1365,-4.1798,-4.2327,-4.2856,-4.3361,-4.3866,0.0,0.0,0.0,-4.4285,-4.4285,-4.4285,-4.4285,-4.4285,-4.4501,0.0,0.0,-4.6102,0.0,0.0,0.0,0.0,0.0,0.0,0.0,0.0,0.0,0.0,0.0,0.0,0.0,-5.0551,-5.0527,-5.0696,-5.0551,-5.0455,-5.0455,-5.0455,-5.0455,-5.0455,-5.0624,-5.0696,-5.0696,-5.0696,-5.0696,-5.0696,-5.0696,0.0,0.0,-5.0696,-5.0696,-5.0696,-5.0696,-5.0143,-4.9301,-4.9133,-4.8507,-4.7714,-4.7569,-4.7497,-4.7497,-4.7497,-4.7497,-4.7497,-4.7497,-4.7497,-4.7497,-4.7497,-4.7497,-4.7497,-4.7497,-4.7497,-4.7497,-4.7497,-4.7497,-4.7497,-4.7497,-4.7497,-4.7497,-4.7497,-4.7497,-4.7497,-4.7497,-4.7185,-4.6776,-4.6247,-4.6265,-4.6328,-4.6091,-4.6471,-4.6909,-4.7146,-4.7534,-4.7769,-4.7769,-4.718,-4.6371,-4.5403,-4.5367,-4.5061,-4.4347,-4.4285,-4.4285,-4.4285,-4.4285,-4.4285,-4.4285,-4.4285,-4.4285,-4.4285,-4.4285,-4.4285,-4.1822,-4.241,-4.288,-4.3385,-4.3914,-4.4285,0.0,0.0,0.0,-4.4285,-4.4285,-4.4285,-4.4285,-4.4285,-4.4621,-4.5742,-4.5934,0.0,0.0,0.0,0.0,0.0,0.0,0.0,0.0,0.0,0.0,0.0,0.0,0.0,0.0,-5.0191,-5.0143,-5.0696,-5.0167,-4.9948,-4.9948,-4.9948,-4.9948,-4.9878,-5.0431,-5.0696,-5.0696,-5.0696,-5.0696,0.0,0.0,0.0,0.0,-5.0696,-5.0696,-5.0696,-5.0696,-5.0359,-4.9806,-4.9277,-4.8748,-4.8195,-4.769,-4.7497,-4.7497,-4.7497,-4.7497,-4.7497,-4.7497,-4.7497,-4.7497,-4.7497,-4.7497,-4.7497,-4.7497,-4.7497,-4.7497,-4.7497,-4.7497,-4.7497,-4.7497,-4.7497,-4.7497,-4.7497,-4.7497,-4.7497,-4.7497,-4.7497,-4.7305,-4.6776,-4.6247,-4.61,-4.6539,-4.6177,-4.619,-4.7087,-4.6371,-4.5828,-4.5828,-4.5828,-4.5428,-4.4409,-4.4347,-4.4285,-4.4285,-4.4285,-4.4285,-4.4285,-4.4285,-4.4285,-4.4285,-4.4285,-4.4285,-4.4285,-4.4285,-4.4285,-4.1822,-4.241,-4.294,-4.3385,-4.3938,-4.4285,-4.4285,0.0,0.0,-4.4285,-4.4285,-4.4285,-4.4285,-4.4285,-4.4621,-4.5742,-4.5558,-4.5694,0.0,0.0,0.0,0.0,0.0,0.0,0.0,0.0,0.0,0.0,0.0,0.0,0.0,-4.9974,-4.995,-5.0119,-4.9614,-4.9325,-4.9325,-4.9325,-4.9325,-4.9325,-4.9517,-4.9589,-4.9614,-4.9974,-5.0143,0.0,0.0,0.0,0.0,-5.0696,-5.0696,-5.0696,-5.0696,-5.0143,-4.9301,-4.9133,-4.8507,-4.7738,-4.7569,-4.7497,-4.7497,-4.7497,-4.7497,-4.7497,-4.7497,-4.7497,-4.7497,-4.7497,-4.7497,-4.7497,-4.7497,-4.7497,-4.7497,-4.7497,-4.7497,-4.7497,-4.7497,-4.7497,-4.7497,-4.7497,-4.7497,-4.7497,-4.7497,-4.7497,-4.7329,-4.68,-4.6271,-4.5781,-4.5629,-4.5095,-4.4878,-4.5184,-4.4939,-4.5061,-4.5707,-4.5184,-4.4656,-4.4347,-4.4285,-4.4285,-4.4285,-4.4285,-4.4285,-4.4285,-4.4285,-4.4285,-4.4285,-4.4285,-4.4285,-4.4285,-4.4285,-4.4285,0.0,-4.2639,-4.3168,-4.3697,-4.4021,0.0,0.0,0.0,0.0,0.0,-4.4285,-4.4285,-4.4285,-4.4285,-4.4621,-4.5742,-4.5414,0.0,0.0,0.0,0.0,0.0,0.0,0.0,0.0,0.0,0.0,0.0,0.0,0.0,0.0,-4.9493,-4.9277,-4.9277,-4.894,-4.8772,-4.8772,-4.8772,-4.8772,-4.8796,-4.8988,-4.9084,-4.9084,-4.9421,-4.9686,0.0,0.0,0.0,0.0,-5.0696,-5.0696,-5.0672,-5.0479,-4.9854,-4.906,-4.8844,-4.8243,-4.7497,-4.7497,-4.7497,-4.7497,-4.7497,-4.7497,-4.7497,-4.7497,-4.7497,-4.7497,-4.7497,-4.7497,-4.7497,-4.7497,-4.7497,-4.7497,-4.7497,-4.7497,-4.7497,-4.7497,-4.7497,-4.7497,-4.7497,-4.7497,-4.7497,-4.7497,-4.7497,-4.7401,-4.7064,-4.6559,-4.603,-4.5501,-4.4909,-4.4501,-4.4309,-4.4285,-4.4532,-4.5184,-4.4631,-4.4285,-4.4285,-4.4285,-4.4285,-4.4285,-4.4285,-4.4285,-4.4285,-4.4285,-4.4285,-4.4285,-4.4285,-4.4285,-4.4285,-4.4285,-4.4285,0.0,0.0,0.0,0.0,0.0,0.0,0.0,0.0,0.0,0.0,0.0,0.0,0.0,-4.4285,-4.4621,-4.5742,-4.5453,0.0,0.0,0.0,0.0,0.0,0.0,0.0,0.0,0.0,0.0,0.0,0.0,0.0,0.0,-4.882,-4.8267,-4.8243,-4.8243,-4.8243,-4.8243,-4.8243,-4.8243,-4.8243,-4.8724,-4.8964,-4.8964,-4.9012,-4.9277,0.0,0.0,0.0,0.0,-5.0648,-5.0648,-5.06,-5.0022,-4.9493,-4.8964,-4.8459,-4.7954,-4.7497,-4.7497,-4.7497,-4.7497,-4.7497,-4.7497,-4.7497,-4.7497,-4.7497,-4.7497,-4.7497,-4.7497,-4.7497,-4.7497,-4.7497,-4.7497,-4.7497,-4.7497,-4.7497,-4.7497,-4.7497,-4.7497,-4.7497,-4.7497,-4.7497,-4.7497,-4.7497,-4.7497,-4.7497,-4.704,-4.6535,-4.6006,-4.5453,-4.4861,-4.4333,-4.4285,-4.4285,-4.4285,-4.4285,-4.4285,-4.4285,-4.4285,-4.4285,-4.4285,-4.4285,-4.4285,-4.4285,-4.4285,-4.4285,-4.4285,-4.4285,-4.4285,-4.4285,-4.4285,-4.4285,-4.2795,0.0,-4.3649,-4.4141,-4.4285,0.0,0.0,0.0,0.0,0.0,0.0,0.0,0.0,0.0,0.0,0.0,0.0,0.0,0.0,0.0,0.0,0.0,0.0,0.0,0.0,0.0,0.0,0.0,0.0,0.0,0.0,-4.8435,-4.8098,-4.769,-4.769,-4.769,-4.769,-4.769,-4.769,-4.769,-4.781,-4.7882,-4.7882,-4.8291,-4.8555,0.0,0.0,0.0,-5.007,-5.007,-5.007,-4.9998,-4.9469,-4.894,-4.8459,-4.8339,-4.7954,-4.7497,-4.7497,-4.7497,-4.7497,-4.7497,-4.7497,-4.7497,-4.7497,-4.7497,-4.7497,-4.7497,-4.7497,-4.7497,-4.7497,-4.7497,-4.7497,-4.7497,-4.7497,-4.7497,-4.7497,-4.7497,-4.7497,-4.7497,-4.7497,-4.7497,-4.7497,-4.7497,-4.7497,-4.7497,-4.704,-4.6535,-4.6006,-4.5453,-4.4861,-4.4333,-4.4285,-4.4285,-4.4285,-4.4285,-4.4285,-4.4285,-4.4285,-4.4285,-4.4285,-4.4285,-4.4285,-4.4285,-4.4285,-4.4285,-4.4285,-4.4285,-4.4285,-4.4285,-4.4285,-4.4285,-4.2819,-4.3313,-4.3962,-4.4213,-4.4285,-4.4285,0.0,0.0,0.0,0.0,0.0,0.0,0.0,0.0,0.0,0.0,0.0,0.0,0.0,0.0,0.0,0.0,0.0,0.0,0.0,0.0,0.0,0.0,0.0,0.0,0.0,-4.805,-4.7786,-4.7521,-4.7497,-4.7497,-4.7497,-4.7497,-4.7497,-4.7497,-4.7497,-4.7497,-4.7521,-4.781,-4.805,0.0,0.0,0.0,-4.9493,-4.9493,-4.9493,-4.9445,-4.8916,-4.8555,-4.8267,-4.8002,-4.7738,-4.7497,-4.7497,-4.7497,-4.7497,-4.7497,-4.7497,-4.7497,-4.7497,-4.7497,-4.7497,-4.7497,-4.7497,-4.7497,-4.7497,-4.7497,-4.7497,-4.7497,-4.7497,-4.7497,-4.7497,-4.7497,-4.7497,-4.7497,-4.7497,-4.7497,-4.7497,-4.7497,-4.7497,-4.7497,-4.7257,-4.68,-4.603,-4.5669,-4.5149,-4.4357,-4.4285,-4.4285,-4.4285,-4.4285,-4.4285,-4.4285,-4.4285,-4.4285,-4.4285,-4.4285,-4.4285,-4.4285,-4.4285,-4.4285,-4.4285,-4.4285,-4.4285,-4.4285,-4.4285,-4.4285,-4.2819,-4.3529,-4.4285,-4.4285,-4.4285,-4.4285,0.0,0.0,0.0,0.0,0.0,0.0,0.0,0.0,0.0,0.0,0.0,0.0,0.0,0.0,0.0,0.0,0.0,0.0,0.0,0.0,0.0,0.0,0.0,0.0,0.0,-4.7738,-4.7497,-4.7497,-4.7497,-4.7497,-4.7497,-4.7497,-4.7497,-4.7497,-4.7497,-4.7497,-4.7497,-4.7497,-4.7738,-4.8171,0.0,0.0,-4.8964,-4.8964,-4.8964,-4.8892,-4.8387,-4.8171,-4.8122,-4.7666,-4.7497,-4.7497,-4.7497,-4.7497,-4.7497,-4.7497,-4.7497,-4.7497,-4.7497,-4.7497,-4.7497,-4.7497,-4.7497,-4.7497,-4.7497,-4.7497,-4.7497,-4.7497,-4.7497,-4.7497,-4.7497,-4.7497,-4.7497,-4.7497,-4.7497,-4.7497,-4.7497,-4.7497,-4.7497,-4.7497,-4.7497,-4.7136,-4.6175,-4.5982,-4.5486,-4.4501,-4.4333,-4.4285,-4.4285,-4.4285,-4.4285,-4.4285,-4.4285,-4.4285,-4.4285,-4.4285,-4.4285,-4.4285,-4.4285,-4.4285,-4.4285,-4.4285,-4.4285,-4.4285,-4.4285,-4.4285,-4.2819,-4.3529,-4.4285,-4.4285,-4.4285,-4.4285,0.0,0.0,0.0,0.0,0.0,0.0,0.0,0.0,0.0,0.0,0.0,0.0,0.0,0.0,0.0,0.0,0.0,0.0,0.0,0.0,0.0,0.0,0.0,0.0,0.0,-4.7545,-4.7497,-4.7497,-4.7497,-4.7497,-4.7497,-4.7497,-4.7497,-4.7497,-4.7497,-4.7497,-4.7497,-4.7497,-4.7545,-4.7642,0.0,-4.8339,-4.8411,-4.8411,-4.8411,-4.8363,-4.7834,-4.7617,-4.7617,-4.7521,-4.7497,-4.7497,-4.7497,-4.7497,-4.7497,-4.7497,-4.7497,-4.7497,-4.7497,-4.7497,-4.7497,-4.7497,-4.7497,-4.7497,-4.7497,-4.7497,-4.7497,-4.7497,-4.7497,-4.7497,-4.7497,-4.7497,-4.7497,-4.7497,-4.7497,-4.7497,-4.7497,-4.7497,-4.7497,-4.7497,-4.7497,-4.7281,-4.668,-4.6199,-4.5694,-4.5005,-4.4549,-4.4285,-4.4285,-4.4285,-4.4285,-4.4285,-4.4285,-4.4285,-4.4285,-4.4285,-4.4285,-4.4285,-4.4285,-4.4285,-4.4285,-4.4285,-4.4285,-4.4285,-4.4285,-4.4285,-4.2819,-4.3529,-4.4285,-4.4285,-4.4285,-4.4285,0.0,0.0,0.0,0.0,0.0,0.0,0.0,0.0,0.0,0.0,0.0,0.0,0.0,0.0,0.0,0.0,0.0,0.0,0.0,0.0,0.0,0.0,0.0,0.0,0.0,0.0,-4.7497,-4.7497,-4.7497,-4.7497,-4.7497,-4.7497,-4.7497,-4.7497,-4.7497,-4.7497,-4.7497,-4.7497,-4.7497,-4.7521,0.0,-4.7858,-4.7858,-4.7858,-4.7858,-4.7834,-4.7593,-4.7497,-4.7497,-4.7497,-4.7497,-4.7497,-4.7497,-4.7497,-4.7497,-4.7497,-4.7497,-4.7497,-4.7497,-4.7497,-4.7497,-4.7497,-4.7497,-4.7497,-4.7497,-4.7497,-4.7497,-4.7497,-4.7497,-4.7497,-4.7497,-4.7497,-4.7497,-4.7497,-4.7497,-4.7497,-4.7497,-4.7497,-4.7497,-4.7497,-4.7497,-4.7305,-4.6776,-4.6247,-4.5718,-4.5125,-4.4597,-4.4285,-4.4285,-4.4285,-4.4285,-4.4285,-4.4285,-4.4285,-4.4285,-4.4285,-4.4285,-4.4285,-4.4285,-4.4285,-4.4285,-4.4285,-4.4285,-4.4285,-4.4285,-4.4285,-4.2819,-4.3529,-4.4285,-4.4285,0.0,-4.4285,-4.4285,0.0,0.0,0.0,0.0,0.0,0.0,0.0,0.0,0.0,0.0,0.0,0.0,0.0,0.0,0.0,0.0,0.0,0.0,0.0,0.0,0.0,0.0,0.0,0.0,0.0,-4.7497,-4.7497,-4.7497,-4.7497,-4.7497,-4.7497,-4.7497,-4.7497,-4.7563,-4.763,-4.763,-4.763,-4.763,-4.763,-4.7497,-4.7497,-4.7497,-4.7497,-4.7497,-4.7497,-4.7497,-4.7497,-4.7497,-4.7497,-4.7497,-4.7497,-4.7497,-4.7497,-4.7497,-4.7497,-4.7497,-4.7497,-4.7497,-4.7497,-4.7497,-4.7497,-4.7497,-4.7497,-4.7497,-4.7497,-4.7497,-4.7497,-4.7497,-4.7497,-4.7497,-4.7497,-4.7497,-4.7497,-4.7497,-4.7497,-4.7497,-4.7497,-4.7497,-4.7497,-4.7497,-4.7353,-4.6944,-4.6319,-4.5766,-4.5293,-4.4669,-4.4285,-4.4285,-4.4285,-4.4285,-4.4285,-4.4285,-4.4285,-4.4285,-4.4285,-4.4285,-4.4285,-4.4285,-4.4285,-4.4285,-4.4285,-4.4285,-4.4285,-4.4285,-4.4285,-4.2819,-4.3529,-4.4285,-4.4285,0.0,0.0,-4.4285,0.0,0.0,0.0,0.0,0.0,0.0,0.0,0.0,0.0,0.0,0.0,0.0,0.0,0.0,0.0,0.0,0.0,0.0,0.0,0.0,0.0,0.0,0.0,0.0,0.0,0.0,-4.7497,-4.7497,-4.7497,-4.7497,-4.7497,-4.7497,-4.7497,-4.7828,-4.796,-4.796,-4.796,-4.796,-4.796,-4.763,-4.7497,-4.7497,-4.7497,-4.7497,-4.7497,-4.7497,-4.7497,-4.7497,-4.7497,-4.7497,-4.7497,-4.7497,-4.7497,-4.7497,-4.7497,-4.7497,-4.7497,-4.7497,-4.7497,-4.7497,-4.7497,-4.7497,-4.7497,-4.7497,-4.7497,-4.7497,-4.7497,-4.7497,-4.7497,-4.7497,-4.7497,-4.7497,-4.7497,-4.7497,-4.7497,-4.7497,-4.7497,-4.7497,-4.7497,-4.7497,-4.7497,-4.7449,-4.6559,-4.591,-4.5862,-4.4885,-4.4285,-4.4285,-4.4285,-4.4285,-4.4285,-4.4285,-4.4285,-4.4285,-4.4285,-4.4285,-4.4285,-4.4285,-4.4285,-4.4285,-4.4285,-4.4285,-4.4285,-4.4285,-4.4285,-4.2819,-4.3529,-4.4285,-4.4285,0.0,0.0,0.0,0.0,0.0,0.0,0.0,0.0,0.0,0.0,0.0,0.0,0.0,0.0,0.0,0.0,0.0,0.0,0.0,0.0,0.0,0.0,0.0,0.0,0.0,0.0,0.0,0.0,0.0,-4.7497,-4.7497,-4.7497,-4.7497,-4.7497,-4.7497,-4.7497,-4.763,-4.7828,-4.796,-4.7762,-4.7828,-4.796,-4.763,-4.7497,-4.7497,-4.7497,-4.7497,-4.7497,-4.7497,-4.7497,-4.7497,-4.7497,-4.7497,-4.7497,-4.7497,-4.7497,-4.7497,-4.7497,-4.7497,-4.7497,-4.7497,-4.7497,-4.7497,-4.7497,-4.7497,-4.7497,-4.7497,-4.7497,-4.7497,-4.7497,-4.7497,-4.7497,-4.7497,-4.7497,-4.7497,-4.7497,-4.7497,-4.7497,-4.7497,-4.7497,-4.7497,-4.7497,-4.7497,-4.7497,-4.7497,-4.6872,-4.6295,-4.5958,-4.4909,-4.4285,-4.4285,-4.4285,-4.4285,-4.4285,-4.4285,-4.4285,-4.4285,-4.4285,-4.4285,-4.4285,-4.4285,-4.4285,-4.4285,-4.4285,-4.4285,-4.4285,-4.4285,-4.4285,-4.2556,-4.3225,-4.3639,0.0,0.0,0.0,0.0,0.0,0.0,0.0,0.0,0.0,0.0,0.0,0.0,0.0,0.0,0.0,0.0,0.0,0.0,0.0,0.0,0.0,0.0,0.0,0.0,0.0,0.0,0.0,0.0,0.0,0.0,0.0,-4.7497,-4.7497,-4.7497,-4.7497,-4.7497,-4.7497,-4.7497,-4.7762,-4.8182,-4.7828,-4.7828,-4.8158,-4.7696,-4.7497,-4.7497,-4.7497,-4.7497,-4.7497,-4.7497,-4.7497,-4.7497,-4.7497,-4.7497,-4.7497,-4.7497,-4.7497,-4.7497,-4.7497,-4.7497,-4.7497,-4.7497,-4.7497,-4.7497,-4.7497,-4.7497,-4.7497,-4.7497,-4.7497,-4.7497,-4.7497,-4.7497,-4.7497,-4.7497,-4.7497,-4.7497,-4.7497,-4.7497,-4.7497,-4.7497,-4.7497,-4.7497,-4.7497,-4.7497,-4.7497,-4.7497,-4.704,-4.6439,-4.5742,-4.4813,-4.4285,-4.4285,-4.4285,-4.4285,-4.4285,-4.4285,-4.4285,-4.4285,-4.4285,-4.4285,-4.4285,-4.4285,-4.4285,-4.4285,-4.4285,-4.4285,-4.4285,-4.4285,-4.4285,-4.1992,-4.2527,0.0,0.0,0.0,0.0,0.0,0.0,0.0,0.0,0.0,0.0,0.0,0.0,0.0,0.0,0.0,0.0,0.0,0.0,0.0,0.0,0.0,0.0,0.0,0.0,0.0,0.0,0.0,0.0,0.0,0.0,0.0,0.0,-4.7497,-4.7473,-4.7473,-4.7473,-4.7497,-4.7497,-4.7497,-4.7894,-4.86,-4.8182,-4.8248,-4.851,-4.7852,-4.7497,-4.7497,-4.7497,-4.7497,-4.7497,-4.7497,-4.7497,-4.7497,-4.7497,-4.7497,-4.7497,-4.7497,-4.7497,-4.7497,-4.7497,-4.7497,-4.7497,-4.7497,-4.7497,-4.7497,-4.7497,-4.7497,-4.7497,-4.7497,-4.7497,-4.7497,-4.7497,-4.7497,-4.7497,-4.7497,-4.7497,-4.7497,-4.7497,-4.7497,-4.7497,-4.7497,-4.7497,-4.7497,-4.7497,-4.7497,-4.7497,-4.7497,-4.704,-4.6319,-4.5197,-4.4621,-4.4285,-4.4285,-4.4285,-4.4285,-4.4285,-4.4285,-4.4285,-4.4285,-4.4285,-4.4285,-4.4285,-4.4285,-4.4285,-4.4285,-4.4285,-4.4285,-4.4285,-4.4285,-4.4285,-3.9663,0.0,0.0,0.0,0.0,0.0,0.0,0.0,0.0,0.0,0.0,0.0,0.0,0.0,0.0,0.0,0.0,0.0,0.0,0.0,0.0,0.0,0.0,0.0,0.0,0.0,0.0,0.0,0.0,0.0,0.0,0.0,0.0,0.0,-4.6583,-4.6391,-4.6391,-4.6391,-4.6713,-4.7271,-4.7271,-4.7596,-4.8182,-4.7828,-4.7828,-4.8158,-4.7696,-4.7497,-4.7497,-4.7497,-4.7497,-4.7497,-4.7497,-4.7497,-4.7497,-4.7497,-4.7497,-4.7497,-4.7497,-4.7497,-4.7497,-4.7497,-4.7497,-4.7497,-4.7497,-4.7497,-4.7497,-4.7497,-4.7497,-4.7497,-4.7497,-4.7497,-4.7497,-4.7497,-4.7497,-4.7497,-4.7497,-4.7497,-4.7497,-4.7497,-4.7497,-4.7497,-4.7497,-4.7497,-4.7497,-4.7497,-4.7497,-4.7497,-4.7497,-4.704,-4.6439,-4.5766,-4.5149,-4.4693,-4.4309,-4.4285,-4.4285,-4.4285,-4.4285,-4.4285,-4.4285,-4.4285,-4.4285,-4.4285,-4.4285,-4.4285,-4.4285,-4.4285,-4.4285,-4.4285,-4.4285,-4.4285,-3.835,0.0,0.0,0.0,0.0,0.0,0.0,0.0,0.0,0.0,0.0,0.0,0.0,0.0,0.0,0.0,0.0,0.0,0.0,0.0,0.0,0.0,0.0,0.0,0.0,0.0,0.0,0.0,0.0,0.0,0.0,0.0,0.0,0.0,-4.6102,-4.5934,-4.5934,-4.5934,-4.6207,-4.6907,-4.6907,-4.7078,-4.7353,-4.7569,-4.7828,-4.796,-4.763,-4.7497,-4.7497,-4.7497,-4.7497,-4.7497,-4.7497,-4.7497,-4.7497,-4.7497,-4.7497,-4.7497,-4.7497,-4.7497,-4.7497,-4.7497,-4.7497,-4.7497,-4.7497,-4.7497,-4.7497,-4.7497,-4.7497,-4.7497,-4.7497,-4.7497,-4.7497,-4.7497,-4.7497,-4.7497,-4.7497,-4.7497,-4.7497,-4.7497,-4.7497,-4.7497,-4.7497,-4.7497,-4.7497,-4.7497,-4.7497,-4.7497,-4.7497,-4.704,-4.6511,-4.5982,-4.5453,-4.4861,-4.4333,-4.4285,-4.4285,-4.4285,-4.4285,-4.4285,-4.4285,-4.4285,-4.4285,-4.4285,-4.4285,-4.4285,-4.4285,-4.4285,-4.4285,-4.4285,-4.4285,-4.4285,0.0,0.0,0.0,0.0,0.0,0.0,0.0,0.0,0.0,0.0,0.0,0.0,0.0,0.0,0.0,0.0,0.0,0.0,0.0,0.0,0.0,0.0,0.0,0.0,0.0,0.0,0.0,0.0,0.0,0.0,0.0,0.0,0.0,-4.5862,-4.5814,-4.579,-4.579,-4.5766,-4.5981,-4.6348,-4.6348,-4.6372,-4.647,-4.7491,-4.7911,-4.796,-4.763,-4.7497,-4.7497,-4.7497,-4.7497,-4.7497,-4.7497,-4.7497,-4.7497,-4.7497,-4.7497,-4.7497,-4.7497,-4.7497,-4.7497,-4.7497,-4.7497,-4.7497,-4.7497,-4.7497,-4.7497,-4.7497,-4.7497,-4.7497,-4.7497,-4.7497,-4.7497,-4.7497,-4.7497,-4.7497,-4.7497,-4.7497,-4.7497,-4.7497,-4.7497,-4.7497,-4.7497,-4.7497,-4.7497,-4.7497,-4.7497,-4.7497,-4.7497,-4.7088,-4.6583,-4.6054,-4.5525,-4.4933,-4.4405,-4.4309,-4.4285,-4.4285,-4.4285,-4.4285,-4.4285,-4.4285,-4.4285,-4.4285,-4.4285,-4.4285,-4.4285,-4.4285,-4.4285,-4.4285,-4.4285,-4.4285,0.0,0.0,0.0,0.0,0.0,0.0,0.0,0.0,0.0,0.0,0.0,0.0,0.0,0.0,0.0,0.0,0.0,0.0,0.0,0.0,0.0,0.0,0.0,0.0,0.0,0.0,0.0,0.0,0.0,0.0,0.0,0.0,0.0,-4.5309,-4.4837,-4.4621,-4.4621,-4.4933,-4.5438,0.0,-4.614,-4.6385,-4.6826,-4.7166,-4.7441,-4.763,-4.7497,-4.7497,-4.7497,-4.7497,-4.7497,-4.7497,-4.7497,-4.7497,-4.7497,-4.7497,-4.7497,-4.7497,-4.7497,-4.7497,-4.7497,-4.7497,-4.7497,-4.7497,-4.7497,-4.7497,-4.7497,-4.7497,-4.7497,-4.7497,-4.7497,-4.7497,-4.7497,-4.7497,-4.7497,-4.7497,-4.7497,-4.7497,-4.7497,-4.7497,-4.7497,-4.7497,-4.7497,-4.7497,-4.7497,-4.7497,-4.7497,-4.7497,-4.7497,-4.7401,-4.7136,-4.6607,-4.6078,-4.5549,-4.4957,-4.4525,-4.4285,-4.4285,-4.4285,-4.4285,-4.4285,-4.4285,-4.4285,-4.4285,-4.4285,-4.4285,-4.4285,-4.4285,-4.4285,-4.4285,-4.4285,-4.4285,0.0,0.0,0.0,0.0,0.0,0.0,0.0,0.0,0.0,0.0,0.0,0.0,0.0,0.0,0.0,0.0,0.0,0.0,0.0,0.0,0.0,0.0,0.0,0.0,0.0,0.0,0.0,0.0,0.0,0.0,0.0,-4.5221,-4.4957,-4.4717,-4.4429,-4.4285,-4.4285,-4.447,-4.4962,-4.5724,-4.5724,-4.6019,-4.6522,-4.6552,-4.6737,-4.7112,-4.7112,-4.7257,-4.7497,-4.7497,-4.7497,-4.7497,-4.7497,-4.7497,-4.7497,-4.7497,-4.7497,-4.7497,-4.7497,-4.7497,-4.7497,-4.7497,-4.7497,-4.7497,-4.7497,-4.7497,-4.7497,-4.7497,-4.7497,-4.7497,-4.7497,-4.7497,-4.7497,-4.7497,-4.7497,-4.7497,-4.7497,-4.7497,-4.7497,-4.7497,-4.7497,-4.7497,-4.7497,-4.7497,-4.7497,-4.7497,-4.7497,-4.7497,-4.7497,-4.7497,-4.7305,-4.6776,-4.6247,-4.5718,-4.5125,-4.4597,-4.4285,-4.4285,-4.4285,-4.4285,-4.4285,-4.4285,-4.4285,-4.4285,-4.4285,-4.4285,-4.4285,-4.4285,-4.4285,-4.4285,-4.4285,-4.4285,0.0,0.0,0.0,0.0,0.0,0.0,0.0,0.0,0.0,0.0,0.0,0.0,0.0,0.0,0.0,0.0,0.0,0.0,0.0,0.0,0.0,0.0,0.0,0.0,0.0,0.0,0.0,0.0,0.0,0.0,-4.4302,-4.4468,-4.4404,-4.3974,-4.4161,-4.4285,-4.4285,-4.4347,-4.4656,-4.5208,-4.5208,-4.5454,-4.5895,-4.5706,-4.5982,-4.6583,-4.6583,-4.6872,-4.7377,-4.7377,-4.7425,-4.7497,-4.7497,-4.7497,-4.7497,-4.7497,-4.7497,-4.7497,-4.7497,-4.7497,-4.7497,-4.7497,-4.7497,-4.7497,-4.7497,-4.7497,-4.7497,-4.7497,-4.7497,-4.7497,-4.7497,-4.7497,-4.7497,-4.7497,-4.7497,-4.7497,-4.7497,-4.7497,-4.7497,-4.7497,-4.7497,-4.7497,-4.7497,-4.7497,-4.7497,-4.7497,-4.7497,-4.7497,-4.7497,-4.7497,-4.7329,-4.6896,-4.6367,-4.5838,-4.5245,-4.4717,-4.4381,-4.4285,-4.4285,-4.4285,-4.4285,-4.4285,-4.4285,-4.4285,-4.4285,-4.4285,-4.4285,-4.4285,-4.4285,-4.4285,-4.4285,-4.4285,0.0,0.0,0.0,0.0,0.0,0.0,0.0,0.0,0.0,0.0,0.0,0.0,0.0,0.0,0.0,0.0,0.0,0.0,0.0,0.0,0.0,0.0,0.0,0.0,0.0,0.0,0.0,0.0,0.0,0.0,-4.0908,-4.2002,-4.2616,-4.2546,-4.3701,-4.4285,-4.4285,-4.4594,-4.4779,-4.484,-4.484,-4.4865,-4.4938,-4.4639,-4.5029,-4.603,-4.603,-4.6319,-4.6824,-4.6824,-4.7088,-4.7497,-4.7497,-4.7497,-4.7497,-4.7497,-4.7497,-4.7497,-4.7497,-4.7497,-4.7497,-4.7497,-4.7497,-4.7497,-4.7497,-4.7497,-4.7497,-4.7497,-4.7497,-4.7497,-4.7497,-4.7497,-4.7497,-4.7497,-4.7497,-4.7497,-4.7497,-4.7497,-4.7497,-4.7497,-4.7497,-4.7497,-4.7497,-4.7497,-4.7497,-4.7497,-4.7497,-4.7497,-4.7497,-4.7497,-4.7473,-4.7401,-4.692,-4.6391,-4.5862,-4.5269,-4.4765,-4.4309,-4.4285,-4.4285,-4.4285,-4.4285,-4.4285,-4.4285,-4.4285,-4.4285,-4.4285,-4.4285,-4.4285,-4.4285,-4.4285,-4.4285,0.0,0.0,0.0,0.0,0.0,0.0,0.0,0.0,0.0,0.0,0.0,0.0,0.0,0.0,0.0,0.0,0.0,0.0,0.0,0.0,0.0,0.0,0.0,0.0,0.0,0.0,0.0,0.0,0.0,-4.0432,-4.0214,-4.0797,-4.1119,-4.1119,-4.1697,-4.2016,-4.2016,-4.231,-4.2627,-4.2816,-4.2816,-4.269,-4.25,-4.3177,-4.4167,-4.5414,-4.5414,-4.579,-4.6295,-4.6583,-4.6848,-4.7088,-4.7377,-4.7497,-4.7497,-4.7497,-4.7497,-4.7497,-4.7497,-4.7497,-4.7497,-4.7497,-4.7497,-4.7497,-4.7497,-4.7497,-4.7497,-4.7497,-4.7497,-4.7497,-4.7497,-4.7497,-4.7497,-4.7497,-4.7497,-4.7497,-4.7497,-4.7497,-4.7497,-4.7497,-4.7497,-4.7497,-4.7497,-4.7497,-4.7497,-4.7497,-4.7497,-4.7497,-4.7497,-4.7497,-4.7497,-4.7497,-4.6752,-4.6175,-4.5958,-4.5101,-4.4525,-4.4309,-4.4285,-4.4285,-4.4285,-4.4285,-4.4285,-4.4285,-4.4285,-4.4285,-4.4285,-4.4285,-4.4285,-4.4285,-4.4285,-4.4285,0.0,0.0,0.0,0.0,0.0,0.0,0.0,0.0,0.0,0.0,0.0,0.0,0.0,0.0,0.0,0.0,0.0,0.0,0.0,0.0,0.0,0.0,0.0,0.0,0.0,0.0,0.0,0.0,0.0,-3.9146,-3.9146,-3.9474,-3.9692,-3.9692,-3.9997,-4.0192,-4.0192,-4.0452,-4.0753,-4.1181,-4.0988,-4.0882,-4.0753,-4.2056,-4.3325,-4.442,-4.4736,-4.5173,-4.5742,-4.615,-4.6391,-4.6559,-4.7088,-4.7305,-4.7329,-4.7449,-4.7497,-4.7497,-4.7497,-4.7497,-4.7497,-4.7497,-4.7497,-4.7497,-4.7497,-4.7497,-4.7497,-4.7497,-4.7497,-4.7497,-4.7497,-4.7497,-4.7497,-4.7497,-4.7497,-4.7497,-4.7497,-4.7497,-4.7497,-4.7497,-4.7497,-4.7497,-4.7497,-4.7497,-4.7497,-4.7497,-4.7497,-4.7497,-4.7497,-4.7497,-4.7497,-4.7497,-4.668,-4.6078,-4.5934,-4.5005,-4.4429,-4.4285,-4.4285,-4.4285,-4.4285,-4.4285,-4.4285,-4.4285,-4.4285,-4.4285,-4.4285,-4.4285,-4.4285,-4.4285,-4.4285,-4.4285,0.0,0.0,0.0,0.0,0.0,0.0,0.0,0.0,0.0,0.0,0.0,0.0,0.0,0.0,0.0,0.0,0.0,0.0,0.0,0.0,0.0,0.0,0.0,0.0,0.0,0.0,0.0,0.0,0.0,-3.6219,-3.6219,-3.7461,-3.8175,-3.8175,-3.9474,-4.0192,-4.0192,-4.0192,-4.0559,-4.1181,-4.0581,-4.0387,-4.0753,-4.1824,-4.2379,-4.2529,-4.3811,-4.4621,-4.5101,-4.5149,-4.5438,-4.6006,-4.6535,-4.6752,-4.6824,-4.7329,-4.7497,-4.7497,-4.7497,-4.7497,-4.7497,-4.7497,-4.7497,-4.7497,-4.7497,-4.7497,-4.7497,-4.7497,-4.7497,-4.7497,-4.7497,-4.7497,-4.7497,-4.7497,-4.7497,-4.7497,-4.7497,-4.7497,-4.7497,-4.7497,-4.7497,-4.7497,-4.7497,-4.7497,-4.7497,-4.7497,-4.7497,-4.7497,-4.7497,-4.7497,-4.7497,-4.7497,-4.7016,-4.6463,-4.5958,-4.5342,-4.4813,-4.4309,-4.4285,-4.4285,-4.4285,-4.4285,-4.4285,-4.4285,-4.4285,-4.4285,-4.4285,-4.4285,-4.4285,-4.4285,-4.4285,-4.4285,0.0,0.0,0.0,0.0,0.0,0.0,0.0,0.0,0.0,0.0,0.0,0.0,0.0,0.0,0.0,0.0,0.0,0.0,0.0,0.0,0.0,0.0,0.0,0.0,0.0,0.0,0.0,0.0,0.0,0.0,-3.6016,-3.6471,-3.6742,-3.6742,-3.726,-3.7575,-3.7822,-3.7575,-3.7775,-3.8221,-3.7955,-3.7775,-3.7709,-3.9277,-3.9801,-3.967,-4.1033,-4.2766,-4.4597,-4.4933,-4.5173,-4.5477,-4.6006,-4.6415,-4.6686,-4.6897,-4.7178,-4.7497,-4.7497,-4.7497,-4.7497,-4.7497,-4.7497,-4.7497,-4.7497,-4.7497,-4.7497,-4.7497,-4.7497,-4.7497,-4.7497,-4.7497,-4.7497,-4.7497,-4.7497,-4.7497,-4.7497,-4.7497,-4.7497,-4.7497,-4.7497,-4.7497,-4.7497,-4.7497,-4.7497,-4.7497,-4.7497,-4.7497,-4.7497,-4.7497,-4.7377,-4.7016,-4.6535,-4.6006,-4.539,-4.4861,-4.4477,-4.4309,-4.4285,-4.4285,-4.4285,-4.4285,-4.4285,-4.4285,-4.4285,-4.4285,-4.4285,-4.4285,-4.4285,-4.4285,-4.4285,-4.4285,0.0,0.0,0.0,0.0,0.0,0.0,0.0,0.0,0.0,0.0,0.0,0.0,0.0,0.0,0.0,0.0,0.0,0.0,0.0,0.0,0.0,0.0,0.0,0.0,0.0,0.0,0.0,0.0,0.0,0.0,-3.6016,-3.6016,-3.6016,-3.6016,-3.6016,-3.6132,-3.6519,-3.6152,-3.6219,-3.6539,-3.6403,-3.62,-3.6084,-3.7709,-3.8287,-3.8175,-3.9605,-4.1505,-4.3663,-4.4018,-4.4412,-4.4861,-4.5453,-4.5886,-4.6206,-4.655,-4.6921,-4.7299,-4.7425,-4.7497,-4.7497,-4.7497,-4.7497,-4.7497,-4.7497,-4.7497,-4.7497,-4.7497,-4.7497,-4.7497,-4.7497,-4.7497,-4.7497,-4.7497,-4.7497,-4.7497,-4.7497,-4.7497,-4.7497,-4.7497,-4.7497,-4.7497,-4.7497,-4.7497,-4.7497,-4.7497,-4.7497,-4.7425,-4.7257,-4.7233,-4.704,-4.6511,-4.5982,-4.5525,-4.5101,-4.4597,-4.4285,-4.4285,-4.4285,-4.4285,-4.4285,-4.4285,-4.4285,-4.4285,-4.4285,-4.4285,-4.4285,-4.4285,-4.4285,-4.4285,-4.4285,-4.4285,0.0,0.0,0.0,0.0,0.0,0.0,0.0,0.0,0.0,0.0,0.0,0.0,0.0,0.0,0.0,0.0,0.0,0.0,0.0,0.0,0.0,0.0,0.0,0.0,0.0,0.0,0.0,0.0,0.0,-3.6016,-3.6016,-3.6016,-3.6016,-3.6016,-3.6016,-3.6152,-3.6451,-3.6132,-3.6132,-3.6451,-3.6152,-3.6016,-3.6016,-3.7394,-3.8042,-3.8109,-3.9474,-4.0862,-4.2166,-4.2293,-4.3051,-4.4271,-4.4861,-4.5053,-4.5245,-4.6264,-4.6723,-4.681,-4.7281,-4.7497,-4.7497,-4.7497,-4.7497,-4.7497,-4.7497,-4.7497,-4.7497,-4.7497,-4.7497,-4.7497,-4.7497,-4.7497,-4.7497,-4.7497,-4.7497,-4.7497,-4.7497,-4.7497,-4.7497,-4.7497,-4.7497,-4.7497,-4.7497,-4.7497,-4.7497,-4.7473,-4.7473,-4.7281,-4.6752,-4.668,-4.6487,-4.5958,-4.539,-4.5053,-4.5053,-4.4573,-4.4285,-4.4285,-4.4285,-4.4285,-4.4285,-4.4285,-4.4285,-4.4285,-4.4285,-4.4285,-4.4285,-4.4285,-4.4285,-4.4285,-4.4285,-4.4285,-3.3984,0.0,0.0,0.0,0.0,0.0,0.0,0.0,0.0,0.0,0.0,0.0,0.0,0.0,0.0,0.0,0.0,0.0,0.0,0.0,0.0,0.0,0.0,0.0,0.0,0.0,0.0,0.0,-3.6016,-3.6016,-3.6016,-3.6016,-3.6016,-3.6016,-3.6016,-3.6016,-3.6152,-3.6084,-3.6084,-3.6152,-3.6016,-3.6016,-3.6016,-3.6403,-3.6606,-3.6606,-3.7011,-3.7975,-3.9408,-4.1441,-4.2546,-4.2949,-4.4055,-4.4741,-4.5213,-4.5878,-4.6398,-4.6801,-4.7335,-4.7497,-4.7497,-4.7497,-4.7497,-4.7497,-4.7497,-4.7497,-4.7497,-4.7497,-4.7497,-4.7497,-4.7497,-4.7497,-4.7497,-4.7497,-4.7497,-4.7497,-4.7497,-4.7497,-4.7497,-4.7497,-4.7497,-4.7497,-4.7497,-4.7497,-4.7377,-4.6992,-4.6944,-4.6728,-4.6199,-4.615,-4.5934,-4.5342,-4.5149,-4.4909,-4.4525,-4.4381,-4.4285,-4.4285,-4.4285,-4.4285,-4.4285,-4.4285,-4.4285,-4.4285,-4.4285,-4.4285,-4.4285,-4.4285,-4.4285,-4.4285,-4.4285,-4.4285,-3.373,0.0,0.0,0.0,0.0,0.0,0.0,-3.4902,0.0,0.0,0.0,0.0,0.0,0.0,0.0,0.0,0.0,0.0,0.0,0.0,0.0,0.0,0.0,0.0,0.0,0.0,0.0,-3.6016,-3.6016,-3.6016,-3.6016,-3.6016,-3.6016,-3.6016,-3.6016,-3.6016,-3.6016,-3.6016,-3.6016,-3.6016,-3.6016,-3.6016,-3.6016,-3.6016,-3.6016,-3.6016,-3.6016,-3.6471,-3.7394,-3.9605,-4.0926,-4.1505,-4.227,-4.2772,-4.3113,-4.3676,-4.4167,-4.4631,-4.5221,-4.5501,-4.5617,-4.5617,-4.6046,-4.6607,-4.6607,-4.7008,-4.7497,-4.7497,-4.7497,-4.7497,-4.7497,-4.7497,-4.7497,-4.7497,-4.7497,-4.7497,-4.7497,-4.7329,-4.7233,-4.7473,-4.7329,-4.7161,-4.7161,-4.6992,-4.6728,-4.6439,-4.6391,-4.6199,-4.5669,-4.5597,-4.5342,-4.4789,-4.4741,-4.4621,-4.4309,-4.4285,-4.4285,-4.4285,-4.4285,-4.4285,-4.4285,-4.4285,-4.4285,-4.4285,-4.4285,-4.4285,-4.4285,-4.4285,-4.4285,-4.4285,-4.4285,-4.4285,-3.3418,-3.3418,-3.3516,0.0,0.0,0.0,-3.4473,-3.459,-3.4629,0.0,0.0,0.0,0.0,0.0,0.0,0.0,0.0,0.0,0.0,0.0,0.0,0.0,0.0,0.0,0.0,-3.6016,-3.6016,-3.6016,-3.6016,-3.6016,-3.6016,-3.6016,-3.6016,-3.6016,-3.6016,-3.6016,-3.6016,-3.6016,-3.6016,-3.6016,-3.6016,-3.6016,-3.6016,-3.6016,-3.6016,-3.6016,-3.6016,-3.6016,-3.6084,-3.7327,-3.8705,-3.9997,-4.0127,-4.0192,-4.0257,-4.0837,-4.1226,-4.1627,-4.2388,-4.286,-4.3214,-4.3467,-4.4412,-4.5549,-4.5549,-4.6449,-4.7497,-4.7497,-4.7497,-4.7497,-4.7497,-4.7449,-4.7425,-4.7425,-4.7377,-4.7329,-4.7329,-4.6968,-4.6776,-4.7233,-4.6944,-4.6631,-4.6631,-4.6247,-4.591,-4.5838,-4.5838,-4.5645,-4.5053,-4.4981,-4.4813,-4.4333,-4.4285,-4.4285,-4.4285,-4.4285,-4.4285,-4.4285,-4.4285,-4.4285,-4.4285,-4.4285,-4.4285,-4.4285,-4.4285,-4.4285,-4.4285,-4.4285,-4.4285,-4.4285,-4.4285,-4.4285,0.0,0.0,0.0,0.0,0.0,0.0,-3.3652,-3.3945,-3.4199,0.0,0.0,0.0,0.0,0.0,0.0,0.0,0.0,0.0,0.0,0.0,0.0,0.0,0.0,0.0,0.0,-3.6016,-3.6016,-3.6016,-3.6016,-3.6016,-3.6016,-3.6016,-3.6016,-3.6016,-3.6016,-3.6016,-3.6016,-3.6016,-3.6016,-3.6016,-3.6016,-3.6016,-3.6016,-3.6016,-3.6016,-3.6016,-3.6016,-3.6016,-3.6016,-3.6287,-3.726,-3.8639,-3.9757,-4.0192,-4.0236,-4.0804,-4.1065,-4.1391,-4.3442,-4.4233,-4.4517,-4.6104,-4.6829,-4.7074,-4.7074,-4.7298,-4.7497,-4.7497,-4.7497,-4.7497,-4.7497,-4.7185,-4.6872,-4.6872,-4.6535,-4.6223,-4.6223,-4.615,-4.6102,-4.6199,-4.615,-4.6078,-4.6078,-4.6006,-4.579,-4.5293,-4.5221,-4.5029,-4.4501,-4.4453,-4.4405,-4.4285,-4.4285,-4.4285,-4.4285,-4.4285,-4.4285,-4.4285,-4.4285,-4.4285,-4.4285,-4.4285,-4.4285,-4.4285,-4.4285,-4.4285,-4.4285,-4.4285,-4.4285,-4.4285,-4.4285,-4.4285,0.0,0.0,0.0,-3.3418,0.0,0.0,0.0,-3.3594,-3.375,0.0,0.0,0.0,0.0,0.0,0.0,0.0,0.0,0.0,0.0,0.0,0.0,0.0,0.0,0.0,0.0,-3.6016,-3.6016,-3.6016,-3.6016,-3.6016,-3.6016,-3.6016,-3.6016,-3.6016,-3.6016,-3.6016,-3.6016,-3.6016,-3.6016,-3.6016,-3.6016,-3.6016,-3.6016,-3.6016,-3.6016,-3.6016,-3.6016,-3.6016,-3.6016,-3.6016,-3.6403,-3.7126,-3.7842,-3.8109,-3.815,-3.8424,-3.8666,-3.9042,-4.0223,-4.0817,-4.1107,-4.212,-4.2899,-4.3624,-4.4319,-4.554,-4.6704,-4.6704,-4.6704,-4.6704,-4.6704,-4.6511,-4.6319,-4.6319,-4.6126,-4.5934,-4.5934,-4.5718,-4.5525,-4.5525,-4.5309,-4.5149,-4.5414,-4.5309,-4.4981,-4.4717,-4.4669,-4.4573,-4.4309,-4.4285,-4.4285,-4.4285,-4.4285,-4.4285,-4.4285,-4.4285,-4.4285,-4.4285,-4.4285,-4.4285,-4.4285,-4.4285,-4.4285,-4.4285,-4.4285,-4.4285,-4.4285,-4.4285,-4.4285,-4.4285,-4.4285,-4.4285,0.0,0.0,0.0,0.0,0.0,-3.3418,0.0,0.0,0.0,0.0,0.0,0.0,0.0,0.0,0.0,0.0,0.0,0.0,0.0,0.0,0.0,0.0,0.0,0.0,0.0,-3.584,-3.5937,-3.6016,-3.6016,-3.6016,-3.6016,-3.6016,-3.6016,-3.6016,-3.6016,-3.6016,-3.6016,-3.6016,-3.6016,-3.6016,-3.6016,-3.6016,-3.6016,-3.6016,-3.6016,-3.6016,-3.6016,-3.6016,-3.6016,-3.6016,-3.6016,-3.6016,-3.6016,-3.6016,-3.6016,-3.6016,-3.621,-3.664,-3.7026,-3.7362,-3.7698,-3.8384,-3.9574,-4.0936,-4.2082,-4.4048,-4.5934,-4.5934,-4.5934,-4.5934,-4.5934,-4.5838,-4.5766,-4.5766,-4.5694,-4.5621,-4.5621,-4.5221,-4.4933,-4.4933,-4.4573,-4.4429,-4.4837,-4.4573,-4.4285,-4.4285,-4.4285,-4.4285,-4.4285,-4.4285,-4.4285,-4.4285,-4.4285,-4.4285,-4.4285,-4.4285,-4.4285,-4.4285,-4.4285,-4.4285,-4.4285,-4.4285,-4.4285,-4.4285,-4.4285,-4.4285,-4.4285,-4.4285,-4.4285,-4.4285,-4.4285,-4.4285,0.0,0.0,0.0,0.0,-3.3418,0.0,0.0,0.0,-3.3418,-3.3418,0.0,0.0,0.0,0.0,0.0,0.0,0.0,0.0,0.0,0.0,0.0,0.0,0.0,0.0,0.0,0.0,-3.5625,-3.5996,-3.6016,-3.6016,-3.6016,-3.6016,-3.6016,-3.6016,-3.6016,-3.6016,-3.6016,-3.6016,-3.6016,-3.6016,-3.6016,-3.6016,-3.6016,-3.6016,-3.6016,-3.6016,-3.6016,-3.6016,-3.6016,-3.6016,-3.6016,-3.6016,-3.6016,-3.6016,-3.6016,-3.6016,-3.6035,-3.6318,-3.8044,-3.8705,-3.9203,-4.2126,-4.4059,-4.5178,-4.5372,-4.5653,-4.5934,-4.5934,-4.5934,-4.5934,-4.5934,-4.5573,-4.5149,-4.5149,-4.4813,-4.4477,-4.4477,-4.4429,-4.4381,-4.4381,-4.4333,-4.4309,-4.4357,-4.4333,-4.4285,-4.4285,-4.4285,-4.4285,-4.4285,-4.4285,-4.4285,-4.4285,-4.4285,-4.4285,-4.4285,-4.4285,-4.4285,-4.4285,-4.4285,-4.4285,-4.4285,-4.4285,-4.4285,-4.4285,-4.4285,-4.4285,-4.4285,-4.4285,-4.4285,-4.4285,-4.4285,-4.4285,0.0,0.0,0.0,0.0,0.0,0.0,-3.3418,0.0,-3.3418,0.0,0.0,0.0,0.0,0.0,0.0,0.0,0.0,0.0,0.0,0.0,0.0,0.0,0.0,0.0,0.0,0.0,0.0,0.0,0.0,-3.5762,-3.6016,-3.6016,-3.6016,-3.6016,-3.6016,-3.6016,-3.6016,-3.6016,-3.6016,-3.6016,-3.6016,-3.6016,-3.6016,-3.6016,-3.6016,-3.6016,-3.6016,-3.6016,-3.6016,-3.6016,-3.6016,-3.6016,-3.6016,-3.6016,-3.6016,-3.6016,-3.6016,-3.6123,-3.6933,-3.7217,-3.7421,-3.8812,-4.0254,-4.1504,-4.2308,-4.317,-4.3961,-4.4744,-4.4957,-4.4957,-4.4957,-4.4789,-4.4621,-4.4621,-4.4453,-4.4285,-4.4285,-4.4285,-4.4285,-4.4285,-4.4285,-4.4285,-4.4285,-4.4285,-4.4285,-4.4285,-4.4285,-4.4285,-4.4285,-4.4285,-4.4285,-4.4285,-4.4285,-4.4285,-4.4285,-4.4285,-4.4285,-4.4285,-4.4285,-4.4285,-4.4285,-4.4285,-4.4285,-4.4285,-4.4285,-4.4285,-4.4285,-4.4285,-4.4285,-4.4285,-4.4285,-4.4285,-3.3418,0.0,0.0,0.0,0.0,0.0,0.0,0.0,0.0,0.0,0.0,0.0,0.0,0.0,0.0,0.0,0.0,0.0,0.0,0.0,0.0,0.0,0.0,0.0,0.0,0.0,0.0,-3.5176,-3.5195,-3.5332,-3.5644,-3.5781,-3.5859,-3.5859,-3.5957,-3.6016,-3.6016,-3.6016,-3.6016,-3.6016,-3.6016,-3.6016,-3.6016,-3.6016,-3.6016,-3.6016,-3.6016,-3.6016,-3.6016,-3.6016,-3.6016,-3.6016,-3.6016,-3.6016,-3.6016,-3.6016,-3.6016,-3.6016,-3.6016,-3.621,-3.6561,-3.6578,-3.7528,-3.8882,-3.991,-4.0924,-4.1929,-4.2872,-4.3169,-4.3177,-4.3177,-4.3451,-4.3764,-4.3764,-4.4037,-4.4285,-4.4285,-4.4285,-4.4285,-4.4285,-4.4285,-4.4285,-4.4285,-4.4285,-4.4285,-4.4285,-4.4285,-4.4285,-4.4285,-4.4285,-4.4285,-4.4285,-4.4285,-4.4285,-4.4285,-4.4285,-4.4285,-4.4285,-4.4285,-4.4285,-4.4285,-4.4285,-4.4285,-4.4285,-4.4285,-4.4285,-4.4285,-4.4285,-4.4285,-4.4285,-4.4285,-4.4285,0.0,0.0,0.0,-3.3418,0.0,0.0,0.0,0.0,-3.3418,0.0,0.0,0.0,0.0,0.0,-3.3281,-3.2871,0.0,0.0,0.0,0.0,0.0,0.0,0.0,0.0,0.0,0.0,0.0,-3.4687,-3.4726,-3.4726,-3.4746,-3.5176,-3.541,-3.541,-3.5801,-3.6016,-3.6016,-3.6016,-3.6016,-3.6016,-3.6016,-3.6016,-3.6016,-3.6016,-3.6016,-3.6016,-3.6016,-3.6016,-3.6016,-3.6016,-3.6016,-3.6016,-3.6016,-3.6016,-3.6016,-3.6016,-3.6016,-3.6016,-3.6016,-3.6865,-3.8038,-3.8053,-3.897,-4.0148,-4.0164,-4.021,-4.0278,-4.0356,-4.036,-4.0322,-4.0322,-4.1312,-4.2356,-4.2356,-4.3389,-4.4285,-4.4285,-4.4285,-4.4285,-4.4285,-4.4285,-4.4285,-4.4285,-4.4285,-4.4285,-4.4285,-4.4285,-4.4285,-4.4285,-4.4285,-4.4285,-4.4285,-4.4285,-4.4285,-4.4285,-4.4285,-4.4285,-4.4285,-4.4285,-4.4285,-4.4285,-4.4285,-4.4285,-4.4285,-4.4285,-4.4285,-4.4285,-4.4285,-4.4285,-4.4285,-4.4285,-4.4285,0.0,0.0,-3.3418,-3.3418,0.0,0.0,0.0,0.0,0.0,0.0,0.0,0.0,0.0,0.0,-3.3379,-3.3242,-3.3105,-3.2949,0.0,0.0,0.0,0.0,0.0,0.0,0.0,0.0,0.0,-3.4258,-3.4277,-3.4414,-3.4687,-3.4844,-3.4941,-3.4941,-3.5078,-3.5293,-3.5605,-3.5605,-3.5742,-3.6016,-3.6016,-3.6016,-3.6016,-3.6016,-3.6016,-3.6016,-3.6016,-3.6016,-3.6016,-3.6016,-3.6016,-3.6016,-3.6016,-3.6016,-3.6016,-3.6016,-3.6016,-3.6016,-3.6016,-3.6298,-3.6717,-3.6714,-3.6991,-3.7575,-3.8513,-3.8819,-3.919,-4.105,-4.1606,-4.1761,-4.2673,-4.324,-4.3639,-4.3639,-4.3974,-4.4285,-4.4285,-4.4285,-4.4285,-4.4285,-4.4285,-4.4285,-4.4285,-4.4285,-4.4285,-4.4285,-4.4285,-4.4285,-4.4285,-4.4285,-4.4285,-4.4285,-4.4285,-4.4285,-4.4285,-4.4285,-4.4285,-4.4285,-4.4285,-4.4285,-4.4285,-4.4285,-4.4285,-4.4285,-4.4285,-4.4285,-4.4285,-4.4285,-4.4285,-4.4285,-4.4285,-4.4285,-3.3691,-3.3652,0.0,-3.3457,-3.3418,0.0,-3.3418,0.0,-3.3418,0.0,0.0,0.0,0.0,0.0,-3.3418,-3.3418,-3.3184,-3.2969,0.0,-3.2441,0.0,0.0,0.0,0.0,0.0,0.0,-3.332,-3.3594,-3.375,-3.3965,0.0,0.0,-3.4473,-3.4473,-3.4629,-3.4844,-3.5137,-3.5137,-3.5273,-3.5547,-3.5547,-3.5644,-3.5801,-3.5801,-3.5879,-3.6016,-3.6016,-3.6016,-3.6016,-3.6016,-3.6016,-3.6016,-3.6016,-3.6016,-3.6016,-3.6016,-3.6016,-3.6016,-3.6016,-3.6016,-3.6016,-3.6016,-3.6016,-3.6152,-3.7059,-3.7327,-3.777,-3.9753,-4.0171,-4.0301,-4.1321,-4.181,-4.2079,-4.2079,-4.246,-4.2862,-4.2862,-4.2862,-4.2862,-4.2862,-4.3263,-4.3576,-4.3576,-4.395,-4.4285,-4.4285,-4.4285,-4.4285,-4.4285,-4.4285,-4.4285,-4.4285,-4.4285,-4.4285,-4.4285,-4.4285,-4.4285,-4.4285,-4.4285,-4.4285,-4.4285,-4.4285,-4.4285,-4.4285,-4.4285,-4.4285,-4.4285,-4.4285,-4.4285,-4.4285,-4.4285,-4.4285]},{"header":{"parameterUnit":"m.s-1","parameterCategory":1,"la1":30.6,"la2":29.2853,"lo1":-89.7004,"lo2":-87.6739,"dy":0.0162,"dx":0.0183,"nx":112,"ny":82,"refTime":"2023-06-23T06:00:00:Z","depth":0,"parameterNumber":3,"parameterNumberName":"V-component_of_WINDS"},"data":[0.0,0.0,0.0,0.0,0.0,0.0,0.0,0.0,0.0,0.0,0.0,0.0,0.0,0.0,0.0,0.0,0.0,0.0,0.0,0.0,0.0,0.0,0.0,0.0,0.0,0.0,0.0,0.0,0.0,0.0,0.0,0.0,0.0,0.0,0.0,0.0,0.0,0.0,0.0,0.0,0.0,0.0,0.0,0.0,0.0,0.0,0.0,0.0,0.0,0.0,0.0,0.0,0.0,0.0,0.0,0.0,0.0,0.0,0.0,0.0,0.0,0.0,0.0,0.0,0.0,0.0,0.0,0.0,0.0,0.0,0.0,0.0,0.0,0.0,0.0,0.0,0.0,0.0,0.0,0.0,0.0,0.0,0.0,0.0,0.0,0.0,0.0,0.0,0.0,0.0,-3.807,-3.7998,-3.7974,-3.7974,-3.7974,-3.8133,-3.853,-3.9312,0.0,0.0,0.0,0.0,0.0,0.0,0.0,0.0,0.0,0.0,0.0,0.0,0.0,0.0,0.0,0.0,0.0,0.0,0.0,0.0,0.0,0.0,0.0,0.0,0.0,0.0,0.0,0.0,0.0,0.0,0.0,0.0,0.0,0.0,0.0,0.0,0.0,0.0,0.0,0.0,0.0,0.0,0.0,0.0,0.0,0.0,0.0,0.0,0.0,0.0,0.0,0.0,0.0,0.0,0.0,0.0,0.0,0.0,0.0,0.0,0.0,0.0,0.0,0.0,0.0,0.0,0.0,0.0,0.0,0.0,0.0,0.0,0.0,0.0,0.0,0.0,0.0,0.0,0.0,0.0,0.0,0.0,0.0,0.0,0.0,0.0,0.0,0.0,0.0,0.0,0.0,0.0,0.0,0.0,0.0,0.0,0.0,0.0,0.0,0.0,0.0,0.0,0.0,0.0,-3.8503,-3.8046,-3.7974,-3.7974,-3.7974,-3.8844,-3.9052,-3.8291,0.0,0.0,0.0,0.0,0.0,0.0,0.0,0.0,0.0,0.0,0.0,0.0,0.0,0.0,0.0,0.0,0.0,0.0,0.0,0.0,0.0,0.0,0.0,0.0,0.0,0.0,0.0,0.0,0.0,0.0,0.0,0.0,0.0,0.0,0.0,0.0,0.0,0.0,0.0,0.0,0.0,0.0,0.0,0.0,0.0,0.0,0.0,0.0,0.0,0.0,0.0,0.0,0.0,0.0,0.0,0.0,0.0,0.0,0.0,0.0,0.0,0.0,0.0,0.0,0.0,0.0,0.0,0.0,0.0,0.0,0.0,0.0,0.0,0.0,0.0,0.0,0.0,0.0,0.0,0.0,0.0,0.0,0.0,0.0,0.0,0.0,0.0,0.0,0.0,0.0,0.0,0.0,0.0,0.0,0.0,0.0,0.0,0.0,0.0,0.0,0.0,0.0,0.0,-3.9224,-3.9032,-3.8503,-3.8695,-3.8864,-3.8864,-3.989,-4.0553,-4.0658,-4.1847,0.0,0.0,0.0,0.0,0.0,0.0,0.0,0.0,0.0,0.0,0.0,0.0,0.0,0.0,0.0,0.0,0.0,0.0,0.0,0.0,0.0,0.0,0.0,0.0,0.0,0.0,0.0,0.0,0.0,0.0,0.0,0.0,0.0,0.0,0.0,0.0,0.0,0.0,0.0,0.0,0.0,0.0,0.0,0.0,0.0,0.0,0.0,0.0,0.0,0.0,0.0,0.0,0.0,0.0,0.0,0.0,0.0,0.0,0.0,0.0,0.0,0.0,0.0,0.0,0.0,0.0,0.0,0.0,0.0,0.0,0.0,0.0,0.0,0.0,0.0,0.0,0.0,0.0,0.0,0.0,0.0,0.0,0.0,0.0,0.0,0.0,0.0,0.0,0.0,0.0,0.0,0.0,0.0,0.0,0.0,0.0,0.0,0.0,0.0,0.0,0.0,0.0,-3.9537,-3.9585,-3.9056,-3.9369,-3.9609,-3.9609,-4.0631,-4.1603,-4.2448,-4.3368,0.0,0.0,0.0,0.0,0.0,0.0,0.0,0.0,0.0,0.0,0.0,0.0,0.0,0.0,0.0,0.0,0.0,0.0,0.0,0.0,0.0,0.0,0.0,0.0,0.0,0.0,0.0,0.0,0.0,0.0,0.0,0.0,0.0,0.0,0.0,0.0,0.0,0.0,0.0,0.0,0.0,0.0,0.0,0.0,0.0,0.0,0.0,0.0,0.0,0.0,0.0,0.0,0.0,0.0,0.0,0.0,0.0,0.0,0.0,0.0,0.0,0.0,0.0,0.0,0.0,0.0,0.0,0.0,0.0,0.0,0.0,0.0,0.0,0.0,0.0,0.0,0.0,0.0,0.0,0.0,0.0,0.0,0.0,0.0,0.0,0.0,0.0,0.0,0.0,0.0,0.0,0.0,0.0,0.0,0.0,0.0,0.0,0.0,0.0,0.0,0.0,0.0,-4.0306,-4.0138,-3.9609,-3.9585,-3.9609,-3.9609,-4.0577,-4.1254,-4.1389,-4.3331,0.0,0.0,0.0,0.0,0.0,0.0,0.0,0.0,0.0,0.0,0.0,0.0,0.0,0.0,0.0,0.0,0.0,0.0,0.0,0.0,0.0,0.0,0.0,0.0,0.0,0.0,0.0,0.0,0.0,0.0,0.0,0.0,0.0,0.0,0.0,0.0,0.0,0.0,0.0,0.0,0.0,0.0,0.0,0.0,0.0,0.0,0.0,0.0,0.0,0.0,0.0,0.0,0.0,0.0,0.0,0.0,0.0,0.0,0.0,0.0,0.0,0.0,0.0,0.0,0.0,0.0,0.0,0.0,0.0,0.0,0.0,0.0,0.0,0.0,0.0,0.0,0.0,0.0,0.0,0.0,0.0,0.0,0.0,0.0,0.0,0.0,0.0,0.0,0.0,0.0,0.0,0.0,0.0,0.0,0.0,0.0,0.0,0.0,0.0,0.0,0.0,0.0,-4.0691,-4.0691,0.0,-4.0403,-4.091,-4.1589,-4.2641,-4.3669,-4.4415,0.0,0.0,0.0,0.0,0.0,0.0,0.0,0.0,0.0,0.0,0.0,0.0,0.0,0.0,0.0,0.0,0.0,0.0,0.0,0.0,0.0,0.0,0.0,0.0,0.0,0.0,0.0,0.0,0.0,0.0,0.0,0.0,0.0,0.0,0.0,0.0,0.0,0.0,0.0,0.0,0.0,0.0,0.0,0.0,0.0,0.0,0.0,0.0,0.0,0.0,0.0,0.0,0.0,0.0,0.0,0.0,0.0,0.0,0.0,0.0,0.0,0.0,0.0,0.0,0.0,0.0,0.0,0.0,0.0,0.0,0.0,0.0,0.0,0.0,0.0,0.0,0.0,0.0,0.0,0.0,0.0,0.0,0.0,0.0,0.0,0.0,0.0,0.0,0.0,0.0,0.0,0.0,0.0,0.0,0.0,0.0,0.0,0.0,0.0,0.0,0.0,0.0,-4.0691,-4.0956,-4.1052,0.0,-4.1298,-4.2037,-4.283,-4.391,-4.5128,-4.6321,0.0,0.0,0.0,0.0,0.0,0.0,0.0,0.0,0.0,0.0,0.0,0.0,0.0,0.0,0.0,0.0,0.0,0.0,0.0,0.0,0.0,0.0,0.0,0.0,0.0,0.0,0.0,0.0,0.0,0.0,0.0,0.0,0.0,0.0,0.0,0.0,0.0,0.0,0.0,0.0,0.0,0.0,0.0,0.0,0.0,0.0,0.0,0.0,0.0,0.0,0.0,0.0,0.0,0.0,0.0,0.0,0.0,0.0,0.0,0.0,0.0,0.0,0.0,0.0,0.0,0.0,0.0,0.0,0.0,0.0,0.0,0.0,0.0,0.0,0.0,0.0,0.0,0.0,0.0,0.0,0.0,0.0,0.0,0.0,0.0,0.0,0.0,0.0,0.0,0.0,0.0,0.0,0.0,0.0,0.0,0.0,0.0,0.0,0.0,0.0,0.0,0.0,-4.1172,-4.1172,-4.1172,-4.123,-4.2263,-4.2886,-4.2942,-4.3965,-4.5128,0.0,0.0,0.0,0.0,0.0,0.0,0.0,0.0,0.0,0.0,0.0,0.0,0.0,0.0,0.0,0.0,0.0,0.0,0.0,0.0,0.0,0.0,0.0,0.0,0.0,0.0,0.0,0.0,0.0,0.0,0.0,0.0,0.0,0.0,0.0,0.0,0.0,0.0,0.0,0.0,0.0,0.0,0.0,0.0,0.0,0.0,0.0,0.0,0.0,0.0,0.0,0.0,0.0,0.0,0.0,0.0,0.0,0.0,0.0,0.0,0.0,0.0,0.0,0.0,0.0,0.0,0.0,0.0,0.0,0.0,0.0,0.0,0.0,0.0,0.0,0.0,0.0,0.0,0.0,0.0,0.0,0.0,0.0,0.0,0.0,0.0,0.0,0.0,0.0,0.0,0.0,0.0,0.0,0.0,0.0,0.0,0.0,0.0,0.0,0.0,0.0,0.0,0.0,-4.1287,-4.1172,-4.1516,-4.2294,-4.2662,-4.3551,-4.5235,-4.5661,-4.6374,-4.7517,0.0,0.0,0.0,0.0,0.0,0.0,0.0,0.0,0.0,0.0,0.0,0.0,0.0,0.0,0.0,0.0,0.0,0.0,0.0,0.0,0.0,0.0,0.0,0.0,0.0,0.0,0.0,0.0,0.0,0.0,0.0,0.0,0.0,0.0,0.0,0.0,0.0,0.0,0.0,0.0,0.0,0.0,0.0,0.0,0.0,0.0,0.0,0.0,0.0,0.0,0.0,0.0,0.0,0.0,0.0,0.0,0.0,0.0,0.0,0.0,0.0,0.0,0.0,0.0,0.0,0.0,0.0,0.0,0.0,0.0,0.0,0.0,0.0,0.0,0.0,0.0,0.0,0.0,0.0,0.0,0.0,0.0,0.0,0.0,0.0,0.0,0.0,0.0,0.0,0.0,0.0,0.0,0.0,0.0,0.0,0.0,0.0,0.0,0.0,0.0,0.0,0.0,-4.2037,-4.2263,-4.2799,-4.3496,-4.4045,-4.4859,-4.6269,-4.6818,-4.7363,-4.8083,0.0,0.0,0.0,0.0,0.0,0.0,0.0,0.0,0.0,0.0,0.0,0.0,0.0,0.0,0.0,0.0,0.0,0.0,0.0,0.0,0.0,0.0,0.0,0.0,0.0,0.0,0.0,0.0,0.0,0.0,0.0,0.0,0.0,0.0,0.0,0.0,0.0,0.0,0.0,0.0,0.0,0.0,0.0,0.0,0.0,0.0,0.0,0.0,0.0,0.0,0.0,0.0,0.0,0.0,0.0,0.0,0.0,0.0,0.0,0.0,0.0,0.0,0.0,0.0,0.0,0.0,0.0,0.0,0.0,0.0,0.0,0.0,0.0,0.0,0.0,0.0,0.0,0.0,0.0,0.0,0.0,0.0,0.0,0.0,0.0,0.0,0.0,0.0,0.0,0.0,0.0,0.0,0.0,0.0,0.0,0.0,0.0,0.0,0.0,0.0,0.0,0.0,-4.3219,-4.3965,-4.4643,-4.4752,-4.5767,-4.6426,-4.6531,-4.7517,-4.8134,-4.8134,0.0,0.0,0.0,0.0,0.0,0.0,0.0,0.0,0.0,0.0,0.0,0.0,0.0,0.0,0.0,0.0,0.0,0.0,0.0,0.0,0.0,0.0,0.0,0.0,0.0,0.0,0.0,0.0,0.0,0.0,0.0,0.0,0.0,0.0,0.0,0.0,0.0,0.0,0.0,0.0,0.0,0.0,0.0,0.0,0.0,0.0,0.0,0.0,0.0,0.0,0.0,0.0,0.0,0.0,0.0,0.0,0.0,0.0,0.0,0.0,-4.704,0.0,0.0,0.0,0.0,0.0,0.0,0.0,0.0,0.0,0.0,0.0,0.0,0.0,0.0,0.0,0.0,0.0,0.0,0.0,0.0,0.0,0.0,0.0,0.0,0.0,0.0,0.0,0.0,0.0,0.0,0.0,0.0,0.0,0.0,0.0,0.0,0.0,0.0,0.0,0.0,0.0,-4.4401,-4.4481,-4.4967,-4.5926,-4.6269,-4.6766,-4.7647,-4.7953,-4.8134,-4.8134,-4.8134,0.0,0.0,0.0,0.0,0.0,0.0,0.0,0.0,0.0,0.0,0.0,0.0,0.0,0.0,0.0,0.0,0.0,0.0,0.0,0.0,0.0,0.0,0.0,0.0,0.0,0.0,0.0,0.0,0.0,0.0,0.0,0.0,0.0,0.0,0.0,0.0,0.0,0.0,0.0,0.0,0.0,0.0,0.0,0.0,0.0,0.0,0.0,0.0,0.0,0.0,0.0,0.0,0.0,0.0,0.0,0.0,0.0,0.0,0.0,0.0,-4.7309,0.0,0.0,0.0,0.0,0.0,0.0,0.0,0.0,0.0,0.0,0.0,0.0,0.0,0.0,0.0,0.0,0.0,0.0,0.0,0.0,0.0,0.0,0.0,0.0,0.0,0.0,0.0,0.0,0.0,0.0,0.0,0.0,0.0,0.0,0.0,0.0,0.0,0.0,0.0,0.0,-4.5608,-4.6195,-4.6966,-4.757,-4.7951,-4.8215,-4.8481,-4.8504,-4.8392,-4.8083,-4.8134,0.0,0.0,0.0,0.0,0.0,0.0,0.0,0.0,0.0,0.0,0.0,0.0,0.0,0.0,0.0,0.0,0.0,0.0,0.0,0.0,0.0,0.0,0.0,0.0,0.0,0.0,0.0,0.0,0.0,0.0,0.0,0.0,0.0,0.0,0.0,0.0,0.0,0.0,0.0,0.0,0.0,0.0,0.0,0.0,0.0,0.0,0.0,0.0,0.0,0.0,0.0,0.0,0.0,-4.6441,-4.677,-4.7309,-4.7309,-4.7309,-4.7309,-4.7309,-4.7309,-4.7309,-4.7309,0.0,0.0,0.0,0.0,0.0,0.0,0.0,0.0,0.0,0.0,0.0,0.0,0.0,0.0,0.0,0.0,0.0,0.0,0.0,0.0,0.0,0.0,0.0,0.0,-4.8134,-4.8134,-4.8134,0.0,0.0,0.0,0.0,0.0,0.0,0.0,0.0,0.0,0.0,0.0,-4.712,-4.8267,-4.915,-4.915,-4.9651,-4.9764,-4.9258,-4.915,-4.8977,-4.8471,-4.8443,-4.8387,0.0,0.0,0.0,0.0,0.0,0.0,0.0,0.0,0.0,0.0,0.0,0.0,0.0,0.0,0.0,0.0,0.0,0.0,0.0,0.0,0.0,0.0,0.0,0.0,0.0,0.0,0.0,0.0,0.0,0.0,0.0,0.0,-4.4825,-4.5372,0.0,0.0,0.0,0.0,0.0,0.0,0.0,0.0,0.0,0.0,0.0,0.0,0.0,-4.5991,-4.5961,-4.6331,-4.6508,-4.6587,-4.6976,-4.7219,-4.7309,-4.7309,-4.7309,-4.7309,-4.7309,0.0,-4.7309,-4.7309,0.0,0.0,0.0,0.0,0.0,0.0,0.0,0.0,0.0,0.0,0.0,0.0,0.0,0.0,0.0,0.0,0.0,0.0,0.0,0.0,0.0,0.0,-4.9669,-4.838,-4.8134,-4.8134,0.0,-4.8134,-4.8134,-4.8134,-4.8134,0.0,0.0,0.0,0.0,0.0,0.0,0.0,-4.955,-4.9739,-4.99,-4.99,-4.9957,-4.9985,-4.99,-4.99,-4.9844,-4.976,-4.976,-4.9483,-4.8897,-4.8869,0.0,0.0,0.0,0.0,0.0,0.0,0.0,0.0,0.0,0.0,0.0,0.0,0.0,0.0,0.0,0.0,0.0,0.0,0.0,0.0,0.0,0.0,0.0,0.0,0.0,0.0,0.0,0.0,0.0,-4.5711,-4.5834,-4.6111,-4.6142,-4.6265,0.0,0.0,0.0,0.0,0.0,0.0,0.0,0.0,0.0,-4.7589,-4.7415,-4.725,-4.7126,-4.7178,-4.7087,-4.6989,-4.7203,-4.7489,-4.7848,-4.7848,-4.8057,-4.8416,-4.8416,-4.8416,-4.8356,-4.7608,-4.7519,-4.7848,0.0,0.0,0.0,0.0,-4.9051,-4.9381,-4.9513,-4.9826,0.0,-5.0157,0.0,0.0,0.0,0.0,0.0,0.0,0.0,0.0,0.0,0.0,-4.958,-4.8782,-4.8588,-4.8724,-4.9089,-4.9145,-4.9061,0.0,-4.8921,-4.923,-4.9511,0.0,0.0,0.0,0.0,-5.0013,-5.0013,-5.0322,-5.0519,-5.0519,-5.0829,-5.0885,-5.0547,-5.0519,-5.0379,-5.0041,-5.0013,-4.99,-4.9567,-4.9567,-4.9258,0.0,0.0,0.0,0.0,0.0,0.0,0.0,0.0,0.0,0.0,0.0,0.0,0.0,0.0,0.0,0.0,0.0,0.0,0.0,0.0,0.0,0.0,0.0,0.0,0.0,0.0,0.0,0.0,-4.6603,-4.6665,-4.685,-4.685,-4.6911,0.0,0.0,0.0,0.0,0.0,0.0,-4.7835,-4.7865,-4.8173,-4.8881,-4.8714,-4.8638,-4.8609,-4.8352,-4.8093,-4.7905,-4.7862,-4.8057,-4.858,-4.858,-4.885,-4.9299,-4.9299,-4.9299,-4.9239,-4.8207,-4.8087,-4.858,-4.8802,-4.9161,-4.9658,-4.9924,-5.0147,-5.0344,-5.052,-5.0699,-5.0896,-5.0896,-5.1233,-5.1617,-5.1438,0.0,0.0,0.0,0.0,-5.1874,-5.0709,-5.0231,-4.9952,-4.966,-4.9413,-4.9398,-4.99,-5.0125,-5.0069,0.0,-4.9651,-5.0069,-5.021,0.0,0.0,0.0,0.0,-5.0491,-5.0491,-5.0885,-5.1112,-5.1112,-5.1506,-5.1618,-5.114,-5.1112,-5.0916,-5.0519,-5.0491,-5.0407,-5.0266,-5.0238,-4.9904,-4.9286,0.0,0.0,0.0,0.0,0.0,0.0,0.0,0.0,0.0,0.0,0.0,0.0,0.0,0.0,0.0,0.0,0.0,0.0,0.0,0.0,0.0,0.0,0.0,0.0,0.0,0.0,0.0,0.0,0.0,-4.7465,-4.7558,0.0,0.0,0.0,0.0,-4.8512,-4.8512,-4.8512,-4.8573,-4.8573,-4.8881,-4.962,-4.962,-4.98,-5.0197,-4.9965,-4.9744,-4.9448,-4.9299,-4.9239,-4.9269,-4.9269,-4.9269,-4.9299,-4.9299,-4.9299,-4.9299,-4.9239,-4.9239,-4.9269,-4.9463,-4.9583,-4.9658,-4.9924,-5.054,-5.1236,-5.1236,-5.1829,-5.2561,-5.2561,-5.2592,-5.2622,-5.2622,-5.2653,0.0,0.0,-5.3591,-5.3576,-5.3434,-5.2781,-5.1991,-5.1295,-5.0502,-4.9985,-5.0013,-5.0463,-5.0716,0.0,-4.9985,-5.0182,-5.0772,0.0,-5.1028,-5.1618,-5.1702,-5.1702,-5.1702,-5.1731,-5.1731,-5.1731,-5.1759,-5.1787,-5.1759,-5.1731,-5.1731,-5.1702,-5.1702,-5.1421,-5.0913,-5.0885,-5.0604,-4.9985,-5.0761,0.0,0.0,0.0,0.0,0.0,0.0,0.0,0.0,0.0,0.0,0.0,0.0,0.0,0.0,0.0,0.0,0.0,0.0,0.0,0.0,0.0,0.0,0.0,0.0,0.0,0.0,0.0,0.0,-4.8235,-4.8235,0.0,-4.922,-4.9312,-4.9497,-4.9928,-4.9959,-4.9959,-4.9959,-4.9959,-5.0082,-5.0328,-5.0199,-5.0075,-5.0131,-4.9835,-4.9613,-4.9389,-4.9344,-4.9494,-4.9883,-4.9883,-5.0122,-5.0511,-5.0511,-5.0511,-5.0511,-5.0511,-5.0363,-5.0155,-5.0411,-5.0834,-5.1378,-5.1648,-5.1935,-5.2195,-5.2195,-5.2424,-5.279,-5.3221,-5.3345,-5.3437,-5.3868,-5.3976,-5.4006,-5.4252,-5.4314,-5.4096,-5.3036,-5.2949,-5.2793,-5.1356,-5.1181,-5.1323,-5.1217,-5.1309,-5.1393,-5.1169,-5.114,-5.1197,-5.1421,-5.145,-5.1674,-5.2293,-5.204,-5.1927,-5.2321,-5.204,-5.1787,-5.1787,-5.1787,-5.1787,-5.1787,-5.1787,-5.1787,-5.1787,-5.1787,-5.1674,-5.1478,-5.145,-5.1169,-5.0604,-5.1857,-5.2352,0.0,0.0,0.0,0.0,0.0,0.0,0.0,0.0,0.0,0.0,0.0,0.0,0.0,0.0,0.0,0.0,0.0,0.0,0.0,0.0,0.0,0.0,0.0,0.0,0.0,0.0,-4.9066,-4.9281,-4.9312,-4.9497,-4.9989,-5.002,-5.0205,-5.0667,-5.0697,-5.0697,-5.0697,-5.0697,-5.079,-5.1036,-5.1089,-5.107,-5.1,-5.1077,-5.0923,-5.0647,-5.0647,-5.081,-5.1229,-5.1229,-5.1349,-5.1558,-5.1558,-5.1558,-5.1558,-5.1653,-5.169,-5.1711,-5.144,-5.1713,-5.2352,-5.2608,-5.2852,-5.3098,-5.3314,-5.3375,-5.3468,-5.3899,-5.4006,-5.4099,-5.456,-5.4683,-5.4745,-5.4976,-5.5068,-5.4863,-5.4037,-5.3999,-5.3922,-5.2717,-5.2416,-5.2344,-5.2216,-5.2004,-5.1787,-5.1787,-5.1787,-5.1787,-5.1787,-5.1787,-5.1927,-5.2349,-5.204,-5.1927,-5.2349,-5.204,-5.1787,-5.1787,-5.1787,-5.1787,-5.1787,-5.1787,-5.1787,-5.1787,-5.1787,-5.1787,-5.1787,-5.1787,-5.159,-5.1197,-5.2578,-5.3346,-5.3443,0.0,0.0,0.0,0.0,0.0,0.0,0.0,0.0,0.0,0.0,0.0,0.0,0.0,0.0,0.0,0.0,0.0,0.0,0.0,0.0,0.0,0.0,0.0,-4.9805,-4.9712,-4.9959,-5.0605,-5.0697,-5.0697,-5.0728,-5.0728,-5.0728,-5.0759,-5.079,-5.079,-5.079,-5.082,-5.1128,-5.1775,-5.2452,-5.2826,-5.3004,-5.3672,-5.3736,-5.3174,-5.3174,-5.3174,-5.3174,-5.3174,-5.2845,-5.2217,-5.2217,-5.2247,-5.2264,-5.2502,-5.3179,-5.3901,-5.2548,-5.2216,-5.2413,-5.267,-5.3191,-5.3791,-5.4468,-5.4683,-5.4683,-5.4714,-5.4714,-5.4714,-5.4745,-5.4745,-5.4914,-5.5561,-5.5715,-5.5869,-5.6577,-5.6145,-5.5521,-5.5471,-5.4223,-5.302,-5.302,-5.2355,-5.1787,-5.1787,-5.1787,-5.1787,-5.1787,-5.1787,-5.1787,-5.1815,-5.1787,0.0,-5.1815,-5.1787,-5.1787,-5.1787,-5.1787,-5.1787,-5.1787,-5.1787,-5.1787,-5.1787,-5.1787,-5.1787,-5.1787,-5.1787,-5.1841,-5.1896,-5.2862,-5.4162,-5.5715,0.0,0.0,0.0,0.0,0.0,0.0,0.0,0.0,0.0,0.0,0.0,0.0,0.0,0.0,0.0,0.0,0.0,0.0,0.0,0.0,0.0,0.0,-5.0636,-5.0451,-5.042,-5.0482,-5.0667,-5.0697,-5.0882,-5.1374,-5.1436,-5.1621,-5.2113,-5.2606,-5.2883,-5.2883,-5.3345,-5.3668,-5.3853,-5.3868,-5.3819,-5.3702,-5.3723,-5.3543,-5.3174,-5.3174,-5.3174,-5.3174,-5.3174,-5.3084,-5.2905,-5.2905,-5.3032,-5.3224,-5.3272,-5.3728,-5.4229,-5.3863,-5.3851,-5.4083,-5.4129,-5.4252,-5.4437,-5.4621,-5.4683,-5.4775,-5.5284,-5.5438,-5.553,-5.6053,-5.6207,-5.6238,-5.6471,-5.6532,-5.6419,-5.5986,-5.6145,-5.6145,-5.4917,-5.4304,-5.3756,-5.3126,-5.2355,-5.1787,-5.1787,-5.1787,-5.1787,-5.1787,-5.1787,-5.1927,-5.2377,-5.2068,0.0,-5.2405,-5.2068,-5.1787,-5.1787,-5.1787,-5.1787,-5.1787,-5.1787,-5.1787,-5.1787,-5.1787,-5.1787,-5.1787,-5.1787,-5.2355,-5.3576,-5.4484,-5.5398,0.0,0.0,0.0,0.0,0.0,0.0,0.0,0.0,0.0,0.0,0.0,0.0,0.0,0.0,0.0,0.0,0.0,0.0,0.0,0.0,0.0,0.0,-5.1528,-5.1528,-5.1528,-5.1313,-5.1221,-5.1498,-5.1528,-5.1682,-5.2082,-5.239,-5.2698,-5.3098,-5.3775,-5.4099,-5.4099,-5.4468,-5.4683,-5.4683,-5.4835,-5.4721,-5.437,-5.4528,-5.4436,-5.4012,-5.4012,-5.4012,-5.4012,-5.4012,-5.3862,-5.3623,-5.3623,-5.3721,-5.3868,-5.4062,-5.4534,0.0,0.0,0.0,0.0,0.0,-5.513,-5.5191,-5.5468,-5.5592,-5.5653,-5.6023,-5.6146,-5.6255,-5.6686,-5.681,-5.681,-5.681,-5.681,-5.6713,-5.6195,-5.639,-5.6537,-5.5571,-5.4815,-5.4149,-5.3652,-5.2623,-5.1787,-5.1787,-5.1787,0.0,-5.1787,-5.1787,-5.1899,-5.2264,-5.2012,-5.1927,-5.2264,-5.2012,-5.1787,-5.1787,-5.1787,-5.1787,-5.1787,-5.1787,0.0,0.0,0.0,-5.1787,-5.1787,-5.2139,0.0,0.0,0.0,-5.5948,-5.681,0.0,0.0,0.0,-5.4083,-5.3714,0.0,0.0,0.0,0.0,0.0,0.0,0.0,0.0,0.0,0.0,0.0,0.0,0.0,0.0,0.0,0.0,-5.2698,-5.2698,-5.2698,-5.2267,-5.2113,-5.2637,-5.279,-5.2821,-5.2821,-5.3437,-5.3791,-5.3791,-5.4406,-5.4806,-5.4806,0.0,0.0,0.0,0.0,-5.5735,-5.525,-5.5888,-5.5892,-5.5388,-5.5388,-5.5388,-5.5388,-5.5388,-5.5089,-5.4551,-5.4551,-5.4521,-5.4601,-5.5115,-5.5663,-5.6127,-5.5088,-5.4788,-5.5037,-5.5592,-5.5807,-5.5899,-5.6594,0.0,0.0,-5.681,-5.681,-5.681,-5.681,-5.681,-5.681,-5.681,-5.681,-5.681,-5.681,-5.681,-5.681,-5.681,-5.5521,-5.4304,-5.4304,-5.2996,-5.1787,-5.1787,-5.1787,-5.1787,-5.1787,-5.1787,-5.1787,-5.1787,-5.1787,-5.1787,-5.1787,-5.1787,-5.1787,-5.1787,0.0,0.0,-5.1787,-5.1787,-5.1787,-5.1787,-5.1787,-5.1787,-5.1787,-5.2677,-5.3495,-5.4304,-5.517,-5.6047,-5.681,-5.681,-5.6471,-5.5807,-5.513,-5.4745,0.0,0.0,0.0,0.0,0.0,0.0,0.0,0.0,0.0,0.0,0.0,0.0,0.0,0.0,0.0,-5.2698,-5.2698,-5.2698,-5.2698,-5.3067,-5.3191,-5.276,-5.3191,-5.3529,-5.3529,-5.4099,-5.4498,-5.4498,-5.513,-5.5499,-5.5499,-5.6577,-5.7192,-5.7192,-5.7641,-5.7728,-5.7375,-5.7323,-5.7097,-5.6735,0.0,0.0,-5.6735,-5.6735,-5.6645,-5.6526,-5.6526,-5.6659,-5.6865,-5.7274,-5.7434,-5.7402,-5.6651,-5.6361,-5.644,-5.6563,-5.6594,-5.6625,-5.6748,-5.681,-5.681,-5.681,-5.681,-5.681,-5.681,-5.681,0.0,-5.681,-5.681,-5.681,-5.681,-5.681,-5.681,-5.681,-5.5521,-5.4304,-5.4304,-5.2996,-5.1787,-5.1787,-5.1787,-5.1787,-5.1787,-5.1787,-5.1787,-5.1787,-5.1787,-5.1787,-5.1787,-5.1787,-5.1787,-5.1787,-5.1787,-5.1787,-5.1787,-5.1787,-5.1787,-5.1787,-5.1787,-5.1787,-5.1787,-5.3261,-5.4149,-5.4304,-5.5769,-5.6664,-5.681,-5.681,-5.6748,-5.6594,-5.5838,-5.5222,0.0,0.0,0.0,0.0,0.0,0.0,0.0,0.0,0.0,0.0,0.0,-5.2698,0.0,0.0,-5.2698,-5.2698,-5.3006,-5.3221,-5.3221,-5.3806,-5.3914,-5.3283,-5.3806,-5.4191,-5.4191,-5.4822,-5.5222,-5.5222,-5.6146,-5.673,-5.673,-5.7765,-5.827,-5.827,-5.8508,-5.844,-5.8003,-5.788,-5.754,-5.7094,-5.7094,-5.7094,-5.7094,-5.7094,-5.7094,-5.7094,-5.7094,-5.7281,-5.7592,-5.8003,-5.8226,-5.8288,-5.79,-5.7395,-5.681,-5.681,-5.681,-5.681,-5.681,-5.681,-5.6871,-5.721,-5.7303,-5.7364,-5.7734,-5.7826,-5.7826,-5.7826,-5.7826,-5.7826,-5.7826,-5.7826,-5.7826,-5.7826,-5.6515,-5.5247,-5.5247,-5.3687,-5.2236,-5.2236,-5.2012,-5.1787,-5.1787,-5.1787,-5.1787,-5.1787,-5.1787,-5.1787,-5.1787,-5.1787,-5.1787,-5.1787,-5.1787,-5.1787,-5.1787,-5.1787,-5.1787,-5.1787,-5.1787,-5.1787,-5.1787,-5.3419,-5.4304,-5.4304,-5.5948,-5.681,-5.681,-5.681,-5.681,-5.681,-5.644,-5.6053,0.0,0.0,0.0,0.0,0.0,0.0,0.0,0.0,-5.2698,-5.2698,-5.2698,-5.2698,-5.2698,-5.2821,-5.2914,-5.2914,-5.3468,-5.3883,-5.3883,-5.4437,-5.4683,-5.4176,-5.4576,-5.4868,-5.4868,-5.5499,-5.5961,-5.6084,-5.7131,-5.7888,-5.8011,-5.8608,-5.8978,-5.8978,-5.9101,-5.8909,-5.8398,-5.8428,-5.8088,-5.7483,-5.7483,-5.7483,-5.7483,-5.7536,-5.7588,-5.7588,-5.7641,-5.788,-5.8192,-5.8481,-5.8776,-5.8978,-5.8824,-5.8165,-5.721,-5.721,-5.721,-5.721,-5.721,-5.721,-5.7303,-5.7826,-5.7962,-5.8134,-5.8608,-5.8793,-5.8793,-5.8793,-5.8793,-5.8793,-5.8793,-5.8793,-5.8793,-5.8793,-5.7613,-5.6433,-5.6433,-5.4736,-5.316,-5.316,-5.26,-5.2152,-5.2152,-5.204,-5.1927,-5.1815,-5.1787,-5.1787,-5.1787,-5.1787,-5.1787,-5.1787,-5.1787,-5.1787,-5.1787,-5.1787,-5.1787,-5.1787,-5.1787,-5.1896,-5.2059,-5.3524,-5.4355,-5.456,-5.6047,-5.681,-5.681,-5.681,-5.681,-5.681,-5.681,-5.681,-5.2698,-5.2698,0.0,-5.2698,-5.2698,-5.2698,0.0,0.0,-5.2698,-5.2698,-5.2698,-5.2698,-5.2698,-5.3221,-5.3622,-5.3622,-5.4129,-5.456,-5.456,-5.5191,-5.5561,-5.5468,-5.553,-5.5592,-5.5592,-5.6238,-5.6933,-5.75,-5.7734,-5.8073,-5.8639,-5.9316,-5.9686,-5.9686,-6.027,-6.0319,-5.9773,-5.9773,-5.9508,-5.889,-5.889,-5.889,-5.889,-5.9128,-5.9235,-5.9235,-5.9562,-5.9796,-6.005,-5.9521,-5.9481,-5.9624,-5.9008,-5.8701,-5.8547,-5.8547,-5.8547,-5.8547,-5.8547,-5.8547,-5.8577,-5.8639,-5.867,-5.867,-5.8762,-5.8793,-5.8793,-5.8793,-5.8793,-5.8793,-5.8793,-5.8793,-5.8793,-5.8793,-5.8075,-5.7346,-5.7346,-5.6001,-5.4725,-5.4725,-5.4033,-5.3473,-5.3473,-5.2967,-5.2433,-5.1871,-5.1787,-5.1787,-5.1787,-5.1787,-5.1787,-5.1787,-5.1787,-5.1787,-5.1787,-5.1787,-5.1787,-5.1787,-5.1787,-5.2085,-5.2861,-5.3756,-5.4662,-5.5371,-5.6293,-5.681,-5.681,-5.681,-5.681,-5.681,-5.681,-5.681,-5.2698,0.0,0.0,0.0,-5.2698,-5.2698,-5.2698,-5.2698,-5.2698,-5.2698,-5.3037,-5.3314,-5.3314,-5.3837,-5.4252,0.0,-5.4853,-5.5284,-5.5284,-5.5869,-5.633,-5.633,-5.6669,-5.6761,-5.6361,-5.6994,-5.7518,-5.7795,-5.8485,-5.907,-5.9347,-6.0024,-6.0363,-6.0363,-6.064,-6.0534,-6.0016,-6.0016,-5.972,-5.9099,-5.9099,-5.9153,-5.9315,-5.9476,-5.9583,-5.9827,-6.0092,-6.0302,-6.0399,-6.0279,-6.026,-6.0332,-6.0055,-5.9963,-5.987,-5.907,-5.8793,-5.8793,-5.8793,-5.8793,-5.8854,-5.9255,-5.9378,-5.9439,-5.9839,-5.9963,-5.9963,-5.9963,-5.9963,-5.9963,-5.9963,-5.9963,-5.9963,-5.9963,-5.9283,-5.8678,-5.8678,-5.6991,-5.5497,-5.5497,-5.4571,-5.3726,-5.3726,-5.3445,-5.3192,-5.2911,-5.2264,-5.1787,-5.1787,-5.1787,-5.1787,-5.1787,-5.1787,-5.1787,-5.1787,-5.1787,-5.1787,-5.1787,-5.1787,-5.2139,-5.2967,-5.3808,-5.4662,-5.5471,-5.6342,-5.681,-5.681,-5.681,-5.681,-5.681,-5.681,-5.681,-5.2698,0.0,0.0,-5.2698,-5.2698,-5.2698,-5.2698,-5.2852,-5.3006,-5.3006,-5.3529,-5.3991,-5.3991,-5.4545,-5.5007,-5.5007,-5.5561,-5.6053,-5.6238,-5.6779,-5.7148,-5.7333,-5.7795,-5.7919,-5.7426,-5.7795,-5.8165,-5.83,-5.9224,-5.987,-6.0055,-6.0547,-6.0794,-6.0794,-6.0794,-6.0586,-6.0092,-6.0069,-5.972,-5.9207,-5.9153,-5.9261,-5.9529,-5.969,-5.9902,-6.025,-6.0429,-6.0534,-6.0534,-6.069,-6.0794,-6.0794,-6.0794,-6.0794,-6.0671,-5.9686,-5.9347,-5.9347,-5.9347,-5.9347,-5.9408,-5.9901,-6.0086,-6.0147,-6.064,-6.0794,-6.0794,-6.0794,-6.0794,-6.0794,-6.0794,-6.0794,-6.0794,-6.0794,-6.0294,-5.9872,-5.9872,-5.8273,-5.691,-5.691,-5.5618,-5.4545,-5.4545,-5.4205,-5.3922,-5.3922,-5.2854,-5.204,-5.204,-5.1899,-5.1787,-5.1787,-5.1787,-5.1787,-5.1787,-5.1787,-5.1787,-5.1787,-5.1787,-5.2247,-5.3337,-5.3964,-5.4815,-5.5849,-5.6488,-5.681,-5.681,-5.681,-5.681,-5.681,-5.681,-5.681,0.0,0.0,-5.2698,-5.2698,-5.2698,-5.2698,-5.2698,-5.3221,-5.3637,-5.3637,-5.4191,-5.4652,-5.4652,-5.5222,-5.5653,-5.5653,-5.6269,-5.6994,-5.7672,-5.7795,-5.8042,-5.8639,-5.8731,-5.8731,0.0,-5.8731,-5.9008,-5.9686,-5.9778,-6.0086,-6.0732,-6.0794,-6.0794,-6.0794,-6.0794,-6.0638,-6.0377,-6.0144,-5.9827,-5.9476,-5.9207,-5.9261,-5.9529,-6.0114,-6.0534,-6.0794,-6.0794,-6.0794,-6.0794,-6.0794,-6.0794,-6.0794,-6.0794,-6.0794,-6.0794,-6.0763,-6.0732,-6.0732,-6.0732,-6.0732,-6.0732,-6.0763,-6.0763,-6.0763,-6.0794,-6.0794,-6.0794,-6.0794,-6.0794,-6.0794,-6.0794,-6.0794,-6.0794,-6.0794,-6.0794,-6.0742,-6.0742,-6.0,-5.9386,-5.9386,-5.7941,-5.6708,-5.6708,-5.5509,-5.4569,-5.4569,-5.3501,-5.2686,-5.2686,-5.2152,-5.1787,-5.1787,-5.1787,-5.1787,-5.1787,-5.1787,-5.1787,-5.1787,-5.1787,-5.2516,-5.42,-5.4304,-5.5069,-5.6713,-5.6761,-5.681,-5.681,-5.681,-5.681,-5.681,-5.681,-5.681,-5.2698,0.0,-5.2698,-5.2698,-5.3037,-5.3375,-5.3375,-5.3853,-5.4345,-5.4345,-5.4914,-5.5376,-5.5376,-5.593,-5.644,-5.644,-5.7025,-5.7549,-5.7795,-5.8146,-5.8516,-5.8762,-5.9162,0.0,0.0,0.0,0.0,-5.9778,-6.0209,-6.0547,-6.0794,-6.0794,-6.0794,-6.0794,-6.0794,-6.0617,-6.0144,-6.0069,-5.9827,-5.9529,-5.9796,-6.0008,-6.0114,-6.0481,-6.069,-6.0794,-6.0794,-6.0794,-6.0794,-6.0794,-6.0794,-6.0794,-6.0794,-6.0794,-6.0794,-6.0794,-6.0794,-6.0794,-6.0794,-6.0794,-6.0794,-6.0794,-6.0794,-6.0794,-6.0794,-6.0794,-6.0794,-6.0794,-6.0794,-6.0794,-6.0794,-6.0794,-6.0794,-6.0794,-6.0794,-6.0794,-6.0794,-6.0136,-5.9469,-5.9469,-5.8055,-5.6822,-5.6822,-5.5878,-5.4934,-5.4091,-5.3248,-5.2574,-5.2152,-5.1927,-5.1787,-5.1787,-5.1787,-5.1787,-5.1787,-5.1787,-5.1787,-5.1787,-5.1787,-5.257,-5.4252,-5.4304,-5.5069,-5.6761,-5.681,-5.681,-5.681,-5.681,-5.681,-5.681,-5.681,-5.681,-5.2698,-5.2698,-5.276,-5.3006,-5.3406,-5.373,-5.3976,-5.4607,-5.5068,-5.5068,-5.5592,-5.6084,-5.6084,-5.6502,-5.681,-5.681,-5.7364,-5.7919,-5.8085,-5.8701,-5.9224,-5.947,-5.9901,-6.0147,0.0,0.0,0.0,-6.0147,-6.0547,-6.0794,-6.0794,-6.0794,-6.0794,-6.0794,-6.0794,-6.0617,-6.0144,-6.0069,-5.9827,-5.9529,-6.0114,-6.0377,-6.0429,-6.069,-6.0794,-6.0794,-6.0794,-6.0794,-6.0794,-6.0794,-6.0794,-6.0794,-6.0794,-6.0794,-6.0794,-6.0794,-6.0794,-6.0794,-6.0794,-6.0794,-6.0794,-6.0794,-6.0794,-6.0794,-6.0794,-6.0794,-6.0794,-6.0794,-6.0794,-6.0794,-6.0794,-6.0794,-6.0794,-6.0794,-6.0794,-6.0794,-6.0794,-6.0346,-5.9978,-5.9978,-5.8768,-5.7749,-5.7749,-5.6765,-5.5479,-5.3923,-5.3304,-5.2742,-5.1899,-5.1787,-5.1787,-5.1787,-5.1787,-5.1787,-5.1787,-5.1787,-5.1787,-5.1787,-5.2059,-5.2837,-5.4252,-5.456,-5.5371,-5.6761,-5.681,-5.681,-5.681,-5.681,-5.681,-5.681,-5.681,-5.681,-5.2698,-5.2729,-5.2914,-5.356,-5.3775,-5.3991,-5.4591,-5.5284,-5.5745,-5.5745,-5.63,-5.681,0.0,0.0,-5.681,-5.681,-5.7395,-5.8054,-5.8701,-5.9408,-6.0086,0.0,0.0,0.0,0.0,0.0,0.0,-6.0794,0.0,-6.0794,-6.0794,-6.0794,-6.0794,-6.0794,-6.0794,-6.069,-6.0377,-6.0144,-5.988,-5.9529,-6.0167,-6.0429,-6.0429,-6.069,-6.0794,-6.0794,-6.0794,-6.0794,-6.0794,-6.0794,-6.0794,-6.0794,-6.0794,-6.0794,-6.0794,-6.0794,-6.0794,-6.0794,-6.0794,-6.0794,-6.0794,-6.0794,-6.0794,-6.0794,-6.0794,-6.0794,-6.0794,-6.0794,-6.0794,-6.0794,-6.0794,-6.0794,-6.0794,-6.0794,-6.0794,-6.0794,-6.0794,-6.0794,-6.0794,-6.0794,-6.0084,-5.9469,-5.9362,-5.7915,-5.6079,-5.4008,-5.3726,-5.322,-5.1955,-5.1787,-5.1787,-5.1787,-5.1787,-5.1787,-5.1787,-5.1787,-5.1787,-5.1787,-5.257,-5.339,-5.4252,-5.5069,-5.5899,-5.6761,-5.681,-5.681,-5.681,-5.681,-5.681,-5.681,-5.681,-5.681,-5.2698,-5.3067,-5.3498,-5.3683,-5.4453,-5.5222,-5.5407,-5.5992,-5.6532,-5.6532,-5.6686,-5.681,0.0,0.0,0.0,-5.681,-5.7795,0.0,-5.8762,-5.9809,0.0,-6.0763,0.0,-6.0794,-6.0794,-6.0794,0.0,0.0,-6.0794,-6.0794,-6.0794,-6.0794,-6.0794,-6.0794,-6.0794,-6.069,-6.0377,-6.0324,-6.0272,-6.0167,-6.0534,-6.069,-6.069,-6.0742,-6.0794,-6.0794,-6.0794,-6.0794,-6.0794,-6.0794,-6.0794,-6.0794,-6.0794,-6.0794,-6.0794,-6.0794,-6.0794,-6.0794,-6.0794,-6.0794,-6.0794,-6.0794,-6.0794,-6.0794,-6.0794,-6.0794,-6.0794,-6.0794,-6.0794,-6.0794,-6.0794,-6.0794,-6.0794,-6.0794,-6.0794,-6.0794,-6.0794,-6.0794,-6.0794,-6.0794,-6.0084,-5.9093,-5.7693,-5.7105,-5.6079,-5.4008,-5.3726,-5.322,-5.1955,-5.1787,-5.1787,-5.1787,-5.1787,-5.1787,-5.1787,-5.1787,-5.1787,-5.1787,-5.257,-5.339,-5.4252,-5.5069,-5.5899,-5.6761,-5.681,-5.681,-5.681,-5.681,-5.681,-5.681,-5.681,-5.681,-5.3067,-5.3437,-5.3868,-5.4453,-5.513,-5.5776,-5.6084,-5.6532,-5.681,-5.681,-5.681,0.0,0.0,0.0,0.0,0.0,0.0,0.0,-5.8793,-5.9932,-6.0794,0.0,-6.0794,0.0,-6.0794,-6.0794,-6.0794,0.0,-6.0794,-6.0794,-6.0794,-6.0794,-6.0948,-6.1225,-6.1255,-6.112,-6.0805,-6.0805,-6.0683,-6.0377,-6.0997,-6.1255,-6.1255,-6.1532,-6.1686,-6.1686,0.0,-6.1686,-6.1656,-6.1379,-6.1255,-6.1225,-6.0917,-6.0794,-6.0794,-6.0794,-6.0794,-6.0794,-6.0794,-6.0794,-6.0794,-6.0794,-6.0794,-6.0794,-6.0794,-6.0794,-6.0794,-6.0794,-6.0794,-6.0794,-6.0794,-6.0794,-6.0794,-6.0794,-6.0794,-6.0794,-6.0794,-6.0794,-6.0794,-6.0794,-6.0429,-5.9629,-5.8221,-5.7735,-5.6796,-5.4624,-5.4032,-5.3326,-5.1982,-5.1787,-5.1787,-5.1787,-5.1787,-5.1787,-5.1787,-5.1787,-5.195,-5.2301,-5.3126,-5.3964,-5.4815,-5.562,-5.6293,-5.681,-5.681,-5.681,-5.681,-5.681,-5.681,-5.681,-5.681,-5.681,-5.3529,-5.373,-5.4145,-5.5376,-5.5745,-5.5992,-5.6656,-5.681,-5.681,-5.681,0.0,-5.681,-5.681,-5.681,-5.681,-5.681,0.0,-5.8793,-5.8793,-5.9932,-6.0794,-6.0794,-6.0794,-6.0794,-6.0794,-6.0794,-6.0794,-6.0794,-6.0886,-6.0886,-6.0794,-6.0886,-6.1255,-6.1933,-6.1933,-6.1827,-6.1561,-6.1561,-6.1286,-6.0705,-6.155,-6.1933,-6.1963,-6.2548,-6.2825,-6.2825,-6.2825,0.0,-6.2764,-6.2179,-6.1933,-6.1871,-6.1194,-6.0948,-6.0917,-6.0824,-6.0794,-6.0794,-6.0794,-6.0794,-6.0794,-6.0794,-6.0794,-6.0794,-6.0794,-6.0794,-6.0794,-6.0794,-6.0794,-6.0794,-6.0794,-6.0794,-6.0794,-6.0794,-6.0794,-6.0794,-6.0794,-6.0794,-6.0794,-6.0794,-6.0794,-6.0534,-5.9629,-5.8927,-5.7736,-5.5365,-5.4403,-5.3446,-5.198,-5.1787,-5.1787,-5.1787,-5.1787,-5.1787,-5.1787,-5.1787,-5.2139,-5.2967,-5.3808,-5.4662,-5.5471,-5.6342,-5.681,-5.681,-5.681,-5.681,-5.681,-5.681,-5.681,-5.681,-5.681,-5.681,-5.3529,-5.4068,-5.473,-5.5499,-5.6146,-5.6656,-5.6779,-5.681,0.0,0.0,-5.681,-5.681,-5.681,-5.681,0.0,-5.681,0.0,0.0,0.0,0.0,-6.0794,0.0,0.0,0.0,0.0,0.0,0.0,0.0,0.0,-6.1379,-6.0824,-6.1317,-6.1933,-6.261,-6.2641,-6.2587,-6.2534,-6.2534,-6.2472,-6.2349,-6.2526,-6.2641,-6.2641,-6.2764,-6.2825,-6.2825,-6.2825,0.0,-6.2794,-6.2702,-6.2641,-6.2579,-6.1902,-6.1625,-6.1563,-6.1009,-6.0794,-6.0794,-6.0794,-6.0794,-6.0794,-6.0794,-6.0794,-6.0794,-6.0794,-6.0794,-6.0794,-6.0794,-6.0794,-6.0794,-6.0794,-6.0794,-6.0794,-6.0794,-6.0794,-6.0794,-6.0794,-6.0794,-6.0794,-6.0794,-6.0794,-6.0534,-5.9629,-5.8927,-5.7736,-5.5365,-5.4403,-5.3446,-5.198,-5.1787,-5.1787,-5.1787,-5.1787,-5.1787,-5.1787,-5.1787,-5.2139,-5.2967,-5.3808,-5.4662,-5.5471,-5.6342,-5.681,-5.681,-5.681,-5.681,-5.681,-5.681,-5.681,-5.681,-5.681,-5.681,-5.3529,-5.3914,-5.4453,-5.5438,-5.5961,-5.6347,-5.6717,0.0,0.0,0.0,-5.681,-5.681,-5.681,0.0,0.0,0.0,0.0,0.0,0.0,0.0,0.0,0.0,0.0,0.0,0.0,0.0,0.0,0.0,0.0,-6.2025,-6.1348,-6.2302,-6.301,-6.3318,-6.3718,-6.3718,-6.3349,-6.3349,-6.3164,-6.2825,-6.3164,-6.3349,-6.3349,-6.3718,-6.3903,-6.3903,-6.3903,0.0,-6.3872,-6.3502,-6.3349,-6.3256,-6.261,-6.2117,-6.1779,-6.144,-6.1101,-6.0794,-6.0794,-6.0794,-6.0794,-6.0794,-6.0794,-6.0794,-6.0794,-6.0794,-6.0794,-6.0794,-6.0794,-6.0794,-6.0794,-6.0794,-6.0794,-6.0794,-6.0794,-6.0794,-6.0794,-6.0794,-6.0794,-6.0794,-6.0794,-6.069,-6.0241,-5.9335,-5.8131,-5.6515,-5.5078,-5.3767,-5.2544,-5.2059,-5.1787,-5.1787,-5.1787,-5.1787,-5.1787,-5.1787,-5.2355,-5.36,-5.4097,-5.4866,-5.6145,-5.6567,-5.681,-5.681,-5.681,-5.681,-5.681,-5.681,-5.681,-5.681,-5.681,-5.681,-5.3529,-5.3837,-5.4206,-5.5407,-5.5807,-5.6084,-5.6686,-5.681,0.0,0.0,-5.681,-5.681,-5.681,0.0,0.0,0.0,0.0,0.0,0.0,0.0,0.0,0.0,0.0,0.0,0.0,0.0,0.0,0.0,0.0,0.0,-6.2271,-6.3256,-6.3903,-6.4057,-6.4611,-6.4641,-6.4057,-6.4057,-6.3779,-6.3287,-6.381,-6.4057,-6.4087,-6.4641,-6.4888,-6.4888,-6.4888,0.0,0.0,-6.4303,-6.4057,-6.3995,-6.3287,-6.2702,-6.221,-6.1902,-6.1471,-6.0978,-6.0855,-6.0794,-6.0794,-6.0794,-6.0794,-6.0794,-6.0794,-6.0794,-6.0794,-6.0794,-6.0794,-6.0794,-6.0794,-6.0794,-6.0794,-6.0794,-6.0794,-6.0794,-6.0794,-6.0794,-6.0794,-6.0794,-6.0794,-6.0794,-6.0794,-5.9809,-5.8664,-5.7635,-5.5944,-5.4348,-5.3126,-5.2462,-5.2004,-5.1841,-5.1787,-5.1896,-5.2059,-5.2059,-5.2783,-5.4458,-5.456,-5.522,-5.6761,-5.681,-5.681,-5.681,-5.681,-5.681,-5.681,-5.681,-5.681,-5.681,-5.681,-5.681,-5.3529,-5.4129,-5.4745,-5.553,-5.6176,-5.6717,-5.6779,0.0,0.0,-5.681,-5.681,-5.681,-5.681,-5.681,0.0,0.0,0.0,0.0,0.0,0.0,0.0,0.0,0.0,0.0,0.0,0.0,0.0,0.0,0.0,0.0,-6.3656,-6.3694,-6.4118,-6.4764,-6.4857,-6.4857,-6.4795,-6.4795,-6.4764,-6.4703,-6.4764,-6.4795,-6.4795,-6.4857,-6.4888,-6.4888,-6.4888,0.0,0.0,-6.4826,-6.4795,-6.4734,-6.4026,-6.3687,-6.3502,-6.2271,-6.1779,-6.1625,-6.1009,-6.0794,-6.0794,-6.0794,-6.0794,-6.0794,-6.0794,-6.0794,-6.0794,-6.0794,-6.0794,-6.0794,-6.0794,-6.0794,-6.0794,-6.0794,-6.0794,-6.0794,-6.0794,-6.0794,-6.0794,-6.0794,-6.0794,-6.0794,-6.0794,-6.0178,-5.9216,-5.7695,-5.6796,-5.5521,-5.329,-5.2914,-5.2623,-5.1896,-5.1787,-5.2085,-5.2808,-5.2914,-5.36,-5.527,-5.5371,-5.5819,-5.6761,-5.681,-5.681,-5.681,-5.681,-5.681,-5.681,-5.681,-5.681,-5.681,-5.681,-5.681,-5.3037,-5.3622,-5.4268,-5.4945,-5.5622,-5.6238,-5.6717,0.0,0.0,-5.681,-5.681,-5.681,-5.681,-5.681,-5.7025,0.0,0.0,0.0,0.0,0.0,0.0,0.0,0.0,0.0,0.0,0.0,0.0,0.0,0.0,0.0,-6.4457,-6.4457,-6.4611,-6.4888,-6.4888,-6.4888,-6.4888,-6.4888,-6.4888,-6.4888,-6.4888,-6.4888,-6.4888,-6.4888,-6.4888,-6.4888,-6.4888,0.0,0.0,-6.4888,-6.4888,-6.4857,-6.458,-6.3964,-6.3164,-6.261,-6.1902,-6.1163,-6.0886,-6.0794,-6.0794,-6.0794,-6.0794,-6.0794,-6.0794,-6.0794,-6.0794,-6.0794,-6.0794,-6.0794,-6.0794,-6.0794,-6.0794,-6.0794,-6.0794,-6.0794,-6.0794,-6.0794,-6.0794,-6.0794,-6.0794,-6.0794,-6.0794,-6.024,-5.943,-5.8451,-5.7243,-5.602,-5.4671,-5.4068,-5.3652,-5.3366,-5.2837,-5.2648,-5.2967,-5.3495,-5.4274,-5.5421,-5.5521,-5.5899,-5.6761,-5.681,-5.681,-5.681,-5.681,-5.681,-5.681,-5.681,-5.681,-5.681,-5.681,-5.681,-5.2944,-5.3498,-5.4176,-5.4853,-5.5499,-5.6146,0.0,0.0,0.0,-5.681,-5.681,-5.681,-5.681,-5.681,-5.7087,0.0,0.0,-5.9008,0.0,0.0,0.0,0.0,0.0,0.0,0.0,0.0,0.0,0.0,0.0,0.0,0.0,-6.4703,-6.4672,-6.4888,-6.4703,-6.458,-6.458,-6.458,-6.458,-6.458,-6.4795,-6.4888,-6.4888,-6.4888,-6.4888,-6.4888,-6.4888,0.0,0.0,-6.4888,-6.4888,-6.4888,-6.4888,-6.418,-6.3102,-6.2887,-6.2086,-6.1071,-6.0886,-6.0794,-6.0794,-6.0794,-6.0794,-6.0794,-6.0794,-6.0794,-6.0794,-6.0794,-6.0794,-6.0794,-6.0794,-6.0794,-6.0794,-6.0794,-6.0794,-6.0794,-6.0794,-6.0794,-6.0794,-6.0794,-6.0794,-6.0794,-6.0794,-6.0393,-5.987,-5.9193,-5.8034,-5.6829,-5.5913,-5.5138,-5.456,-5.4355,-5.3964,-5.3756,-5.3756,-5.4274,-5.5018,-5.5819,-5.5899,-5.6145,-5.6761,-5.681,-5.681,-5.681,-5.681,-5.681,-5.681,-5.681,-5.681,-5.681,-5.681,-5.681,-5.3529,-5.416,-5.4884,-5.553,-5.6207,-5.681,0.0,0.0,0.0,-5.681,-5.681,-5.681,-5.681,-5.681,-5.7241,-5.8547,-5.8793,0.0,0.0,0.0,0.0,0.0,0.0,0.0,0.0,0.0,0.0,0.0,0.0,0.0,0.0,-6.4241,-6.418,-6.4888,-6.421,-6.3787,-6.3787,-6.3787,-6.3787,-6.3841,-6.4549,-6.4888,-6.4888,-6.4888,-6.4888,0.0,0.0,0.0,0.0,-6.4888,-6.4888,-6.4888,-6.4888,-6.4457,-6.3749,-6.3071,-6.2394,-6.1686,-6.104,-6.0794,-6.0794,-6.0794,-6.0794,-6.0794,-6.0794,-6.0794,-6.0794,-6.0794,-6.0794,-6.0794,-6.0794,-6.0794,-6.0794,-6.0794,-6.0794,-6.0794,-6.0794,-6.0794,-6.0794,-6.0794,-6.0794,-6.0794,-6.0794,-6.0794,-6.0547,-5.987,-5.9193,-5.8215,-5.6707,-5.5892,-5.517,-5.4406,-5.5018,-5.5471,-5.5471,-5.5471,-5.5849,-5.6713,-5.6761,-5.681,-5.681,-5.681,-5.681,-5.681,-5.681,-5.681,-5.681,-5.681,-5.681,-5.681,-5.681,-5.681,-5.3529,-5.416,-5.4837,-5.553,-5.6238,-5.681,-5.681,0.0,0.0,-5.681,-5.681,-5.681,-5.681,-5.681,-5.7241,-5.8547,-5.8442,-5.8485,0.0,0.0,0.0,0.0,0.0,0.0,0.0,0.0,0.0,0.0,0.0,0.0,0.0,-6.3964,-6.3933,-6.4149,-6.3502,-6.3133,-6.3133,-6.3133,-6.3133,-6.3133,-6.3379,-6.3472,-6.3502,-6.3964,-6.418,0.0,0.0,0.0,0.0,-6.4888,-6.4888,-6.4888,-6.4888,-6.418,-6.3102,-6.2887,-6.2086,-6.1101,-6.0886,-6.0794,-6.0794,-6.0794,-6.0794,-6.0794,-6.0794,-6.0794,-6.0794,-6.0794,-6.0794,-6.0794,-6.0794,-6.0794,-6.0794,-6.0794,-6.0794,-6.0794,-6.0794,-6.0794,-6.0794,-6.0794,-6.0794,-6.0794,-6.0794,-6.0794,-6.0578,-5.9901,-5.9224,-5.8466,-5.7492,-5.6819,-5.6293,-5.6047,-5.6244,-5.6145,-5.5571,-5.6047,-5.6519,-5.6761,-5.681,-5.681,-5.681,-5.681,-5.681,-5.681,-5.681,-5.681,-5.681,-5.681,-5.681,-5.681,-5.681,-5.681,0.0,-5.4576,-5.5253,-5.593,-5.6471,0.0,0.0,0.0,0.0,0.0,-5.681,-5.681,-5.681,-5.681,-5.7241,-5.8547,-5.8258,0.0,0.0,0.0,0.0,0.0,0.0,0.0,0.0,0.0,0.0,0.0,0.0,0.0,0.0,-6.3349,-6.3071,-6.3071,-6.2641,-6.2425,-6.2425,-6.2425,-6.2425,-6.2456,-6.2702,-6.2825,-6.2825,-6.3256,-6.3595,0.0,0.0,0.0,0.0,-6.4888,-6.4888,-6.4857,-6.4611,-6.381,-6.2794,-6.2517,-6.1748,-6.0794,-6.0794,-6.0794,-6.0794,-6.0794,-6.0794,-6.0794,-6.0794,-6.0794,-6.0794,-6.0794,-6.0794,-6.0794,-6.0794,-6.0794,-6.0794,-6.0794,-6.0794,-6.0794,-6.0794,-6.0794,-6.0794,-6.0794,-6.0794,-6.0794,-6.0794,-6.0794,-6.0671,-6.024,-5.9593,-5.8916,-5.8239,-5.7611,-5.7087,-5.684,-5.681,-5.6616,-5.6047,-5.6488,-5.681,-5.681,-5.681,-5.681,-5.681,-5.681,-5.681,-5.681,-5.681,-5.681,-5.681,-5.681,-5.681,-5.681,-5.681,-5.681,0.0,0.0,0.0,0.0,0.0,0.0,0.0,0.0,0.0,0.0,0.0,0.0,0.0,-5.681,-5.7241,-5.8547,-5.8177,0.0,0.0,0.0,0.0,0.0,0.0,0.0,0.0,0.0,0.0,0.0,0.0,0.0,0.0,-6.2487,-6.1779,-6.1748,-6.1748,-6.1748,-6.1748,-6.1748,-6.1748,-6.1748,-6.2364,-6.2671,-6.2671,-6.2733,-6.3071,0.0,0.0,0.0,0.0,-6.4826,-6.4826,-6.4764,-6.4026,-6.3349,-6.2671,-6.2025,-6.1379,-6.0794,-6.0794,-6.0794,-6.0794,-6.0794,-6.0794,-6.0794,-6.0794,-6.0794,-6.0794,-6.0794,-6.0794,-6.0794,-6.0794,-6.0794,-6.0794,-6.0794,-6.0794,-6.0794,-6.0794,-6.0794,-6.0794,-6.0794,-6.0794,-6.0794,-6.0794,-6.0794,-6.0794,-6.0794,-6.0209,-5.9562,-5.8885,-5.8177,-5.7549,-5.6871,-5.681,-5.681,-5.681,-5.681,-5.681,-5.681,-5.681,-5.681,-5.681,-5.681,-5.681,-5.681,-5.681,-5.681,-5.681,-5.681,-5.681,-5.681,-5.681,-5.681,-5.4652,0.0,-5.5869,-5.6625,-5.681,0.0,0.0,0.0,0.0,0.0,0.0,0.0,0.0,0.0,0.0,0.0,0.0,0.0,0.0,0.0,0.0,0.0,0.0,0.0,0.0,0.0,0.0,0.0,0.0,0.0,0.0,-6.1994,-6.1563,-6.104,-6.104,-6.104,-6.104,-6.104,-6.104,-6.104,-6.1194,-6.1286,-6.1286,-6.1809,-6.2148,0.0,0.0,0.0,-6.4087,-6.4087,-6.4087,-6.3995,-6.3318,-6.2641,-6.2025,-6.1871,-6.1379,-6.0794,-6.0794,-6.0794,-6.0794,-6.0794,-6.0794,-6.0794,-6.0794,-6.0794,-6.0794,-6.0794,-6.0794,-6.0794,-6.0794,-6.0794,-6.0794,-6.0794,-6.0794,-6.0794,-6.0794,-6.0794,-6.0794,-6.0794,-6.0794,-6.0794,-6.0794,-6.0794,-6.0794,-6.0794,-6.0209,-5.9562,-5.8885,-5.8177,-5.7549,-5.6871,-5.681,-5.681,-5.681,-5.681,-5.681,-5.681,-5.681,-5.681,-5.681,-5.681,-5.681,-5.681,-5.681,-5.681,-5.681,-5.681,-5.681,-5.681,-5.681,-5.681,-5.4683,-5.5438,-5.6269,-5.6717,-5.681,-5.681,0.0,0.0,0.0,0.0,0.0,0.0,0.0,0.0,0.0,0.0,0.0,0.0,0.0,0.0,0.0,0.0,0.0,0.0,0.0,0.0,0.0,0.0,0.0,0.0,0.0,-6.1502,-6.1163,-6.0824,-6.0794,-6.0794,-6.0794,-6.0794,-6.0794,-6.0794,-6.0794,-6.0794,-6.0824,-6.1194,-6.1502,0.0,0.0,0.0,-6.3349,-6.3349,-6.3349,-6.3287,-6.261,-6.2148,-6.1779,-6.144,-6.1101,-6.0794,-6.0794,-6.0794,-6.0794,-6.0794,-6.0794,-6.0794,-6.0794,-6.0794,-6.0794,-6.0794,-6.0794,-6.0794,-6.0794,-6.0794,-6.0794,-6.0794,-6.0794,-6.0794,-6.0794,-6.0794,-6.0794,-6.0794,-6.0794,-6.0794,-6.0794,-6.0794,-6.0794,-6.0794,-6.0486,-5.9901,-5.8916,-5.8454,-5.7919,-5.6902,-5.681,-5.681,-5.681,-5.681,-5.681,-5.681,-5.681,-5.681,-5.681,-5.681,-5.681,-5.681,-5.681,-5.681,-5.681,-5.681,-5.681,-5.681,-5.681,-5.681,-5.4683,-5.5715,-5.681,-5.681,-5.681,-5.681,0.0,0.0,0.0,0.0,0.0,0.0,0.0,0.0,0.0,0.0,0.0,0.0,0.0,0.0,0.0,0.0,0.0,0.0,0.0,0.0,0.0,0.0,0.0,0.0,0.0,-6.1101,-6.0794,-6.0794,-6.0794,-6.0794,-6.0794,-6.0794,-6.0794,-6.0794,-6.0794,-6.0794,-6.0794,-6.0794,-6.1101,-6.1656,0.0,0.0,-6.2671,-6.2671,-6.2671,-6.2579,-6.1933,-6.1656,-6.1594,-6.1009,-6.0794,-6.0794,-6.0794,-6.0794,-6.0794,-6.0794,-6.0794,-6.0794,-6.0794,-6.0794,-6.0794,-6.0794,-6.0794,-6.0794,-6.0794,-6.0794,-6.0794,-6.0794,-6.0794,-6.0794,-6.0794,-6.0794,-6.0794,-6.0794,-6.0794,-6.0794,-6.0794,-6.0794,-6.0794,-6.0794,-6.0794,-6.0332,-5.9101,-5.8854,-5.835,-5.7087,-5.6871,-5.681,-5.681,-5.681,-5.681,-5.681,-5.681,-5.681,-5.681,-5.681,-5.681,-5.681,-5.681,-5.681,-5.681,-5.681,-5.681,-5.681,-5.681,-5.681,-5.4683,-5.5715,-5.681,-5.681,-5.681,-5.681,0.0,0.0,0.0,0.0,0.0,0.0,0.0,0.0,0.0,0.0,0.0,0.0,0.0,0.0,0.0,0.0,0.0,0.0,0.0,0.0,0.0,0.0,0.0,0.0,0.0,-6.0855,-6.0794,-6.0794,-6.0794,-6.0794,-6.0794,-6.0794,-6.0794,-6.0794,-6.0794,-6.0794,-6.0794,-6.0794,-6.0855,-6.0978,0.0,-6.1871,-6.1963,-6.1963,-6.1963,-6.1902,-6.1225,-6.0948,-6.0948,-6.0824,-6.0794,-6.0794,-6.0794,-6.0794,-6.0794,-6.0794,-6.0794,-6.0794,-6.0794,-6.0794,-6.0794,-6.0794,-6.0794,-6.0794,-6.0794,-6.0794,-6.0794,-6.0794,-6.0794,-6.0794,-6.0794,-6.0794,-6.0794,-6.0794,-6.0794,-6.0794,-6.0794,-6.0794,-6.0794,-6.0794,-6.0794,-6.0517,-5.9747,-5.9131,-5.8485,-5.7734,-5.7148,-5.681,-5.681,-5.681,-5.681,-5.681,-5.681,-5.681,-5.681,-5.681,-5.681,-5.681,-5.681,-5.681,-5.681,-5.681,-5.681,-5.681,-5.681,-5.681,-5.4683,-5.5715,-5.681,-5.681,-5.681,-5.681,0.0,0.0,0.0,0.0,0.0,0.0,0.0,0.0,0.0,0.0,0.0,0.0,0.0,0.0,0.0,0.0,0.0,0.0,0.0,0.0,0.0,0.0,0.0,0.0,0.0,0.0,-6.0794,-6.0794,-6.0794,-6.0794,-6.0794,-6.0794,-6.0794,-6.0794,-6.0794,-6.0794,-6.0794,-6.0794,-6.0794,-6.0824,0.0,-6.1255,-6.1255,-6.1255,-6.1255,-6.1225,-6.0917,-6.0794,-6.0794,-6.0794,-6.0794,-6.0794,-6.0794,-6.0794,-6.0794,-6.0794,-6.0794,-6.0794,-6.0794,-6.0794,-6.0794,-6.0794,-6.0794,-6.0794,-6.0794,-6.0794,-6.0794,-6.0794,-6.0794,-6.0794,-6.0794,-6.0794,-6.0794,-6.0794,-6.0794,-6.0794,-6.0794,-6.0794,-6.0794,-6.0794,-6.0794,-6.0547,-5.987,-5.9193,-5.8516,-5.7888,-5.721,-5.681,-5.681,-5.681,-5.681,-5.681,-5.681,-5.681,-5.681,-5.681,-5.681,-5.681,-5.681,-5.681,-5.681,-5.681,-5.681,-5.681,-5.681,-5.681,-5.4683,-5.5715,-5.681,-5.681,0.0,-5.681,-5.681,0.0,0.0,0.0,0.0,0.0,0.0,0.0,0.0,0.0,0.0,0.0,0.0,0.0,0.0,0.0,0.0,0.0,0.0,0.0,0.0,0.0,0.0,0.0,0.0,0.0,-6.0794,-6.0794,-6.0794,-6.0794,-6.0794,-6.0794,-6.0794,-6.0794,-6.0742,-6.069,-6.069,-6.069,-6.069,-6.069,-6.0794,-6.0794,-6.0794,-6.0794,-6.0794,-6.0794,-6.0794,-6.0794,-6.0794,-6.0794,-6.0794,-6.0794,-6.0794,-6.0794,-6.0794,-6.0794,-6.0794,-6.0794,-6.0794,-6.0794,-6.0794,-6.0794,-6.0794,-6.0794,-6.0794,-6.0794,-6.0794,-6.0794,-6.0794,-6.0794,-6.0794,-6.0794,-6.0794,-6.0794,-6.0794,-6.0794,-6.0794,-6.0794,-6.0794,-6.0794,-6.0794,-6.0609,-6.0086,-5.9285,-5.8577,-5.8104,-5.7303,-5.681,-5.681,-5.681,-5.681,-5.681,-5.681,-5.681,-5.681,-5.681,-5.681,-5.681,-5.681,-5.681,-5.681,-5.681,-5.681,-5.681,-5.681,-5.681,-5.4683,-5.5715,-5.681,-5.681,0.0,0.0,-5.681,0.0,0.0,0.0,0.0,0.0,0.0,0.0,0.0,0.0,0.0,0.0,0.0,0.0,0.0,0.0,0.0,0.0,0.0,0.0,0.0,0.0,0.0,0.0,0.0,0.0,0.0,-6.0794,-6.0794,-6.0794,-6.0794,-6.0794,-6.0794,-6.0794,-6.0534,-6.0429,-6.0429,-6.0429,-6.0429,-6.0429,-6.069,-6.0794,-6.0794,-6.0794,-6.0794,-6.0794,-6.0794,-6.0794,-6.0794,-6.0794,-6.0794,-6.0794,-6.0794,-6.0794,-6.0794,-6.0794,-6.0794,-6.0794,-6.0794,-6.0794,-6.0794,-6.0794,-6.0794,-6.0794,-6.0794,-6.0794,-6.0794,-6.0794,-6.0794,-6.0794,-6.0794,-6.0794,-6.0794,-6.0794,-6.0794,-6.0794,-6.0794,-6.0794,-6.0794,-6.0794,-6.0794,-6.0794,-6.0732,-5.9593,-5.8762,-5.8701,-5.758,-5.681,-5.681,-5.681,-5.681,-5.681,-5.681,-5.681,-5.681,-5.681,-5.681,-5.681,-5.681,-5.681,-5.681,-5.681,-5.681,-5.681,-5.681,-5.681,-5.4683,-5.5715,-5.681,-5.681,0.0,0.0,0.0,0.0,0.0,0.0,0.0,0.0,0.0,0.0,0.0,0.0,0.0,0.0,0.0,0.0,0.0,0.0,0.0,0.0,0.0,0.0,0.0,0.0,0.0,0.0,0.0,0.0,0.0,-6.0794,-6.0794,-6.0794,-6.0794,-6.0794,-6.0794,-6.0794,-6.069,-6.0534,-6.0429,-6.0586,-6.0534,-6.0429,-6.069,-6.0794,-6.0794,-6.0794,-6.0794,-6.0794,-6.0794,-6.0794,-6.0794,-6.0794,-6.0794,-6.0794,-6.0794,-6.0794,-6.0794,-6.0794,-6.0794,-6.0794,-6.0794,-6.0794,-6.0794,-6.0794,-6.0794,-6.0794,-6.0794,-6.0794,-6.0794,-6.0794,-6.0794,-6.0794,-6.0794,-6.0794,-6.0794,-6.0794,-6.0794,-6.0794,-6.0794,-6.0794,-6.0794,-6.0794,-6.0794,-6.0794,-6.0794,-5.9993,-5.9255,-5.8824,-5.7611,-5.681,-5.681,-5.681,-5.681,-5.681,-5.681,-5.681,-5.681,-5.681,-5.681,-5.681,-5.681,-5.681,-5.681,-5.681,-5.681,-5.681,-5.681,-5.681,-5.4838,-5.5951,-5.7258,0.0,0.0,0.0,0.0,0.0,0.0,0.0,0.0,0.0,0.0,0.0,0.0,0.0,0.0,0.0,0.0,0.0,0.0,0.0,0.0,0.0,0.0,0.0,0.0,0.0,0.0,0.0,0.0,0.0,0.0,0.0,-6.0794,-6.0794,-6.0794,-6.0794,-6.0794,-6.0794,-6.0794,-6.0586,-6.0302,-6.0534,-6.0534,-6.0272,-6.0638,-6.0794,-6.0794,-6.0794,-6.0794,-6.0794,-6.0794,-6.0794,-6.0794,-6.0794,-6.0794,-6.0794,-6.0794,-6.0794,-6.0794,-6.0794,-6.0794,-6.0794,-6.0794,-6.0794,-6.0794,-6.0794,-6.0794,-6.0794,-6.0794,-6.0794,-6.0794,-6.0794,-6.0794,-6.0794,-6.0794,-6.0794,-6.0794,-6.0794,-6.0794,-6.0794,-6.0794,-6.0794,-6.0794,-6.0794,-6.0794,-6.0794,-6.0794,-6.0209,-5.9439,-5.8547,-5.7487,-5.681,-5.681,-5.681,-5.681,-5.681,-5.681,-5.681,-5.681,-5.681,-5.681,-5.681,-5.681,-5.681,-5.681,-5.681,-5.681,-5.681,-5.681,-5.681,-5.5223,-5.6435,0.0,0.0,0.0,0.0,0.0,0.0,0.0,0.0,0.0,0.0,0.0,0.0,0.0,0.0,0.0,0.0,0.0,0.0,0.0,0.0,0.0,0.0,0.0,0.0,0.0,0.0,0.0,0.0,0.0,0.0,0.0,0.0,-6.0794,-6.0763,-6.0763,-6.0763,-6.0794,-6.0794,-6.0794,-6.0481,-6.0016,-6.0302,-6.025,-6.0039,-6.0564,-6.0794,-6.0794,-6.0794,-6.0794,-6.0794,-6.0794,-6.0794,-6.0794,-6.0794,-6.0794,-6.0794,-6.0794,-6.0794,-6.0794,-6.0794,-6.0794,-6.0794,-6.0794,-6.0794,-6.0794,-6.0794,-6.0794,-6.0794,-6.0794,-6.0794,-6.0794,-6.0794,-6.0794,-6.0794,-6.0794,-6.0794,-6.0794,-6.0794,-6.0794,-6.0794,-6.0794,-6.0794,-6.0794,-6.0794,-6.0794,-6.0794,-6.0794,-6.0209,-5.9285,-5.798,-5.7241,-5.681,-5.681,-5.681,-5.681,-5.681,-5.681,-5.681,-5.681,-5.681,-5.681,-5.681,-5.681,-5.681,-5.681,-5.681,-5.681,-5.681,-5.681,-5.681,-5.6776,0.0,0.0,0.0,0.0,0.0,0.0,0.0,0.0,0.0,0.0,0.0,0.0,0.0,0.0,0.0,0.0,0.0,0.0,0.0,0.0,0.0,0.0,0.0,0.0,0.0,0.0,0.0,0.0,0.0,0.0,0.0,0.0,0.0,-5.9624,-5.9378,-5.9378,-5.9378,-5.9522,-5.9829,-5.9829,-5.997,-6.0302,-6.0534,-6.0534,-6.0272,-6.0638,-6.0794,-6.0794,-6.0794,-6.0794,-6.0794,-6.0794,-6.0794,-6.0794,-6.0794,-6.0794,-6.0794,-6.0794,-6.0794,-6.0794,-6.0794,-6.0794,-6.0794,-6.0794,-6.0794,-6.0794,-6.0794,-6.0794,-6.0794,-6.0794,-6.0794,-6.0794,-6.0794,-6.0794,-6.0794,-6.0794,-6.0794,-6.0794,-6.0794,-6.0794,-6.0794,-6.0794,-6.0794,-6.0794,-6.0794,-6.0794,-6.0794,-6.0794,-6.0209,-5.9439,-5.8577,-5.7919,-5.7333,-5.684,-5.681,-5.681,-5.681,-5.681,-5.681,-5.681,-5.681,-5.681,-5.681,-5.681,-5.681,-5.681,-5.681,-5.681,-5.681,-5.681,-5.681,-5.753,0.0,0.0,0.0,0.0,0.0,0.0,0.0,0.0,0.0,0.0,0.0,0.0,0.0,0.0,0.0,0.0,0.0,0.0,0.0,0.0,0.0,0.0,0.0,0.0,0.0,0.0,0.0,0.0,0.0,0.0,0.0,0.0,0.0,-5.9008,-5.8793,-5.8793,-5.8793,-5.8877,-5.8971,-5.8971,-5.9185,-5.9664,-6.034,-6.0534,-6.0429,-6.069,-6.0794,-6.0794,-6.0794,-6.0794,-6.0794,-6.0794,-6.0794,-6.0794,-6.0794,-6.0794,-6.0794,-6.0794,-6.0794,-6.0794,-6.0794,-6.0794,-6.0794,-6.0794,-6.0794,-6.0794,-6.0794,-6.0794,-6.0794,-6.0794,-6.0794,-6.0794,-6.0794,-6.0794,-6.0794,-6.0794,-6.0794,-6.0794,-6.0794,-6.0794,-6.0794,-6.0794,-6.0794,-6.0794,-6.0794,-6.0794,-6.0794,-6.0794,-6.0209,-5.9532,-5.8854,-5.8177,-5.7549,-5.6871,-5.681,-5.681,-5.681,-5.681,-5.681,-5.681,-5.681,-5.681,-5.681,-5.681,-5.681,-5.681,-5.681,-5.681,-5.681,-5.681,-5.681,0.0,0.0,0.0,0.0,0.0,0.0,0.0,0.0,0.0,0.0,0.0,0.0,0.0,0.0,0.0,0.0,0.0,0.0,0.0,0.0,0.0,0.0,0.0,0.0,0.0,0.0,0.0,0.0,0.0,0.0,0.0,0.0,0.0,-5.8701,-5.8639,-5.8608,-5.8608,-5.8577,-5.8458,-5.8267,-5.8267,-5.8298,-5.842,-5.9704,-6.0368,-6.0429,-6.069,-6.0794,-6.0794,-6.0794,-6.0794,-6.0794,-6.0794,-6.0794,-6.0794,-6.0794,-6.0794,-6.0794,-6.0794,-6.0794,-6.0794,-6.0794,-6.0794,-6.0794,-6.0794,-6.0794,-6.0794,-6.0794,-6.0794,-6.0794,-6.0794,-6.0794,-6.0794,-6.0794,-6.0794,-6.0794,-6.0794,-6.0794,-6.0794,-6.0794,-6.0794,-6.0794,-6.0794,-6.0794,-6.0794,-6.0794,-6.0794,-6.0794,-6.0794,-6.027,-5.9624,-5.8947,-5.827,-5.7641,-5.6964,-5.684,-5.681,-5.681,-5.681,-5.681,-5.681,-5.681,-5.681,-5.681,-5.681,-5.681,-5.681,-5.681,-5.681,-5.681,-5.681,-5.681,0.0,0.0,0.0,0.0,0.0,0.0,0.0,0.0,0.0,0.0,0.0,0.0,0.0,0.0,0.0,0.0,0.0,0.0,0.0,0.0,0.0,0.0,0.0,0.0,0.0,0.0,0.0,0.0,0.0,0.0,0.0,0.0,0.0,-5.7993,-5.7518,-5.7241,-5.7241,-5.6997,-5.6995,0.0,-5.7233,-5.7537,-5.8085,-5.9164,-6.0043,-6.069,-6.0794,-6.0794,-6.0794,-6.0794,-6.0794,-6.0794,-6.0794,-6.0794,-6.0794,-6.0794,-6.0794,-6.0794,-6.0794,-6.0794,-6.0794,-6.0794,-6.0794,-6.0794,-6.0794,-6.0794,-6.0794,-6.0794,-6.0794,-6.0794,-6.0794,-6.0794,-6.0794,-6.0794,-6.0794,-6.0794,-6.0794,-6.0794,-6.0794,-6.0794,-6.0794,-6.0794,-6.0794,-6.0794,-6.0794,-6.0794,-6.0794,-6.0794,-6.0794,-6.0671,-6.0332,-5.9655,-5.8978,-5.83,-5.7672,-5.7118,-5.681,-5.681,-5.681,-5.681,-5.681,-5.681,-5.681,-5.681,-5.681,-5.681,-5.681,-5.681,-5.681,-5.681,-5.681,-5.681,0.0,0.0,0.0,0.0,0.0,0.0,0.0,0.0,0.0,0.0,0.0,0.0,0.0,0.0,0.0,0.0,0.0,0.0,0.0,0.0,0.0,0.0,0.0,0.0,0.0,0.0,0.0,0.0,0.0,0.0,0.0,-5.8011,-5.7672,-5.7364,-5.6994,-5.681,-5.681,-5.6664,-5.6525,-5.6464,-5.6464,-5.6829,-5.7578,-5.8655,-5.9553,-6.0301,-6.0301,-6.0486,-6.0794,-6.0794,-6.0794,-6.0794,-6.0794,-6.0794,-6.0794,-6.0794,-6.0794,-6.0794,-6.0794,-6.0794,-6.0794,-6.0794,-6.0794,-6.0794,-6.0794,-6.0794,-6.0794,-6.0794,-6.0794,-6.0794,-6.0794,-6.0794,-6.0794,-6.0794,-6.0794,-6.0794,-6.0794,-6.0794,-6.0794,-6.0794,-6.0794,-6.0794,-6.0794,-6.0794,-6.0794,-6.0794,-6.0794,-6.0794,-6.0794,-6.0794,-6.0547,-5.987,-5.9193,-5.8516,-5.7888,-5.721,-5.681,-5.681,-5.681,-5.681,-5.681,-5.681,-5.681,-5.681,-5.681,-5.681,-5.681,-5.681,-5.681,-5.681,-5.681,-5.681,0.0,0.0,0.0,0.0,0.0,0.0,0.0,0.0,0.0,0.0,0.0,0.0,0.0,0.0,0.0,0.0,0.0,0.0,0.0,0.0,0.0,0.0,0.0,0.0,0.0,0.0,0.0,0.0,0.0,0.0,-5.8128,-5.7952,-5.7607,-5.705,-5.6906,-5.681,-5.681,-5.6761,-5.6519,-5.6077,-5.6077,-5.6382,-5.6929,-5.7978,-5.8854,-5.9624,-5.9624,-5.9993,-6.064,-6.064,-6.0701,-6.0794,-6.0794,-6.0794,-6.0794,-6.0794,-6.0794,-6.0794,-6.0794,-6.0794,-6.0794,-6.0794,-6.0794,-6.0794,-6.0794,-6.0794,-6.0794,-6.0794,-6.0794,-6.0794,-6.0794,-6.0794,-6.0794,-6.0794,-6.0794,-6.0794,-6.0794,-6.0794,-6.0794,-6.0794,-6.0794,-6.0794,-6.0794,-6.0794,-6.0794,-6.0794,-6.0794,-6.0794,-6.0794,-6.0794,-6.0578,-6.0024,-5.9347,-5.867,-5.8042,-5.7364,-5.6933,-5.681,-5.681,-5.681,-5.681,-5.681,-5.681,-5.681,-5.681,-5.681,-5.681,-5.681,-5.681,-5.681,-5.681,-5.681,0.0,0.0,0.0,0.0,0.0,0.0,0.0,0.0,0.0,0.0,0.0,0.0,0.0,0.0,0.0,0.0,0.0,0.0,0.0,0.0,0.0,0.0,0.0,0.0,0.0,0.0,0.0,0.0,0.0,0.0,-5.9382,-5.8614,-5.8121,-5.8026,-5.7211,-5.681,-5.681,-5.6567,-5.6421,-5.6372,-5.6372,-5.6403,-5.6494,-5.6879,-5.7765,-5.8916,-5.8916,-5.9285,-5.9932,-5.9932,-6.027,-6.0794,-6.0794,-6.0794,-6.0794,-6.0794,-6.0794,-6.0794,-6.0794,-6.0794,-6.0794,-6.0794,-6.0794,-6.0794,-6.0794,-6.0794,-6.0794,-6.0794,-6.0794,-6.0794,-6.0794,-6.0794,-6.0794,-6.0794,-6.0794,-6.0794,-6.0794,-6.0794,-6.0794,-6.0794,-6.0794,-6.0794,-6.0794,-6.0794,-6.0794,-6.0794,-6.0794,-6.0794,-6.0794,-6.0794,-6.0763,-6.0671,-6.0055,-5.9378,-5.8701,-5.8073,-5.7426,-5.684,-5.681,-5.681,-5.681,-5.681,-5.681,-5.681,-5.681,-5.681,-5.681,-5.681,-5.681,-5.681,-5.681,-5.681,0.0,0.0,0.0,0.0,0.0,0.0,0.0,0.0,0.0,0.0,0.0,0.0,0.0,0.0,0.0,0.0,0.0,0.0,0.0,0.0,0.0,0.0,0.0,0.0,0.0,0.0,0.0,0.0,0.0,-5.9943,-5.9619,-5.9222,-5.8998,-5.8998,-5.8592,-5.8363,-5.8363,-5.8102,-5.787,-5.773,-5.773,-5.7824,-5.7963,-5.7559,-5.769,-5.8258,-5.8258,-5.8608,-5.9255,-5.9624,-5.9963,-6.027,-6.064,-6.0794,-6.0794,-6.0794,-6.0794,-6.0794,-6.0794,-6.0794,-6.0794,-6.0794,-6.0794,-6.0794,-6.0794,-6.0794,-6.0794,-6.0794,-6.0794,-6.0794,-6.0794,-6.0794,-6.0794,-6.0794,-6.0794,-6.0794,-6.0794,-6.0794,-6.0794,-6.0794,-6.0794,-6.0794,-6.0794,-6.0794,-6.0794,-6.0794,-6.0794,-6.0794,-6.0794,-6.0794,-6.0794,-6.0794,-5.9839,-5.9101,-5.8824,-5.7857,-5.7118,-5.684,-5.681,-5.681,-5.681,-5.681,-5.681,-5.681,-5.681,-5.681,-5.681,-5.681,-5.681,-5.681,-5.681,-5.681,0.0,0.0,0.0,0.0,0.0,0.0,0.0,0.0,0.0,0.0,0.0,0.0,0.0,0.0,0.0,0.0,0.0,0.0,0.0,0.0,0.0,0.0,0.0,0.0,0.0,0.0,0.0,0.0,0.0,-6.0279,-6.0279,-6.0065,-5.9968,-5.9968,-5.9718,-5.9587,-5.9587,-5.9411,-5.9157,-5.8812,-5.8947,-5.9068,-5.9157,-5.8286,-5.7887,-5.789,-5.7647,-5.7949,-5.8547,-5.907,-5.9378,-5.9593,-6.027,-6.0547,-6.0578,-6.0732,-6.0794,-6.0794,-6.0794,-6.0794,-6.0794,-6.0794,-6.0794,-6.0794,-6.0794,-6.0794,-6.0794,-6.0794,-6.0794,-6.0794,-6.0794,-6.0794,-6.0794,-6.0794,-6.0794,-6.0794,-6.0794,-6.0794,-6.0794,-6.0794,-6.0794,-6.0794,-6.0794,-6.0794,-6.0794,-6.0794,-6.0794,-6.0794,-6.0794,-6.0794,-6.0794,-6.0794,-5.9747,-5.8978,-5.8793,-5.7734,-5.6994,-5.681,-5.681,-5.681,-5.681,-5.681,-5.681,-5.681,-5.681,-5.681,-5.681,-5.681,-5.681,-5.681,-5.681,-5.681,0.0,0.0,0.0,0.0,0.0,0.0,0.0,0.0,0.0,0.0,0.0,0.0,0.0,0.0,0.0,0.0,0.0,0.0,0.0,0.0,0.0,0.0,0.0,0.0,0.0,0.0,0.0,0.0,0.0,-6.2263,-6.2263,-6.1432,-6.0945,-6.0945,-6.0065,-5.9587,-5.9587,-5.9587,-5.929,-5.8812,-5.9323,-5.9455,-5.9157,-5.8501,-5.8197,-5.8136,-5.7225,-5.7241,-5.7857,-5.7919,-5.8288,-5.8885,-5.9562,-5.9839,-5.9932,-6.0578,-6.0794,-6.0794,-6.0794,-6.0794,-6.0794,-6.0794,-6.0794,-6.0794,-6.0794,-6.0794,-6.0794,-6.0794,-6.0794,-6.0794,-6.0794,-6.0794,-6.0794,-6.0794,-6.0794,-6.0794,-6.0794,-6.0794,-6.0794,-6.0794,-6.0794,-6.0794,-6.0794,-6.0794,-6.0794,-6.0794,-6.0794,-6.0794,-6.0794,-6.0794,-6.0794,-6.0794,-6.0178,-5.947,-5.8824,-5.8165,-5.7487,-5.684,-5.681,-5.681,-5.681,-5.681,-5.681,-5.681,-5.681,-5.681,-5.681,-5.681,-5.681,-5.681,-5.681,-5.681,0.0,0.0,0.0,0.0,0.0,0.0,0.0,0.0,0.0,0.0,0.0,0.0,0.0,0.0,0.0,0.0,0.0,0.0,0.0,0.0,0.0,0.0,0.0,0.0,0.0,0.0,0.0,0.0,0.0,0.0,-6.2381,-6.207,-6.1911,-6.1911,-6.1554,-6.1317,-6.1119,-6.1317,-6.1193,-6.087,-6.1036,-6.1193,-6.1235,-6.0194,-5.9849,-5.9935,-5.9011,-5.8059,-5.721,-5.7641,-5.7949,-5.8208,-5.8885,-5.9408,-5.989,-6.0568,-6.0794,-6.0794,-6.0794,-6.0794,-6.0794,-6.0794,-6.0794,-6.0794,-6.0794,-6.0794,-6.0794,-6.0794,-6.0794,-6.0794,-6.0794,-6.0794,-6.0794,-6.0794,-6.0794,-6.0794,-6.0794,-6.0794,-6.0794,-6.0794,-6.0794,-6.0794,-6.0794,-6.0794,-6.0794,-6.0794,-6.0794,-6.0794,-6.0794,-6.0794,-6.064,-6.0178,-5.9562,-5.8885,-5.8227,-5.7549,-5.7056,-5.684,-5.681,-5.681,-5.681,-5.681,-5.681,-5.681,-5.681,-5.681,-5.681,-5.681,-5.681,-5.681,-5.681,-5.681,0.0,0.0,0.0,0.0,0.0,0.0,0.0,0.0,0.0,0.0,0.0,0.0,0.0,0.0,0.0,0.0,0.0,0.0,0.0,0.0,0.0,0.0,0.0,0.0,0.0,0.0,0.0,0.0,0.0,0.0,-6.2381,-6.2381,-6.2381,-6.2381,-6.2381,-6.2268,-6.1997,-6.2302,-6.2263,-6.203,-6.211,-6.2229,-6.2341,-6.1235,-6.0828,-6.0945,-5.9979,-5.8728,-5.7289,-5.7755,-5.7748,-5.7549,-5.8177,-5.8731,-5.9274,-6.0392,-6.0599,-6.0403,-6.0701,-6.0794,-6.0794,-6.0794,-6.0794,-6.0794,-6.0794,-6.0794,-6.0794,-6.0794,-6.0794,-6.0794,-6.0794,-6.0794,-6.0794,-6.0794,-6.0794,-6.0794,-6.0794,-6.0794,-6.0794,-6.0794,-6.0794,-6.0794,-6.0794,-6.0794,-6.0794,-6.0794,-6.0794,-6.0701,-6.0486,-6.0455,-6.0209,-5.9532,-5.8854,-5.827,-5.7857,-5.721,-5.681,-5.681,-5.681,-5.681,-5.681,-5.681,-5.681,-5.681,-5.681,-5.681,-5.681,-5.681,-5.681,-5.681,-5.681,-5.681,0.0,0.0,0.0,0.0,0.0,0.0,0.0,0.0,0.0,0.0,0.0,0.0,0.0,0.0,0.0,0.0,0.0,0.0,0.0,0.0,0.0,0.0,0.0,0.0,0.0,0.0,0.0,0.0,0.0,-6.2381,-6.2381,-6.2381,-6.2381,-6.2381,-6.2381,-6.2302,-6.2037,-6.2268,-6.2268,-6.2037,-6.2302,-6.2381,-6.2381,-6.1473,-6.1028,-6.0986,-6.0065,-5.9177,-5.8303,-5.8211,-5.7653,-5.692,-5.7549,-5.7795,-5.8042,-6.002,-6.0208,-5.9645,-6.0517,-6.0794,-6.0794,-6.0794,-6.0794,-6.0794,-6.0794,-6.0794,-6.0794,-6.0794,-6.0794,-6.0794,-6.0794,-6.0794,-6.0794,-6.0794,-6.0794,-6.0794,-6.0794,-6.0794,-6.0794,-6.0794,-6.0794,-6.0794,-6.0794,-6.0794,-6.0794,-6.0763,-6.0763,-6.0517,-5.9839,-5.9747,-5.9501,-5.8824,-5.8227,-5.7795,-5.7795,-5.7179,-5.681,-5.681,-5.681,-5.681,-5.681,-5.681,-5.681,-5.681,-5.681,-5.681,-5.681,-5.681,-5.681,-5.681,-5.681,-5.681,-5.8863,0.0,0.0,0.0,0.0,0.0,0.0,0.0,0.0,0.0,0.0,0.0,0.0,0.0,0.0,0.0,0.0,0.0,0.0,0.0,0.0,0.0,0.0,0.0,0.0,0.0,0.0,0.0,-6.2381,-6.2381,-6.2381,-6.2381,-6.2381,-6.2381,-6.2381,-6.2381,-6.2302,-6.2341,-6.2341,-6.2302,-6.2381,-6.2381,-6.2381,-6.211,-6.1991,-6.1991,-6.175,-6.1069,-6.0108,-5.8773,-5.8026,-5.7778,-5.7284,-5.7395,-5.7869,-5.8589,-5.9521,-6.0444,-6.0722,-6.0794,-6.0794,-6.0794,-6.0794,-6.0794,-6.0794,-6.0794,-6.0794,-6.0794,-6.0794,-6.0794,-6.0794,-6.0794,-6.0794,-6.0794,-6.0794,-6.0794,-6.0794,-6.0794,-6.0794,-6.0794,-6.0794,-6.0794,-6.0794,-6.0794,-6.064,-6.0147,-6.0086,-5.9809,-5.9131,-5.907,-5.8793,-5.8165,-5.7919,-5.7611,-5.7118,-5.6933,-5.681,-5.681,-5.681,-5.681,-5.681,-5.681,-5.681,-5.681,-5.681,-5.681,-5.681,-5.681,-5.681,-5.681,-5.681,-5.681,-5.8423,0.0,0.0,0.0,0.0,0.0,0.0,-6.0452,0.0,0.0,0.0,0.0,0.0,0.0,0.0,0.0,0.0,0.0,0.0,0.0,0.0,0.0,0.0,0.0,0.0,0.0,0.0,-6.2381,-6.2381,-6.2381,-6.2381,-6.2381,-6.2381,-6.2381,-6.2381,-6.2381,-6.2381,-6.2381,-6.2381,-6.2381,-6.2381,-6.2381,-6.2381,-6.2381,-6.2381,-6.2381,-6.2381,-6.207,-6.1473,-5.9979,-5.9133,-5.8728,-5.818,-5.82,-5.8531,-5.8356,-5.9013,-6.0178,-6.1393,-6.1914,-6.2072,-6.2072,-6.1803,-6.143,-6.143,-6.1124,-6.0794,-6.0794,-6.0794,-6.0794,-6.0794,-6.0794,-6.0794,-6.0794,-6.0794,-6.0794,-6.0794,-6.0578,-6.0455,-6.0763,-6.0578,-6.0363,-6.0363,-6.0147,-5.9809,-5.9439,-5.9378,-5.9131,-5.8454,-5.8362,-5.8165,-5.7457,-5.7395,-5.7241,-5.684,-5.681,-5.681,-5.681,-5.681,-5.681,-5.681,-5.681,-5.681,-5.681,-5.681,-5.681,-5.681,-5.681,-5.681,-5.681,-5.681,-5.681,-5.7881,-5.7881,-5.8051,0.0,0.0,0.0,-5.9708,-5.9911,-5.9979,0.0,0.0,0.0,0.0,0.0,0.0,0.0,0.0,0.0,0.0,0.0,0.0,0.0,0.0,0.0,0.0,-6.2381,-6.2381,-6.2381,-6.2381,-6.2381,-6.2381,-6.2381,-6.2381,-6.2381,-6.2381,-6.2381,-6.2381,-6.2381,-6.2381,-6.2381,-6.2381,-6.2381,-6.2381,-6.2381,-6.2381,-6.2381,-6.2381,-6.2381,-6.2341,-6.1513,-6.0609,-5.9718,-5.9631,-5.9587,-5.9543,-5.9004,-5.8876,-5.9311,-6.2109,-6.3394,-6.3768,-6.369,-6.2987,-6.2121,-6.2121,-6.15,-6.0794,-6.0794,-6.0794,-6.0794,-6.0794,-6.0732,-6.0701,-6.0701,-6.064,-6.0578,-6.0578,-6.0116,-5.987,-6.0455,-6.0086,-5.9686,-5.9686,-5.9193,-5.8762,-5.867,-5.867,-5.8423,-5.7795,-5.7703,-5.7487,-5.6871,-5.681,-5.681,-5.681,-5.681,-5.681,-5.681,-5.681,-5.681,-5.681,-5.681,-5.681,-5.681,-5.681,-5.681,-5.681,-5.681,-5.681,-5.681,-5.681,-5.681,0.0,0.0,0.0,0.0,0.0,0.0,-5.8287,-5.8795,-5.9235,0.0,0.0,0.0,0.0,0.0,0.0,0.0,0.0,0.0,0.0,0.0,0.0,0.0,0.0,0.0,0.0,-6.2381,-6.2381,-6.2381,-6.2381,-6.2381,-6.2381,-6.2381,-6.2381,-6.2381,-6.2381,-6.2381,-6.2381,-6.2381,-6.2381,-6.2381,-6.2381,-6.2381,-6.2381,-6.2381,-6.2381,-6.2381,-6.2381,-6.2381,-6.2381,-6.2223,-6.1554,-6.0652,-5.9925,-5.9587,-5.9652,-6.0069,-5.989,-5.9666,-6.1185,-6.2588,-6.3725,-6.3167,-6.2144,-6.1072,-6.1072,-6.0949,-6.0794,-6.0794,-6.0794,-6.0794,-6.0794,-6.0393,-5.9993,-5.9993,-5.9562,-5.9162,-5.9162,-5.907,-5.9008,-5.9131,-5.907,-5.8978,-5.8978,-5.8885,-5.8608,-5.8104,-5.8011,-5.7765,-5.7087,-5.7025,-5.6964,-5.681,-5.681,-5.681,-5.681,-5.681,-5.681,-5.681,-5.681,-5.681,-5.681,-5.681,-5.681,-5.681,-5.681,-5.681,-5.681,-5.681,-5.681,-5.681,-5.681,-5.681,0.0,0.0,0.0,-5.7881,0.0,0.0,0.0,-5.8186,-5.8457,0.0,0.0,0.0,0.0,0.0,0.0,0.0,0.0,0.0,0.0,0.0,0.0,0.0,0.0,0.0,0.0,-6.2381,-6.2381,-6.2381,-6.2381,-6.2381,-6.2381,-6.2381,-6.2381,-6.2381,-6.2381,-6.2381,-6.2381,-6.2381,-6.2381,-6.2381,-6.2381,-6.2381,-6.2381,-6.2381,-6.2381,-6.2381,-6.2381,-6.2381,-6.2381,-6.2381,-6.211,-6.1635,-6.1152,-6.0986,-6.1053,-6.1342,-6.1282,-6.1136,-6.2235,-6.3153,-6.3756,-6.3186,-6.2564,-6.187,-6.1422,-6.0571,-5.9778,-5.9778,-5.9778,-5.9778,-5.9778,-5.9532,-5.9285,-5.9285,-5.9039,-5.8793,-5.8793,-5.8516,-5.827,-5.827,-5.7993,-5.7919,-5.8258,-5.7993,-5.7703,-5.7364,-5.7303,-5.7179,-5.684,-5.681,-5.681,-5.681,-5.681,-5.681,-5.681,-5.681,-5.681,-5.681,-5.681,-5.681,-5.681,-5.681,-5.681,-5.681,-5.681,-5.681,-5.681,-5.681,-5.681,-5.681,-5.681,-5.681,0.0,0.0,0.0,0.0,0.0,-5.7881,0.0,0.0,0.0,0.0,0.0,0.0,0.0,0.0,0.0,0.0,0.0,0.0,0.0,0.0,0.0,0.0,0.0,0.0,0.0,-6.2076,-6.2245,-6.2381,-6.2381,-6.2381,-6.2381,-6.2381,-6.2381,-6.2381,-6.2381,-6.2381,-6.2381,-6.2381,-6.2381,-6.2381,-6.2381,-6.2381,-6.2381,-6.2381,-6.2381,-6.2381,-6.2381,-6.2381,-6.2381,-6.2381,-6.2381,-6.2381,-6.2381,-6.2381,-6.2381,-6.2381,-6.2403,-6.2514,-6.333,-6.3586,-6.3523,-6.2791,-6.2418,-6.2142,-6.1372,-6.0074,-5.8793,-5.8793,-5.8793,-5.8793,-5.8793,-5.867,-5.8577,-5.8577,-5.8485,-5.8393,-5.8393,-5.8011,-5.7641,-5.7641,-5.7179,-5.6994,-5.7518,-5.7179,-5.681,-5.681,-5.681,-5.681,-5.681,-5.681,-5.681,-5.681,-5.681,-5.681,-5.681,-5.681,-5.681,-5.681,-5.681,-5.681,-5.681,-5.681,-5.681,-5.681,-5.681,-5.681,-5.681,-5.681,-5.681,-5.681,-5.681,-5.681,0.0,0.0,0.0,0.0,-5.7881,0.0,0.0,0.0,-5.7881,-5.7881,0.0,0.0,0.0,0.0,0.0,0.0,0.0,0.0,0.0,0.0,0.0,0.0,0.0,0.0,0.0,0.0,-6.1704,-6.2347,-6.2381,-6.2381,-6.2381,-6.2381,-6.2381,-6.2381,-6.2381,-6.2381,-6.2381,-6.2381,-6.2381,-6.2381,-6.2381,-6.2381,-6.2381,-6.2381,-6.2381,-6.2381,-6.2381,-6.2381,-6.2381,-6.2381,-6.2381,-6.2381,-6.2381,-6.2381,-6.2381,-6.2381,-6.2415,-6.2431,-6.2541,-6.2547,-6.2283,-6.0582,-5.9678,-5.9278,-5.9129,-5.8962,-5.8793,-5.8793,-5.8793,-5.8793,-5.8793,-5.8331,-5.7919,-5.7919,-5.7487,-5.7056,-5.7056,-5.6994,-5.6933,-5.6933,-5.6871,-5.684,-5.6902,-5.6871,-5.681,-5.681,-5.681,-5.681,-5.681,-5.681,-5.681,-5.681,-5.681,-5.681,-5.681,-5.681,-5.681,-5.681,-5.681,-5.681,-5.681,-5.681,-5.681,-5.681,-5.681,-5.681,-5.681,-5.681,-5.681,-5.681,-5.681,-5.681,0.0,0.0,0.0,0.0,0.0,0.0,-5.7881,0.0,-5.7881,0.0,0.0,0.0,0.0,0.0,0.0,0.0,0.0,0.0,0.0,0.0,0.0,0.0,0.0,0.0,0.0,0.0,0.0,0.0,0.0,-6.1941,-6.2381,-6.2381,-6.2381,-6.2381,-6.2381,-6.2381,-6.2381,-6.2381,-6.2381,-6.2381,-6.2381,-6.2381,-6.2381,-6.2381,-6.2381,-6.2381,-6.2381,-6.2381,-6.2381,-6.2381,-6.2381,-6.2381,-6.2381,-6.2381,-6.2381,-6.2381,-6.2381,-6.2409,-6.2388,-6.2401,-6.2278,-6.1513,-6.0673,-5.9968,-5.9451,-5.8877,-5.8338,-5.7788,-5.7672,-5.7672,-5.7672,-5.7457,-5.7241,-5.7241,-5.7025,-5.681,-5.681,-5.681,-5.681,-5.681,-5.681,-5.681,-5.681,-5.681,-5.681,-5.681,-5.681,-5.681,-5.681,-5.681,-5.681,-5.681,-5.681,-5.681,-5.681,-5.681,-5.681,-5.681,-5.681,-5.681,-5.681,-5.681,-5.681,-5.681,-5.681,-5.681,-5.681,-5.681,-5.681,-5.681,-5.681,-5.681,-5.7881,0.0,0.0,0.0,0.0,0.0,0.0,0.0,0.0,0.0,0.0,0.0,0.0,0.0,0.0,0.0,0.0,0.0,0.0,0.0,0.0,0.0,0.0,0.0,0.0,0.0,0.0,-6.0926,-6.096,-6.1197,-6.1738,-6.1975,-6.211,-6.211,-6.2279,-6.2381,-6.2381,-6.2381,-6.2381,-6.2381,-6.2381,-6.2381,-6.2381,-6.2381,-6.2381,-6.2381,-6.2381,-6.2381,-6.2381,-6.2381,-6.2381,-6.2381,-6.2381,-6.2381,-6.2381,-6.2381,-6.2381,-6.2381,-6.2381,-6.2403,-6.238,-6.2098,-6.1391,-6.045,-5.9588,-5.8992,-5.8378,-5.7543,-5.7418,-5.7559,-5.7559,-5.7401,-5.7163,-5.7163,-5.7002,-5.681,-5.681,-5.681,-5.681,-5.681,-5.681,-5.681,-5.681,-5.681,-5.681,-5.681,-5.681,-5.681,-5.681,-5.681,-5.681,-5.681,-5.681,-5.681,-5.681,-5.681,-5.681,-5.681,-5.681,-5.681,-5.681,-5.681,-5.681,-5.681,-5.681,-5.681,-5.681,-5.681,-5.681,-5.681,-5.681,-5.681,0.0,0.0,0.0,-5.7881,0.0,0.0,0.0,0.0,-5.7881,0.0,0.0,0.0,0.0,0.0,-5.7645,-5.6934,0.0,0.0,0.0,0.0,0.0,0.0,0.0,0.0,0.0,0.0,0.0,-6.008,-6.0148,-6.0148,-6.0182,-6.0926,-6.1332,-6.1332,-6.2009,-6.2381,-6.2381,-6.2381,-6.2381,-6.2381,-6.2381,-6.2381,-6.2381,-6.2381,-6.2381,-6.2381,-6.2381,-6.2381,-6.2381,-6.2381,-6.2381,-6.2381,-6.2381,-6.2381,-6.2381,-6.2381,-6.2381,-6.2381,-6.2381,-6.2428,-6.2224,-6.1343,-6.044,-5.9522,-5.8851,-5.9056,-5.9434,-5.8719,-5.9,-5.9499,-5.9499,-5.8863,-5.8165,-5.8165,-5.7448,-5.681,-5.681,-5.681,-5.681,-5.681,-5.681,-5.681,-5.681,-5.681,-5.681,-5.681,-5.681,-5.681,-5.681,-5.681,-5.681,-5.681,-5.681,-5.681,-5.681,-5.681,-5.681,-5.681,-5.681,-5.681,-5.681,-5.681,-5.681,-5.681,-5.681,-5.681,-5.681,-5.681,-5.681,-5.681,-5.681,-5.681,0.0,0.0,-5.7881,-5.7881,0.0,0.0,0.0,0.0,0.0,0.0,0.0,0.0,0.0,0.0,-5.7814,-5.7577,-5.734,-5.707,0.0,0.0,0.0,0.0,0.0,0.0,0.0,0.0,0.0,-5.9336,-5.937,-5.9607,-6.008,-6.0351,-6.052,-6.052,-6.0757,-6.1129,-6.167,-6.167,-6.1907,-6.2381,-6.2381,-6.2381,-6.2381,-6.2381,-6.2381,-6.2381,-6.2381,-6.2381,-6.2381,-6.2381,-6.2381,-6.2381,-6.2381,-6.2381,-6.2381,-6.2381,-6.2381,-6.2381,-6.2381,-6.2398,-6.2333,-6.2018,-6.1716,-6.1317,-6.0454,-6.0351,-6.0204,-5.8761,-5.8464,-5.8546,-5.7933,-5.7511,-5.7258,-5.7258,-5.705,-5.681,-5.681,-5.681,-5.681,-5.681,-5.681,-5.681,-5.681,-5.681,-5.681,-5.681,-5.681,-5.681,-5.681,-5.681,-5.681,-5.681,-5.681,-5.681,-5.681,-5.681,-5.681,-5.681,-5.681,-5.681,-5.681,-5.681,-5.681,-5.681,-5.681,-5.681,-5.681,-5.681,-5.681,-5.681,-5.681,-5.681,-5.8355,-5.8287,0.0,-5.7949,-5.7881,0.0,-5.7881,0.0,-5.7881,0.0,0.0,0.0,0.0,0.0,-5.7881,-5.7881,-5.7476,-5.7103,0.0,-5.619,0.0,0.0,0.0,0.0,0.0,0.0,-5.7712,-5.8186,-5.8457,-5.8829,0.0,0.0,-5.9708,-5.9708,-5.9979,-6.0351,-6.0858,-6.0858,-6.1095,-6.1569,-6.1569,-6.1738,-6.2009,-6.2009,-6.2144,-6.2381,-6.2381,-6.2381,-6.2381,-6.2381,-6.2381,-6.2381,-6.2381,-6.2381,-6.2381,-6.2381,-6.2381,-6.2381,-6.2381,-6.2381,-6.2381,-6.2381,-6.2381,-6.2302,-6.1676,-6.1513,-6.1334,-6.0489,-5.9978,-5.9608,-5.9287,-5.8751,-5.8318,-5.8318,-5.8041,-5.7793,-5.7793,-5.7793,-5.7793,-5.7793,-5.7543,-5.7306,-5.7306,-5.7019,-5.681,-5.681,-5.681,-5.681,-5.681,-5.681,-5.681,-5.681,-5.681,-5.681,-5.681,-5.681,-5.681,-5.681,-5.681,-5.681,-5.681,-5.681,-5.681,-5.681,-5.681,-5.681,-5.681,-5.681,-5.681,-5.681,-5.681,-5.681]}]]